[[{"header":{"parameterUnit":"m.s-1","parameterCategory":1,"la1":31.0,"la2":29.5877,"lo1":-88.7671,"lo2":-86.6584,"dy":0.0162,"dx":0.0185,"nx":115,"ny":88,"refTime":"2024-05-08T06:00:00:Z","depth":0,"parameterNumber":2,"parameterNumberName":"U-component_of_WINDS"},"data":[0.0,0.0,0.0,0.0,0.0,0.0,0.0,0.0,0.0,0.0,0.0,0.0,0.0,0.0,0.0,0.0,0.0,0.0,0.0,0.0,0.0,0.0,0.0,0.0,0.0,0.0,0.0,0.0,0.0,0.0,0.0,0.0,0.0,0.0,0.0,0.0,0.0,0.0,0.0,0.0,0.0,0.0,0.0,0.0,0.0,0.0,0.0,0.0,0.0,0.0,0.0,0.0,0.0,0.0,0.0,0.0,0.0,0.0,0.0,0.0,0.0,0.0,0.0,0.0,0.0,0.0,0.0,0.0,0.0,0.0,0.0,0.0,0.0,0.0,0.0,0.0,0.0,0.0,0.0,0.0,0.0,0.0,0.0,0.0,0.0,0.0,0.0,0.0,0.0,0.0,0.0,0.0,0.0,0.0,0.0,0.0,0.0,0.0,0.0,0.0,0.0,0.0,0.0,0.0,0.0,0.0,0.0,0.0,0.0,0.0,0.0,0.0,0.0,0.0,0.0,0.0,0.0,0.0,0.0,0.0,0.0,0.0,0.0,0.0,0.0,0.0,0.0,0.0,0.0,0.0,0.0,0.0,0.0,0.0,0.0,0.0,0.0,0.0,0.0,0.0,0.0,0.0,0.0,0.0,0.0,0.0,0.0,0.0,0.0,0.0,0.0,0.0,0.0,0.0,0.0,0.0,0.0,0.0,0.0,0.0,0.0,0.0,0.0,0.0,0.0,0.0,0.0,0.0,0.0,0.0,0.0,0.0,0.0,0.0,0.0,0.0,0.0,0.0,0.0,0.0,0.0,0.0,0.0,0.0,0.0,0.0,0.0,0.0,0.0,0.0,0.0,0.0,0.0,0.0,0.0,0.0,0.0,0.0,0.0,0.0,0.0,0.0,0.0,0.0,0.0,0.0,0.0,0.0,0.0,0.0,0.0,0.0,0.0,0.0,0.0,0.0,0.0,0.0,0.0,0.0,0.0,0.0,0.0,0.0,0.0,0.0,0.0,0.0,0.0,0.0,0.0,0.0,0.0,0.0,0.0,0.0,0.0,0.0,0.0,0.0,0.0,0.0,0.0,0.0,0.0,0.0,0.0,0.0,0.0,0.0,0.0,0.0,0.0,0.0,0.0,0.0,0.0,0.0,0.0,0.0,0.0,0.0,0.0,0.0,0.0,0.0,0.0,0.0,0.0,0.0,0.0,0.0,0.0,0.0,0.0,0.0,0.0,0.0,0.0,0.0,0.0,0.0,0.0,0.0,0.0,0.0,0.0,0.0,0.0,0.0,0.0,0.0,0.0,0.0,0.0,0.0,0.0,0.0,0.0,0.0,0.0,0.0,0.0,0.0,0.0,0.0,0.0,0.0,0.0,0.0,0.0,0.0,0.0,0.0,0.0,0.0,0.0,0.0,0.0,0.0,0.0,0.0,0.0,0.0,0.0,0.0,0.0,0.0,0.0,0.0,0.0,0.0,0.0,0.0,0.0,0.0,0.0,0.0,0.0,0.0,0.0,0.0,0.0,0.0,0.0,0.0,0.0,0.0,0.0,0.0,0.0,0.0,0.0,0.0,0.0,0.0,0.0,0.0,0.0,0.0,0.0,0.0,0.0,0.0,0.0,0.0,0.0,0.0,0.0,0.0,0.0,0.0,0.0,0.0,0.0,0.0,0.0,0.0,0.0,0.0,0.0,0.0,0.0,0.0,0.0,0.0,0.0,0.0,0.0,0.0,0.0,0.0,0.0,0.0,0.0,0.0,0.0,0.0,0.0,0.0,0.0,0.0,0.0,0.0,0.0,0.0,0.0,0.0,0.0,0.0,0.0,0.0,0.0,0.0,0.0,0.0,0.0,0.0,0.0,0.0,0.0,0.0,0.0,0.0,0.0,0.0,0.0,0.0,0.0,0.0,0.0,0.0,0.0,0.0,0.0,0.0,0.0,0.0,0.0,0.0,0.0,0.0,0.0,0.0,0.0,0.0,0.0,0.0,0.0,0.0,0.0,0.0,0.0,0.0,0.0,0.0,0.0,0.0,0.0,0.0,0.0,0.0,0.0,0.0,0.0,0.0,0.0,0.0,0.0,0.0,0.0,0.0,0.0,0.0,0.0,0.0,0.0,0.0,0.0,0.0,0.0,0.0,0.0,0.0,0.0,0.0,0.0,0.0,0.0,0.0,0.0,0.0,0.0,0.0,0.0,0.0,0.0,0.0,0.0,0.0,0.0,0.0,0.0,0.0,0.0,0.0,0.0,0.0,0.0,0.0,0.0,0.0,0.0,0.0,0.0,0.0,0.0,0.0,0.0,0.0,0.0,0.0,0.0,0.0,0.0,0.0,0.0,0.0,0.0,0.0,0.0,0.0,0.0,0.0,0.0,0.0,0.0,0.0,0.0,0.0,0.0,0.0,0.0,0.0,0.0,0.0,0.0,0.0,0.0,0.0,0.0,0.0,0.0,0.0,0.0,0.0,0.0,0.0,0.0,0.0,0.0,0.0,0.0,0.0,0.0,0.0,0.0,0.0,0.0,0.0,0.0,0.0,0.0,0.0,0.0,0.0,0.0,0.0,0.0,0.0,0.0,0.0,0.0,0.0,0.0,0.0,0.0,0.0,0.0,0.0,0.0,0.0,0.0,0.0,0.0,0.0,0.0,0.0,0.0,0.0,0.0,0.0,0.0,0.0,0.0,0.0,0.0,0.0,0.0,0.0,0.0,0.0,0.0,0.0,0.0,0.0,0.0,0.0,0.0,0.0,0.0,0.0,0.0,0.0,0.0,0.0,0.0,0.0,0.0,0.0,0.0,0.0,0.0,0.0,0.0,0.0,0.0,0.0,0.0,0.0,0.0,0.0,0.0,0.0,0.0,0.0,0.0,0.0,0.0,0.0,0.0,0.0,0.0,0.0,0.0,0.0,0.0,0.0,0.0,0.0,0.0,0.0,0.0,0.0,0.0,0.0,0.0,0.0,0.0,0.0,0.0,0.0,0.0,0.0,0.0,0.0,0.0,0.0,0.0,0.0,0.0,0.0,0.0,0.0,0.0,0.0,0.0,0.0,0.0,0.0,0.0,0.0,0.0,0.0,0.0,0.0,0.0,0.0,0.0,0.0,0.0,0.0,0.0,0.0,0.0,0.0,0.0,0.0,0.0,0.0,0.0,0.0,0.0,0.0,0.0,0.0,0.0,0.0,0.0,0.0,0.0,0.0,0.0,0.0,0.0,0.0,0.0,0.0,0.0,0.0,0.0,0.0,0.0,0.0,0.0,0.0,0.0,0.0,0.0,0.0,0.0,0.0,0.0,0.0,0.0,0.0,0.0,0.0,0.0,0.0,0.0,0.0,0.0,0.0,0.0,0.0,0.0,0.0,0.0,0.0,0.0,0.0,0.0,0.0,0.0,0.0,0.0,0.0,0.0,0.0,0.0,0.0,0.0,0.0,0.0,0.0,0.0,0.0,0.0,0.0,0.0,0.0,0.0,0.0,0.0,0.0,0.0,0.0,0.0,0.0,0.0,0.0,0.0,0.0,0.0,0.0,0.0,0.0,0.0,0.0,0.0,0.0,0.0,0.0,0.0,0.0,0.0,0.0,0.0,0.0,0.0,0.0,0.0,0.0,0.0,0.0,0.0,0.0,0.0,0.0,0.0,0.0,0.0,0.0,0.0,0.0,0.0,0.0,0.0,0.0,0.0,0.0,0.0,0.0,0.0,0.0,0.0,0.0,0.0,0.0,0.0,0.0,0.0,0.0,0.0,0.0,0.0,0.0,0.0,0.0,0.0,0.0,0.0,0.0,0.0,0.0,0.0,0.0,0.0,0.0,0.0,0.0,0.0,0.0,0.0,0.0,0.0,0.0,0.0,0.0,0.0,0.0,0.0,0.0,0.0,0.0,0.0,0.0,0.0,0.0,0.0,0.0,0.0,0.0,0.0,0.0,0.0,0.0,0.0,0.0,0.0,0.0,0.0,0.0,0.0,0.0,0.0,0.0,0.0,0.0,0.0,0.0,0.0,0.0,0.0,0.0,0.0,0.0,0.0,0.0,0.0,0.0,0.0,0.0,0.0,0.0,0.0,0.0,0.0,0.0,0.0,0.0,0.0,0.0,0.0,0.0,0.0,0.0,0.0,0.0,0.0,0.0,0.0,0.0,0.0,0.0,0.0,0.0,0.0,0.0,0.0,0.0,0.0,0.0,0.0,0.0,0.0,0.0,0.0,0.0,0.0,0.0,0.0,0.0,0.0,0.0,0.0,0.0,0.0,0.0,0.0,0.0,0.0,0.0,0.0,0.0,2.0432,0.0,0.0,0.0,0.0,0.0,0.0,0.0,0.0,0.0,0.0,0.0,0.0,0.0,0.0,0.0,0.0,0.0,0.0,0.0,0.0,0.0,0.0,0.0,0.0,0.0,0.0,0.0,0.0,0.0,0.0,0.0,0.0,0.0,0.0,0.0,0.0,0.0,0.0,0.0,0.0,0.0,0.0,0.0,0.0,0.0,0.0,0.0,0.0,0.0,0.0,0.0,0.0,0.0,0.0,0.0,0.0,0.0,0.0,0.0,0.0,0.0,0.0,0.0,0.0,0.0,0.0,0.0,0.0,0.0,0.0,0.0,0.0,0.0,0.0,0.0,0.0,0.0,0.0,0.0,0.0,0.0,0.0,0.0,0.0,0.0,0.0,0.0,0.0,0.0,0.0,0.0,0.0,0.0,0.0,0.0,0.0,0.0,0.0,0.0,0.0,0.0,0.0,0.0,0.0,0.0,0.0,0.0,0.0,0.0,0.0,2.0042,1.942,2.0042,2.0181,1.9734,0.0,0.0,0.0,0.0,0.0,0.0,0.0,0.0,0.0,0.0,0.0,0.0,0.0,0.0,0.0,0.0,0.0,0.0,0.0,0.0,0.0,0.0,0.0,0.0,0.0,0.0,0.0,0.0,0.0,0.0,0.0,0.0,0.0,0.0,0.0,0.0,0.0,0.0,0.0,0.0,0.0,0.0,0.0,0.0,0.0,0.0,0.0,0.0,0.0,0.0,0.0,0.0,0.0,0.0,0.0,0.0,0.0,0.0,0.0,0.0,0.0,0.0,0.0,0.0,0.0,0.0,0.0,0.0,0.0,0.0,0.0,0.0,0.0,0.0,0.0,0.0,0.0,0.0,0.0,0.0,0.0,0.0,0.0,0.0,0.0,0.0,0.0,0.0,0.0,0.0,0.0,0.0,0.0,0.0,0.0,0.0,0.0,0.0,0.0,0.0,0.0,0.0,0.0,0.0,0.0,0.0,0.0,0.0,0.0,0.0,0.0,0.0,1.8922,1.8869,1.8738,0.0,0.0,0.0,0.0,0.0,0.0,0.0,0.0,0.0,0.0,0.0,0.0,0.0,0.0,0.0,0.0,0.0,0.0,0.0,0.0,0.0,0.0,0.0,0.0,0.0,0.0,0.0,0.0,0.0,0.0,0.0,0.0,0.0,0.0,0.0,0.0,0.0,0.0,0.0,0.0,0.0,0.0,0.0,0.0,0.0,0.0,0.0,0.0,0.0,0.0,0.0,0.0,0.0,0.0,0.0,0.0,0.0,0.0,0.0,0.0,0.0,0.0,0.0,0.0,0.0,0.0,0.0,0.0,0.0,0.0,0.0,0.0,0.0,0.0,0.0,0.0,0.0,0.0,0.0,0.0,0.0,0.0,0.0,0.0,0.0,0.0,0.0,0.0,0.0,0.0,0.0,0.0,0.0,0.0,0.0,0.0,0.0,0.0,0.0,0.0,0.0,0.0,0.0,0.0,0.0,0.0,0.0,0.0,0.0,0.0,1.7843,1.7412,1.7379,0.0,1.6802,0.0,0.0,0.0,0.0,0.0,0.0,0.0,0.0,0.0,0.0,0.0,0.0,0.0,0.0,0.0,0.0,0.0,0.0,0.0,0.0,0.0,0.0,0.0,0.0,0.0,0.0,0.0,0.0,0.0,0.0,0.0,0.0,0.0,0.0,0.0,0.0,0.0,0.0,0.0,0.0,0.0,0.0,0.0,0.0,0.0,0.0,0.0,0.0,0.0,0.0,0.0,0.0,0.0,0.0,0.0,0.0,0.0,0.0,0.0,0.0,0.0,0.0,0.0,0.0,0.0,0.0,0.0,0.0,0.0,0.0,0.0,0.0,0.0,0.0,0.0,0.0,0.0,0.0,0.0,0.0,0.0,0.0,0.0,0.0,0.0,0.0,0.0,0.0,0.0,0.0,0.0,0.0,0.0,0.0,0.0,0.0,0.0,0.0,0.0,0.0,0.0,0.0,0.0,0.0,0.0,0.0,0.0,0.0,0.0,0.0,1.8097,1.7546,1.7015,1.6502,0.0,0.0,0.0,0.0,0.0,0.0,0.0,0.0,0.0,0.0,0.0,0.0,0.0,0.0,0.0,0.0,0.0,0.0,0.0,0.0,0.0,0.0,0.0,0.0,0.0,0.0,0.0,0.0,0.0,0.0,0.0,0.0,0.0,0.0,0.0,0.0,0.0,0.0,0.0,0.0,0.0,0.0,0.0,0.0,0.0,0.0,0.0,0.0,0.0,0.0,0.0,0.0,0.0,0.0,0.0,0.0,0.0,0.0,0.0,0.0,0.0,0.0,0.0,0.0,0.0,0.0,0.0,0.0,0.0,0.0,0.0,0.0,0.0,0.0,0.0,0.0,0.0,0.0,0.0,0.0,0.0,0.0,0.0,0.0,0.0,0.0,0.0,0.0,0.0,0.0,0.0,0.0,0.0,0.0,0.0,0.0,0.0,0.0,0.0,0.0,0.0,0.0,0.0,0.0,0.0,0.0,0.0,0.0,0.0,0.0,1.8057,1.7688,1.7161,1.6481,1.5811,1.5185,0.0,0.0,0.0,0.0,0.0,0.0,0.0,0.0,0.0,0.0,0.0,0.0,0.0,0.0,0.0,0.0,0.0,0.0,0.0,0.0,0.0,0.0,0.0,0.0,0.0,0.0,0.0,0.0,0.0,0.0,0.0,0.0,0.0,0.0,0.0,0.0,0.0,0.0,0.0,0.0,0.0,0.0,0.0,0.0,0.0,0.0,0.0,0.0,0.0,0.0,0.0,0.0,0.0,0.0,0.0,0.0,0.0,0.0,0.0,0.0,0.0,0.0,0.0,0.0,0.0,0.0,0.0,0.0,0.0,0.0,0.0,0.0,0.0,0.0,0.0,0.0,0.0,0.0,0.0,0.0,0.0,0.0,0.0,0.0,0.0,0.0,0.0,0.0,0.0,0.0,0.0,0.0,0.0,0.0,0.0,0.0,0.0,0.0,0.0,0.0,0.0,0.0,0.0,0.0,0.0,0.0,0.0,0.0,1.6275,1.6284,1.6019,1.5578,1.5495,1.4867,0.0,0.0,0.0,0.0,0.0,0.0,0.0,0.0,0.0,0.0,0.0,0.0,0.0,0.0,0.0,0.0,0.0,0.0,0.0,0.0,0.0,0.0,0.0,0.0,0.0,0.0,0.0,0.0,0.0,0.0,0.0,0.0,0.0,0.0,0.0,0.0,0.0,0.0,0.0,0.0,0.0,0.0,0.0,0.0,0.0,0.0,0.0,0.0,0.0,0.0,0.0,0.0,0.0,0.0,0.0,0.0,0.0,0.0,0.0,0.0,0.0,0.0,0.0,0.0,0.0,0.0,0.0,0.0,0.0,0.0,0.0,0.0,0.0,0.0,0.0,0.0,0.0,0.0,0.0,0.0,0.0,0.0,0.0,0.0,0.0,0.0,0.0,0.0,0.0,0.0,0.0,0.0,0.0,0.0,0.0,0.0,0.0,0.0,0.0,0.0,0.0,0.0,0.0,0.0,0.0,0.0,0.0,0.0,0.0,1.692,1.6594,1.5909,1.4916,1.4656,1.3942,0.0,0.0,0.0,0.0,0.0,0.0,0.0,0.0,0.0,0.0,0.0,0.0,0.0,0.0,0.0,0.0,0.0,0.0,0.0,0.0,0.0,0.0,0.0,0.0,0.0,0.0,0.0,0.0,0.0,0.0,0.0,0.0,0.0,0.0,0.0,0.0,0.0,0.0,0.0,0.0,0.0,0.0,0.0,0.0,0.0,0.0,0.0,0.0,0.0,0.0,0.0,0.0,0.0,0.0,0.0,0.0,0.0,0.0,0.0,0.0,0.0,0.0,0.0,0.0,0.0,0.0,0.0,0.0,0.0,0.0,0.0,0.0,0.0,0.0,0.0,0.0,0.0,0.0,0.0,0.0,0.0,0.0,0.0,0.0,0.0,0.0,0.0,0.0,0.0,0.0,0.0,0.0,0.0,0.0,0.0,0.0,0.0,0.0,0.0,0.0,0.0,0.0,0.0,0.0,0.0,0.0,0.0,0.0,0.0,1.6219,0.0,1.4969,1.4096,1.3831,1.3101,0.0,0.0,0.0,0.0,0.0,0.0,0.0,0.0,0.0,0.0,0.0,0.0,0.0,0.0,0.0,0.0,0.0,0.0,0.0,0.0,0.0,0.0,0.0,0.0,0.0,0.0,0.0,0.0,0.0,0.0,0.0,0.0,0.0,0.0,0.0,0.0,0.0,0.0,0.0,0.0,0.0,0.0,0.0,0.0,0.0,0.0,0.0,0.0,0.0,0.0,0.0,0.0,0.0,0.0,0.0,0.0,0.0,0.0,0.0,0.0,0.0,0.0,0.0,0.0,0.0,0.0,0.0,0.0,0.0,0.0,0.0,0.0,0.0,0.0,0.0,0.0,0.0,0.0,0.0,0.0,0.0,0.0,0.0,0.0,0.0,0.0,0.0,0.0,0.0,0.0,0.0,0.0,0.0,0.0,0.0,0.0,0.0,0.0,0.0,0.0,0.0,0.0,0.0,0.0,0.0,0.0,0.0,0.0,1.4879,1.3738,1.323,1.3004,1.2858,1.2924,1.2492,0.0,0.0,0.0,0.0,0.0,0.0,0.0,0.0,0.0,0.0,0.0,0.0,0.0,0.0,0.0,0.0,0.0,0.0,0.0,0.0,0.0,0.0,0.0,0.0,0.0,0.0,0.0,0.0,0.0,0.0,0.0,0.0,0.0,0.0,0.0,0.0,0.0,0.0,0.0,0.0,0.0,0.0,0.0,0.0,0.0,0.0,0.0,0.0,0.0,0.0,0.0,0.0,0.0,0.0,0.0,0.0,0.0,0.0,0.0,0.0,0.0,0.0,0.0,0.0,0.0,0.0,0.0,0.0,0.0,0.0,0.0,0.0,0.0,0.0,0.0,0.0,0.0,0.0,0.0,0.0,0.0,0.0,0.0,0.0,0.0,0.0,0.0,0.0,0.0,0.0,0.0,0.0,0.0,0.0,0.0,0.0,0.0,0.0,0.0,0.0,0.0,0.0,0.0,0.0,0.0,0.0,0.0,0.0,0.0,1.2417,1.2764,1.2572,1.1916,1.1996,1.1397,0.0,0.0,0.0,0.0,0.0,0.0,0.0,0.0,0.0,0.0,0.0,0.0,0.0,0.0,0.0,0.0,0.0,0.0,0.0,0.0,0.0,0.0,0.0,0.0,0.0,0.0,0.0,0.0,0.0,0.0,0.0,0.0,0.0,0.0,0.0,0.0,0.0,0.0,0.0,0.0,0.0,0.0,0.0,0.0,0.0,0.0,0.0,0.0,0.0,0.0,0.0,0.0,0.0,0.0,0.0,0.0,0.0,0.0,0.0,0.0,0.0,0.0,0.0,0.0,0.0,0.0,0.0,0.0,0.0,0.0,0.0,0.0,0.0,0.0,0.0,0.0,0.0,0.0,0.0,0.0,0.0,0.0,0.0,0.0,0.0,0.0,0.0,0.0,0.0,0.0,0.0,0.0,0.0,0.0,0.0,0.0,0.0,0.0,0.0,0.0,0.0,0.0,0.0,0.0,0.0,0.0,0.0,0.0,0.0,0.9811,1.0616,1.0761,1.0171,1.0019,0.9443,0.8394,0.0,0.0,0.0,0.0,0.0,0.0,0.0,0.0,0.0,0.0,0.0,0.0,0.0,0.0,0.0,0.0,0.0,0.0,0.0,0.0,0.0,0.0,0.0,0.0,0.0,0.0,0.0,0.0,0.0,0.0,0.0,0.0,0.0,0.0,0.0,0.0,0.0,0.0,0.0,0.0,0.0,0.0,0.0,0.0,0.0,0.0,0.0,0.0,0.0,0.0,0.0,0.0,0.0,0.0,0.0,0.0,0.0,0.0,0.0,0.0,0.0,0.0,0.0,0.0,0.0,0.0,0.0,0.0,0.0,0.0,0.0,0.0,0.0,0.0,0.0,0.0,0.0,0.0,0.0,0.0,0.0,0.0,0.0,0.0,0.0,0.0,0.0,0.0,0.0,0.0,0.0,0.0,0.0,0.0,0.0,0.0,0.0,0.0,0.0,0.0,0.0,0.0,0.0,0.0,0.0,0.0,0.0,0.0,0.6157,0.7116,0.7784,0.7852,0.7358,0.6953,0.0,0.0,0.0,0.0,0.0,0.0,0.0,0.0,0.0,0.0,0.0,0.0,0.0,0.0,0.0,0.0,0.0,0.0,0.0,0.0,0.0,0.0,0.0,0.0,0.0,0.0,0.0,0.0,0.0,0.0,0.0,0.0,0.0,0.0,0.0,0.0,0.0,0.0,0.0,0.0,0.0,0.0,0.0,0.0,0.0,0.0,0.0,0.0,0.0,0.0,0.0,0.0,0.0,0.0,0.0,0.0,0.0,0.0,0.0,0.0,0.0,0.0,0.0,0.0,0.0,0.0,0.0,0.0,0.0,0.0,0.0,0.0,0.0,0.0,0.0,0.0,0.0,0.0,0.0,0.0,0.0,0.0,0.0,0.0,0.0,0.0,0.0,0.0,0.0,0.0,0.0,0.0,0.0,0.0,0.0,0.0,0.0,0.0,0.0,0.0,0.0,0.0,0.0,0.0,0.0,0.0,0.0,0.0,0.0,0.4522,0.4741,0.5385,0.6319,0.6463,0.6179,0.0,0.0,0.0,0.0,0.0,0.0,0.0,0.0,0.0,0.0,0.0,0.0,0.0,0.0,0.0,0.0,0.0,0.0,0.0,0.0,0.0,0.0,0.0,0.0,0.0,0.0,0.0,0.0,0.0,0.0,0.0,0.0,0.0,0.0,0.0,0.0,0.0,0.0,0.0,0.0,0.0,0.0,0.0,0.0,0.0,0.0,0.0,0.0,0.0,0.0,0.0,0.0,0.0,0.0,0.0,0.0,0.0,0.0,0.0,0.0,0.0,0.0,0.0,0.0,0.0,0.0,0.0,0.0,0.0,0.0,0.0,0.0,0.0,0.0,0.0,0.0,0.0,0.0,0.0,0.0,0.0,0.0,0.0,0.0,0.0,0.0,0.0,0.0,0.0,0.0,0.0,0.0,0.0,0.0,0.0,0.0,0.0,0.0,0.0,0.0,0.0,0.0,0.0,0.0,0.0,0.0,0.0,0.0,0.4753,0.368,0.2416,0.2092,0.2903,0.4126,0.4643,0.0,0.0,0.0,0.0,0.0,0.0,0.0,0.0,0.0,0.0,0.0,0.0,0.0,0.0,0.0,0.0,0.0,0.0,0.0,0.0,0.0,0.0,0.0,0.0,0.0,0.0,0.0,0.0,0.0,0.0,0.0,0.0,0.0,0.0,0.0,0.0,0.0,0.0,0.0,0.0,0.0,0.0,0.0,0.0,0.0,0.0,0.0,0.0,0.0,0.0,0.0,0.0,0.0,0.0,0.0,0.0,0.0,0.0,0.0,0.0,0.0,0.0,0.0,0.0,0.0,0.0,0.0,0.0,0.0,0.0,0.0,0.0,0.0,0.0,0.0,0.0,0.0,0.0,0.0,0.0,0.0,0.0,0.0,0.0,0.0,0.0,0.0,0.0,0.0,0.0,0.0,0.0,0.0,0.0,0.0,0.0,0.0,0.0,0.0,0.0,0.0,0.0,0.0,0.0,0.0,0.0,0.0,0.0,0.3135,0.288,0.0194,-0.1209,-0.1207,0.1103,0.2591,0.0,0.0,0.0,0.0,0.0,0.0,0.0,0.0,0.0,0.0,0.0,0.0,0.0,0.0,0.0,0.0,0.0,0.0,0.0,0.0,0.0,0.0,0.0,0.0,0.0,0.0,0.0,0.0,0.0,0.0,0.0,0.0,0.0,0.0,0.0,0.0,0.0,0.0,0.0,0.0,0.0,0.0,0.0,0.0,0.0,0.0,0.0,0.0,0.0,0.0,0.0,0.0,0.0,0.0,0.0,0.0,0.0,0.0,0.0,0.0,0.0,0.0,0.0,0.0,0.0,0.0,0.0,0.0,0.0,0.0,0.0,0.0,0.0,0.0,0.0,0.0,0.0,0.0,0.0,0.0,0.0,0.0,0.0,0.0,0.0,0.0,0.0,0.0,0.0,0.0,0.0,0.0,0.0,0.0,0.0,0.0,0.0,0.0,0.0,0.0,0.0,0.0,0.0,0.0,0.0,0.0,0.0,0.0,0.0544,-0.1218,-0.1867,-0.2115,-0.2114,-0.0837,-0.0089,0.0,0.0,0.0,0.0,0.0,0.0,0.0,0.0,0.0,0.0,0.0,0.0,0.0,0.0,0.0,0.0,0.0,0.0,0.0,0.0,0.0,0.0,0.0,0.0,0.0,0.0,0.0,0.0,0.0,0.0,0.0,0.0,0.0,0.0,0.0,0.0,0.0,0.0,0.0,0.0,0.0,0.0,0.0,0.0,0.0,0.0,0.0,0.0,0.6803,0.0,0.0,0.0,0.0,0.0,0.0,0.0,0.0,0.0,0.0,0.0,0.0,0.0,0.0,0.0,0.0,0.0,0.0,0.0,0.0,0.0,0.0,0.0,0.0,0.0,0.0,0.0,0.0,0.0,0.0,0.0,0.0,0.0,0.0,0.0,0.0,0.0,0.0,0.0,0.0,0.0,0.0,0.0,0.0,0.0,0.0,0.0,0.0,0.0,0.0,0.0,0.0,0.0,0.0,0.0,0.0,0.0,0.0,0.0,-0.2064,-0.3275,-0.4053,-0.4413,-0.4307,-0.3513,-0.2413,0.0,0.0,0.0,0.0,0.0,0.0,0.0,0.0,0.0,0.0,0.0,0.0,0.0,0.0,0.0,0.0,0.0,0.0,0.0,0.0,0.0,0.0,0.0,0.0,0.0,0.0,0.0,0.0,0.0,0.0,0.0,0.0,0.0,0.0,0.0,0.0,0.0,0.0,0.0,0.0,0.0,0.0,0.0,0.0,0.0,0.0,0.0,0.0,0.0,0.0,0.0,0.0,0.0,0.0,0.0,0.0,0.0,0.0,0.0,0.0,0.0,0.0,0.0,0.0,0.0,0.0,0.0,0.0,0.0,0.0,0.0,0.0,0.0,0.0,0.0,0.0,0.0,0.0,0.0,0.0,0.0,0.0,0.0,0.0,0.0,0.0,0.0,0.0,0.0,0.0,0.0,0.0,0.0,0.0,0.0,0.0,0.0,0.0,0.0,0.0,0.0,0.0,0.0,0.0,0.0,0.0,0.0,-0.4034,-0.4519,-0.4528,-0.6034,-0.6762,-0.6478,-0.5968,-0.4397,-0.1698,0.0,0.0,0.0,0.0,0.0,0.0,0.0,0.0,0.0,0.0,0.0,0.0,0.0,0.0,0.0,0.0,0.0,0.0,0.0,0.0,0.0,0.0,0.0,0.0,0.0,0.0,0.0,0.0,0.0,0.0,0.0,0.0,0.0,0.0,0.0,0.0,0.0,0.0,1.1409,0.9539,0.0,0.0,0.0,0.0,0.0,0.0,0.0,0.0,0.2872,0.0,0.0,0.0,0.0,0.0,0.0,0.0,0.0,0.0,0.0,0.0,0.0,0.0,0.0,0.0,0.0,0.0,0.0,0.0,0.0,0.0,0.0,0.0,0.0,0.0,0.0,0.0,0.0,0.0,0.0,0.0,0.0,0.0,0.0,0.0,0.0,0.0,0.0,0.0,0.0,0.0,0.0,0.0,0.0,0.0,0.0,0.0,0.0,0.0,0.0,0.0,0.0,0.0,0.0,0.0,0.0,-0.5606,-0.5984,-0.6257,-0.6324,-0.6641,-0.675,-0.6747,-0.6504,-0.5916,-0.4739,0.0,0.0,0.0,0.0,0.0,0.0,0.0,0.0,0.0,0.0,0.0,0.0,0.0,0.0,0.0,0.0,0.0,0.0,0.0,0.0,0.0,0.0,0.0,0.0,0.0,0.0,0.0,0.0,0.0,0.0,0.0,0.0,0.0,0.0,0.0,0.0,0.0,0.0,0.0,0.7469,0.5937,0.0,0.0,0.0,0.0,0.0,0.0,0.0,0.0,0.0356,0.0,0.0,0.0,0.0,0.0,0.0,0.0,0.0,0.0,0.0,0.0,0.0,0.0,0.0,0.0,0.0,0.0,0.0,0.0,0.0,0.0,0.0,0.0,0.0,0.0,0.0,0.0,0.0,0.0,0.0,0.0,0.0,0.0,0.0,0.0,0.0,0.0,0.0,0.0,0.0,0.0,0.0,0.0,0.0,0.0,0.0,0.0,0.0,0.0,0.0,0.0,0.0,0.0,0.0,0.0,-0.6652,-0.685,-0.7149,-0.757,-0.7519,-0.7423,-0.7208,-0.7076,-0.67,0.0,0.0,0.0,0.0,0.0,0.0,0.0,0.0,0.0,0.0,0.0,0.0,0.0,0.0,0.0,0.0,0.0,0.0,0.0,0.0,0.0,0.0,0.0,0.0,0.0,0.0,0.0,0.0,0.0,0.0,0.0,0.0,0.0,0.0,0.0,0.0,0.0,0.0,0.0,0.0,0.5586,0.4284,0.3635,0.0,0.0,0.0,0.0,0.0,0.0,-0.0699,-0.1161,0.0,0.0,0.0,0.0,0.0,0.0,0.0,0.0,0.0,0.0,0.0,0.0,0.0,0.0,0.0,0.0,0.0,0.0,0.0,0.0,0.0,0.0,0.0,0.0,0.0,0.0,0.0,0.0,0.0,0.0,0.0,0.0,0.0,0.0,0.0,0.0,0.0,0.0,0.0,0.0,0.0,0.0,0.0,0.0,0.0,0.0,0.0,0.0,0.0,0.0,0.0,0.0,0.0,0.0,0.0,-0.7123,-0.7282,-0.7683,-0.8266,-0.8383,-0.8298,-0.8045,-0.7869,-0.7514,0.0,0.0,0.0,0.0,0.0,0.0,0.0,0.0,0.0,0.0,0.0,0.0,0.0,0.0,0.0,0.0,0.0,0.0,0.0,0.0,0.0,0.0,0.0,0.0,0.0,0.0,0.0,0.0,0.0,0.0,0.0,0.0,0.0,0.0,0.0,0.0,0.0,0.0,0.0,0.0,0.0,0.2467,0.1718,0.0585,0.0,0.0,0.0,0.0,-0.2379,-0.264,0.0,0.0,0.0,0.0,0.0,0.0,0.0,0.0,0.0,0.0,0.0,0.0,0.0,0.0,0.0,0.0,0.0,0.0,0.0,0.0,0.0,0.0,0.0,0.0,0.0,0.0,0.0,0.0,0.0,0.0,0.0,0.0,0.0,0.0,0.0,0.0,0.0,0.0,0.0,0.0,0.0,0.0,0.0,0.0,0.0,0.0,0.0,0.0,0.0,0.0,0.0,0.0,0.0,0.0,0.0,0.0,-0.7333,-0.7685,-0.7923,-0.8128,-0.9167,-0.9612,-0.9351,-0.9101,-0.873,0.0,0.0,0.0,0.0,0.0,0.0,0.0,0.0,0.0,0.0,0.0,0.0,0.0,0.0,0.0,0.0,0.0,0.0,0.0,0.0,0.0,0.0,0.0,0.0,0.0,0.0,0.0,0.0,0.0,0.0,0.0,0.0,0.0,0.0,0.0,0.0,0.0,0.0,0.0,0.0,0.0,-0.0,-0.0687,-0.144,-0.1921,0.0,0.0,-0.3634,-0.3546,-0.4593,0.0,0.0,0.0,0.0,0.0,0.0,0.0,0.0,0.0,0.0,0.0,0.0,0.0,0.0,0.0,0.0,0.0,0.0,0.0,0.0,0.0,0.0,0.0,0.0,0.0,0.0,0.0,0.0,0.0,0.0,0.0,0.0,0.0,0.0,0.0,0.0,0.0,0.0,0.0,0.0,0.0,0.0,0.0,0.0,0.0,0.0,0.0,0.0,0.0,0.0,0.0,0.0,0.0,0.0,0.0,-0.7962,-0.8967,-0.9174,-0.9732,-1.0584,-1.1145,-1.1348,-1.1187,-1.0591,-0.9953,0.0,0.0,0.0,0.0,0.0,0.0,0.0,0.0,0.0,0.0,0.0,0.0,0.0,0.0,0.0,0.0,0.0,0.0,0.0,0.0,0.0,0.0,0.0,0.0,0.0,0.0,0.0,0.0,0.0,0.0,0.0,0.0,0.0,0.0,0.0,0.0,0.0,0.0,0.0,0.0,0.0,0.0,-0.2499,-0.3005,0.0,0.0,0.0,-0.5356,-0.5356,0.0,0.0,0.0,0.0,0.0,0.0,0.0,0.0,0.0,0.0,0.0,0.0,0.0,0.0,0.0,0.0,0.0,0.0,0.0,0.0,0.0,0.0,0.0,0.0,0.0,0.0,0.0,0.0,0.0,0.0,0.0,0.0,0.0,0.0,0.0,0.0,0.0,0.0,0.0,0.0,0.0,0.0,0.0,0.0,0.0,0.0,0.0,0.0,0.0,0.0,0.0,0.0,0.0,0.0,0.0,0.0,0.0,-1.0849,-1.0944,-1.1472,-1.2549,-1.2803,-1.2835,-1.2711,-1.2141,0.0,0.0,0.0,0.0,0.0,0.0,0.0,0.0,0.0,0.0,0.0,0.0,0.0,0.0,0.0,0.0,0.0,0.0,0.0,0.0,0.0,0.0,0.0,0.0,0.0,0.0,0.0,0.392,0.0,0.0,0.0,0.0,0.0,0.0,0.0,0.0,0.0,0.0,0.0,0.0,0.0,0.0,-0.3408,-0.4266,-0.4557,-0.5049,0.0,0.0,-0.6725,-0.6762,-0.6973,-0.6982,0.0,0.0,0.0,0.0,0.0,0.0,0.0,0.0,0.0,0.0,0.0,0.0,0.0,0.0,0.0,0.0,0.0,0.0,0.0,0.0,0.0,0.0,0.0,0.0,0.0,0.0,0.0,0.0,0.0,0.0,0.0,0.0,0.0,0.0,0.0,0.0,0.0,0.0,0.0,0.0,0.0,0.0,0.0,0.0,0.0,0.0,0.0,0.0,0.0,0.0,0.0,0.0,0.0,0.0,-1.3957,-1.2881,-1.2558,-1.2521,-1.2841,-1.3654,-1.4082,-1.38,-1.3343,-1.2532,0.0,0.0,0.0,0.0,0.0,0.0,0.0,0.0,0.0,0.0,0.0,0.0,0.0,0.0,0.0,0.0,0.0,0.0,0.0,0.0,0.0,0.0,0.0,0.0,0.0,0.0,0.0,0.0,0.0,0.0,0.0,0.0,0.0,0.0,0.0,0.0,0.0,0.0,0.0,0.0,0.0,-0.6112,-0.6313,-0.6436,-0.6566,0.0,-0.7001,-0.723,-0.7366,-0.7511,-0.7426,-0.7243,0.0,0.0,0.0,0.0,0.0,0.0,0.0,0.0,0.0,0.0,0.0,0.0,0.0,0.0,0.0,0.0,0.0,0.0,0.0,0.0,0.0,0.0,0.0,0.0,0.0,0.0,0.0,0.0,0.0,0.0,0.0,0.0,0.0,0.0,0.0,0.0,0.0,0.0,0.0,0.0,0.0,0.0,0.0,0.0,0.0,0.0,0.0,0.0,0.0,0.0,0.0,0.0,0.0,-1.4142,-1.5136,-1.4214,-1.4042,-1.4886,-1.5102,-1.5153,-1.5057,-1.4497,-1.3576,0.0,0.0,0.0,0.0,0.0,0.0,0.0,0.0,0.0,0.0,0.0,0.0,0.0,0.0,0.0,0.0,0.0,0.0,0.0,0.0,0.0,0.0,0.0,0.0,0.0,0.0,0.0,0.0,0.2443,0.2585,0.258,0.0,0.0,0.0,0.0,0.0,0.0,0.0,0.0,0.0,0.0,-0.6792,-0.7738,-0.7369,0.0,0.0,-0.8009,-0.7617,-0.778,-0.7804,-0.7607,-0.7316,-0.7089,0.0,0.0,0.0,0.0,0.0,0.0,0.0,0.0,0.0,0.0,0.0,0.0,0.0,0.0,0.0,0.0,0.0,0.0,0.0,0.0,0.0,0.0,0.0,0.0,0.0,0.0,0.0,0.0,0.0,0.0,0.0,0.0,0.0,0.0,0.0,0.0,0.0,0.0,0.0,0.0,0.0,0.0,0.0,0.0,0.0,0.0,0.0,0.0,0.0,0.0,0.0,0.0,-1.4778,-1.6781,-1.562,-1.5417,-1.6305,-1.6028,-1.5832,-1.5818,-1.486,-1.3782,0.0,0.0,0.0,0.0,0.0,0.0,0.0,0.0,0.0,0.0,0.0,0.0,0.0,0.0,0.0,0.0,0.0,0.0,0.0,0.0,0.0,0.0,0.0,0.0,0.0,0.0,0.0,0.0,0.143,0.141,0.1464,0.0,0.0,0.0,0.0,0.0,0.0,0.0,0.0,0.0,0.0,-0.7164,-0.8385,-0.8142,-0.8276,-0.9626,-0.9119,-0.8777,-0.8901,-0.8615,-0.8237,-0.8015,0.0,0.0,0.0,0.0,0.0,0.0,0.0,0.0,0.0,0.0,0.0,0.0,0.0,0.0,0.0,0.0,0.0,0.0,0.0,0.0,0.0,0.0,0.0,0.0,0.0,0.0,0.0,0.0,0.0,0.0,-1.0486,0.0,0.0,0.0,0.0,0.0,0.0,0.0,0.0,0.0,0.0,0.0,0.0,0.0,0.0,0.0,0.0,0.0,0.0,0.0,0.0,0.0,0.0,-1.6439,-1.7278,-1.6778,-1.6574,-1.6588,-1.6305,-1.6028,-1.573,-1.437,-1.2997,-1.1701,0.0,0.0,0.0,0.0,0.0,0.0,0.0,0.0,0.0,0.0,0.0,0.0,0.0,0.0,0.0,0.0,0.0,0.0,0.0,0.0,0.0,0.0,0.0,0.0,0.0,0.0,0.1274,0.1292,0.1405,0.0,0.0,0.0,0.0,0.0,0.0,0.0,0.0,0.0,0.0,-0.7031,-0.7486,-0.7872,-0.8703,-0.9351,-0.9638,-1.0299,-1.077,-1.0876,-1.0177,-0.9528,0.0,0.0,0.0,0.0,0.0,0.0,0.0,0.0,0.0,0.0,0.0,0.0,0.0,0.0,0.0,0.0,0.0,0.0,0.0,0.0,0.0,0.0,0.0,0.0,0.0,0.0,0.0,-1.5324,-1.4692,0.0,0.0,0.0,0.0,0.0,0.0,0.0,0.0,0.0,0.0,0.0,-1.1866,-1.2024,0.0,0.0,0.0,0.0,0.0,0.0,0.0,0.0,0.0,0.0,0.0,0.0,-1.6314,-1.7232,-1.687,-1.6588,-1.6588,-1.6116,-1.5927,-1.5832,-1.4286,-1.2422,-1.0287,0.0,0.0,0.0,0.0,0.0,0.0,0.0,0.0,0.0,0.0,0.0,0.0,0.0,0.0,0.0,0.0,0.0,0.0,0.0,0.0,0.0,0.0,0.0,0.0,0.0,0.1259,0.0,0.0,0.0,0.0,0.0,0.0,0.0,0.0,0.0,0.0,0.0,-0.6189,-0.7411,-0.7533,-0.7933,-0.906,-0.944,-0.9757,0.0,0.0,0.0,0.0,0.0,0.0,0.0,0.0,0.0,0.0,0.0,0.0,0.0,0.0,-0.6584,-0.6409,-0.5912,-0.4849,-0.2604,0.0,0.0,0.0,0.0,0.0,0.0,0.0,0.0,0.0,0.0,0.0,0.0,0.0,0.0,-1.6902,0.0,-1.5412,0.0,0.0,0.0,0.0,0.0,0.0,0.0,0.0,-1.3229,-1.3543,-1.342,-1.358,-1.3732,0.0,-1.3708,-1.3148,0.0,0.0,0.0,0.0,0.0,0.0,0.0,0.0,-1.6388,-1.7224,-1.6963,-1.6683,-1.6581,-1.6211,-1.5927,-1.573,-1.3986,-1.1686,-0.9046,-0.8504,-0.7897,0.0,0.0,0.0,0.0,0.0,0.0,0.0,0.0,0.0,0.0,0.0,0.0,0.0,0.0,0.0,0.0,0.0,0.0,0.0,0.0,0.0,0.0,0.0,0.1293,0.0,0.0,0.0,0.0,0.0,0.0,0.0,0.0,0.0,-0.5605,-0.6003,-0.6639,-0.7754,-0.7927,-0.8355,-0.9263,0.0,0.0,0.0,0.0,0.0,0.0,0.0,-0.8713,-0.8481,-0.8072,-0.7784,-0.7602,-0.7567,-0.7597,-0.7597,0.0,0.0,-0.6916,-0.6502,-0.5703,-0.3701,-0.2658,-0.1997,-0.162,-0.1526,-0.1526,0.0,0.0,0.0,0.0,0.0,0.0,0.0,0.0,-1.9326,-1.8512,0.0,-1.7261,0.0,0.0,0.0,0.0,0.0,-1.3733,0.0,0.0,-1.5035,-1.5346,-1.5072,-1.5393,-1.564,-1.5617,-1.5326,-1.4784,-1.4009,-1.3687,0.0,0.0,0.0,0.0,0.0,0.0,-1.6676,-1.7239,-1.7069,-1.6878,-1.6588,-1.6319,-1.6028,-1.554,-1.3204,-1.0676,-0.8127,-0.7896,-0.7621,-0.7127,-0.6886,0.0,0.0,0.0,0.0,0.0,0.0,0.0,0.0,0.0,0.0,0.0,0.0,0.0,0.0,0.0,0.0,0.0,0.0,0.0,0.0,0.1018,0.0,0.0,0.0,0.0,0.0,0.0,0.0,0.0,0.0,0.0,-0.5896,-0.7015,-0.7865,-0.7959,0.0,0.0,0.0,0.0,-1.0054,-0.9865,-1.0661,-1.1278,-1.1202,-1.0583,-1.0058,-1.0066,0.0,0.0,-0.7904,-0.7702,-0.7624,-0.7617,-0.7733,-0.7674,-0.7253,-0.6481,-0.5531,-0.4385,-0.3531,-0.2765,-0.1815,-0.1536,-0.1534,-2.5371,0.0,0.0,0.0,0.0,-2.0586,-2.036,-2.0551,-2.036,-1.9836,-1.9115,-1.8591,0.0,0.0,0.0,0.0,0.0,0.0,-1.6146,-1.5937,-1.6839,-1.7012,-1.6613,-1.6133,-1.6304,-1.7097,-1.6194,-1.584,-1.5928,-1.5686,-1.5057,-1.4159,0.0,0.0,0.0,0.0,-1.6692,-1.7251,-1.6879,-1.6683,-1.6588,-1.6116,-1.4956,-1.3011,-1.1556,-0.9899,-0.8038,-0.7997,-0.7828,-0.7434,-0.7155,0.0,0.0,0.0,0.0,0.0,0.0,0.0,0.0,0.0,0.0,0.0,0.0,0.0,0.0,0.0,0.0,0.0,0.0,0.0,-0.1845,-0.0468,0.0468,0.0,0.0,0.0,0.0,0.0,0.0,0.0,0.0,0.0,-0.7423,-0.7178,-0.7237,0.0,0.0,-0.8387,-0.8476,-0.9499,-0.999,-0.9392,-1.0117,0.0,0.0,-0.9617,-0.9305,-0.9165,-0.8669,-0.8208,-0.7911,-0.7865,-0.7913,-0.7909,-0.7946,-0.7858,-0.7727,-0.6926,-0.5935,-0.4849,-0.3862,-0.2876,-0.1887,-0.1591,-0.159,-2.7243,-2.5948,-2.3978,-2.2844,-2.2419,-2.1418,-2.1105,-2.1383,-2.1179,-2.0787,-2.0187,-1.9936,-1.9042,-1.7906,-1.7283,0.0,0.0,0.0,-1.7501,-1.7409,-1.8179,-1.8311,-1.798,-1.7577,-1.7577,-1.7908,-1.7261,-1.6706,-1.6476,-1.6579,-1.6048,-1.5028,0.0,0.0,-1.4914,-1.6001,-1.6862,-1.7273,-1.6815,-1.6588,-1.6588,-1.5622,-1.4076,-1.1945,-1.0779,-0.9509,-0.8038,-0.8038,-0.7898,-0.7521,-0.7359,-0.6963,0.0,0.0,0.0,0.0,0.0,0.0,0.0,0.0,0.0,0.0,0.0,-0.3582,-0.3172,0.0,0.0,0.0,-0.4406,-0.3743,-0.196,-0.1971,0.0,0.0,0.0,0.0,0.0,0.0,0.0,-0.6751,-0.7044,-0.7483,-0.8333,-0.7873,-0.7838,-0.8559,-0.8662,-0.8667,-0.8787,0.0,-0.9692,-0.9181,-0.9554,-0.9783,-0.9329,-0.9222,-0.9127,-0.8806,-0.8612,-0.8293,-0.7906,-0.798,-0.8035,-0.8038,-0.8038,-0.8038,-0.8038,-0.6833,-0.5629,-0.4924,-0.3925,-0.2922,-0.1818,-0.1617,-0.1617,-2.8406,-2.7855,-2.5087,-2.368,-2.3219,-2.2241,-2.185,-2.1873,-2.1807,-2.1353,-2.0727,-2.1034,-2.0269,-1.8675,-1.8295,0.0,-1.8724,-1.8389,-1.844,-1.8807,-1.9265,-1.9344,-1.9204,-1.9441,-1.9204,-1.8407,-1.8336,-1.761,-1.6312,-1.6733,-1.6652,-1.6174,-1.5955,-1.5742,-1.5546,-1.6353,-1.7032,-1.7281,-1.6793,-1.6553,-1.6494,-1.4746,-1.3199,-1.1945,-1.0583,-0.9312,-0.8038,-0.8038,-0.7842,-0.764,-0.7517,-0.7249,-0.6743,0.0,0.0,0.0,0.0,0.0,0.0,0.0,0.0,0.0,0.0,0.0,0.0,0.0,0.0,0.0,-0.6143,0.0,-0.0857,-0.3665,0.0,0.0,0.0,-0.5882,-0.751,-0.6944,-0.675,-0.7875,0.0,0.0,-0.873,-0.8921,-0.9091,-0.9068,-0.926,-0.9279,-0.912,-0.923,-0.9299,-0.9149,-0.9137,-0.9145,-0.9194,-0.9291,-0.9231,-0.8867,-0.8825,-0.852,-0.8127,-0.8035,-0.8038,-0.8038,-0.8038,-0.8038,-0.8038,-0.6329,-0.4824,-0.4824,-0.3823,-0.2722,-0.1818,-0.1617,-0.1617,-2.8406,-2.7987,-2.6719,-2.5586,-2.4685,-2.372,-2.2933,-2.2241,-2.2101,-2.1745,-2.1283,-2.1385,-2.1074,-2.0569,-2.0483,-2.0466,-2.0564,-2.0487,-2.0391,-2.0342,-2.0498,-2.0498,-2.042,-1.9844,-1.9599,-1.9511,-1.8798,-1.7997,-1.7115,-1.7195,-1.6756,-1.5845,-1.5769,-1.5874,-1.6139,-1.6433,-1.6616,-1.6795,-1.6388,-1.6158,-1.5913,-1.3782,-1.2436,-1.1945,-0.9899,-0.8531,-0.8038,-0.8038,-0.7939,-0.7942,-0.771,-0.7445,-0.704,-0.6688,0.0,0.0,0.0,0.0,0.0,0.0,0.0,0.0,0.0,-0.5507,-0.5056,0.0,-0.5937,0.0,-0.5952,-0.5856,-0.5147,-0.5326,0.0,0.0,-0.6253,-0.6429,-0.752,-0.7706,-0.7815,-0.8168,-0.8543,-0.8909,-0.9196,-0.9291,-0.936,-0.9433,-0.9328,-0.9141,-0.9104,-0.9242,-0.9436,-0.9315,-0.9405,-0.9498,-0.9494,-0.9339,-0.9182,-0.8817,-0.8627,-0.8432,-0.8038,-0.8038,-0.8038,-0.8038,-0.8038,-0.8038,-0.8038,-0.6229,-0.4924,-0.4724,-0.3323,-0.1919,-0.1617,-0.1617,-0.1617,-2.87,-2.8131,-2.7643,-2.6879,-2.5849,-2.4541,-2.3537,-2.2894,-2.2392,-2.2025,-2.1655,-2.1655,-2.1578,-2.1436,-2.1359,-2.1359,-2.1359,-2.1205,-2.1128,-2.1061,-2.1128,-2.1128,-2.0974,-2.0634,-2.0313,-1.9991,-1.9511,-1.8718,-1.7674,-1.7674,-1.7114,-1.6133,-1.6133,-1.6052,-1.5944,-1.6068,-1.6067,-1.5768,-1.5896,-1.5717,-1.5153,-1.3113,-1.1803,-1.1125,-0.9198,-0.8004,-0.7848,-0.7841,-0.7845,-0.7845,-0.765,-0.7417,-0.6951,-0.6726,-0.6435,0.0,0.0,0.0,0.0,0.0,0.0,0.0,0.0,0.0,0.0,0.0,-0.6089,-0.6081,-0.6365,-0.6657,-0.6675,-0.6384,-0.6477,-0.7139,-0.6936,-0.7047,-0.7797,-0.8164,-0.8369,-0.8468,-0.8836,-0.9186,-0.9478,-0.9478,-0.951,-0.9616,-0.9458,-0.9332,-0.9336,-0.9417,-0.9478,-0.9478,-0.9563,-0.9525,-0.943,-0.9331,-0.9034,-0.873,-0.8531,-0.8333,-0.8038,-0.8038,-0.8038,-0.8038,-0.8038,-0.8038,-0.7939,-0.6229,-0.4824,-0.4526,-0.3124,-0.1717,-0.1617,-0.1617,-0.1617,-2.9172,-2.8408,-2.8317,-2.7735,-2.6731,-2.511,-2.4181,-2.3661,-2.2894,-2.2252,-2.1807,-2.1807,-2.1807,-2.1807,-2.1578,-2.1502,-2.1512,-2.1359,-2.1282,-2.1282,-2.1436,-2.1425,-2.1282,-2.1436,-2.1031,-2.0235,-2.0235,-1.9529,-1.8158,-1.8069,-1.7581,-1.6707,-1.6553,-1.6085,-1.5333,-1.5575,-1.544,-1.4726,-1.5349,-1.5233,-1.4331,-1.2688,-1.125,-1.0224,-0.8626,-0.7729,-0.7604,-0.7597,-0.7597,-0.7597,-0.7597,-0.7325,-0.6862,-0.6737,-0.6486,0.0,-0.5844,0.0,0.0,0.0,0.0,0.0,0.0,0.0,0.0,-0.6097,-0.6289,-0.6576,-0.6991,-0.703,-0.6819,-0.7102,-0.7538,-0.7955,-0.7761,-0.7703,-0.7922,-0.8233,-0.8528,-0.8726,-0.9031,-0.9331,-0.9525,-0.9624,-0.9624,-0.9624,-0.9612,-0.9608,-0.9648,-0.9628,-0.962,-0.9652,-0.9681,-0.9642,-0.9326,-0.9195,-0.8977,-0.8567,-0.8347,-0.8237,-0.8038,-0.8038,-0.8038,-0.8038,-0.8038,-0.8038,-0.8038,-0.6229,-0.4824,-0.4724,-0.3123,-0.1617,-0.1617,-0.1617,-0.1617,-2.9727,-2.904,-2.8973,-2.8425,-2.751,-2.6582,-2.5673,-2.4672,-2.3734,-2.2734,-2.1807,-2.1807,-2.1807,-2.1807,-2.1731,-2.1731,-2.1731,-2.1731,-2.1578,-2.1425,-2.1512,-2.1512,-2.1425,-2.1512,-2.1108,-2.0469,-2.0469,-1.9982,-1.9018,-1.831,-1.7726,-1.7037,-1.6251,-1.5373,-1.4699,0.0,0.0,0.0,-1.4763,-1.4628,-1.4231,-1.2141,-1.0844,-1.0453,-0.859,0.0,-0.76,-0.7597,-0.7597,-0.7597,-0.7406,0.0,0.0,0.0,0.0,0.0,0.0,0.0,0.0,0.0,0.0,0.0,-0.6236,-0.6338,-0.6364,-0.6655,-0.689,-0.7183,-0.7124,-0.7177,-0.7362,-0.747,-0.7681,-0.8001,-0.7902,-0.7908,-0.8038,-0.8432,-0.8726,-0.8825,-0.9229,-0.9529,-0.9628,-0.9624,-0.9624,-0.9624,-0.9628,-0.9685,-0.9815,-0.9717,-0.9685,-0.9811,-0.9945,-0.9943,-0.9649,-0.9324,-0.9034,-0.8715,-0.8313,-0.8055,-0.8055,-0.8052,-0.8045,-0.8045,-0.8038,-0.8041,-0.7939,-0.6229,-0.4824,-0.4824,-0.3123,-0.1617,-0.1617,-0.1617,-0.1617,-3.0431,0.0,-2.9336,-2.8906,0.0,-2.7561,-2.6867,-2.6102,-2.4374,-2.3032,-2.1959,-2.1959,-2.1883,-2.1807,-2.1807,-2.1807,-2.1807,-2.1807,-2.1741,-2.1655,-2.1665,-2.1655,-2.1655,-2.1655,-2.1502,-2.1175,-2.1175,-2.0537,-1.9335,-1.8709,-1.7814,-1.6629,-1.5975,-1.5404,-1.4999,-1.4835,-1.4928,-1.5255,-1.4269,-1.3516,-1.3016,-1.1297,-0.9981,-0.9178,0.0,0.0,0.0,0.0,0.0,0.0,0.0,0.0,0.0,0.0,0.0,-0.617,-0.6121,-0.6113,-0.617,-0.6269,-0.6294,-0.6255,-0.6549,-0.6813,-0.6939,-0.7096,-0.7362,-0.7527,-0.753,-0.7563,-0.7733,-0.7842,-0.7842,-0.7939,-0.8038,-0.8038,-0.8233,-0.8531,-0.8829,-0.9031,-0.9331,-0.9624,-0.9624,-0.9624,-0.9624,-0.9628,-0.9529,-0.9494,-0.9641,-0.971,-0.9823,-0.9784,-0.9884,-0.9743,-0.9429,-0.9168,-0.8891,-0.867,-0.8409,-0.8265,-0.8258,-0.8258,-0.8238,-0.8177,-0.8153,-0.8136,-0.7852,-0.6229,-0.4824,-0.4624,-0.3123,-0.1616,-0.1617,-0.1617,-0.1617,-3.1113,-3.0378,-2.9646,-2.9174,-2.8812,-2.8133,-2.7643,-2.7175,0.0,0.0,0.0,-2.2176,-2.2025,-2.1807,-2.1807,-2.1807,-2.1807,-2.1807,-2.1807,-2.1807,-2.1807,-2.1807,-2.1807,-2.1807,-2.1807,-2.1731,-2.1731,-2.0924,-1.9413,-1.9018,-1.7989,-1.6402,-1.5899,-1.5582,-1.5347,-1.4817,-1.4867,-1.5312,-1.3771,-1.2522,-1.1637,-1.0386,-0.9133,-0.7919,-0.7622,-0.7458,-0.7339,-0.7475,-0.756,-0.747,-0.749,-0.723,-0.678,-0.6688,-0.6507,-0.6149,-0.6146,-0.6192,-0.629,-0.6298,-0.6336,-0.6426,-0.6936,-0.7288,-0.7375,-0.7575,-0.7643,-0.7646,-0.7842,-0.8038,-0.8038,-0.8038,-0.8038,-0.8038,-0.8038,-0.8137,-0.8432,-0.873,-0.8931,-0.9133,-0.9434,-0.9624,-0.9624,-0.9624,-0.9624,-0.9632,-0.9466,-0.9261,-0.9418,-0.969,-0.9737,-0.9653,-0.973,-0.9534,-0.91,-0.8969,-0.8846,-0.8625,-0.8492,-0.8482,-0.8482,-0.8482,-0.8435,-0.8326,-0.8309,-0.8245,-0.8019,-0.6369,-0.4943,-0.4828,-0.3123,-0.1617,-0.1617,-0.1622,-0.1624,-3.1664,-3.0405,-3.0241,-2.9524,-2.8421,-2.8171,-2.7523,-2.6483,-2.5322,-2.4169,-2.301,-2.2381,-2.1959,-2.1807,-2.1807,-2.1807,-2.1807,-2.1807,-2.1807,0.0,-2.1807,-2.1807,-2.1807,-2.1807,-2.1731,-2.1589,-2.1502,-2.0944,-1.9816,-1.9027,-1.8158,-1.7107,-1.6214,-1.5492,-1.5082,-1.4531,-1.43,-1.4635,-1.3123,-1.1908,-1.0968,-0.9648,-0.8721,-0.8107,-0.7485,-0.7197,-0.7173,-0.7326,-0.7312,-0.7135,-0.6967,-0.6798,-0.6617,-0.6435,-0.6382,-0.6377,-0.6388,-0.6393,-0.641,-0.6412,-0.6418,-0.6423,-0.6933,-0.7428,-0.7813,-0.7928,-0.7942,-0.7939,-0.7939,-0.8038,-0.8038,-0.8038,-0.8038,-0.8038,-0.8237,-0.8333,-0.8432,-0.8832,-0.9133,-0.9232,-0.943,-0.9624,-0.9624,-0.9624,-0.9628,-0.9553,-0.9457,-0.9453,-0.9388,-0.9496,-0.9606,-0.954,-0.9656,-0.9625,-0.9377,-0.919,-0.9012,-0.8676,-0.8577,-0.852,-0.8523,-0.852,-0.8503,-0.8459,-0.8455,-0.8397,-0.8265,-0.6487,-0.522,-0.4756,-0.3131,-0.162,-0.1621,-0.1639,-0.1647,-3.1995,-3.088,-3.054,-2.9754,-2.8758,-2.8199,-2.7643,-2.7027,-2.5767,-2.4469,-2.3294,-2.2606,-2.2101,-2.1807,-2.1807,-2.1807,-2.1807,-2.1807,-2.1807,-2.1807,-2.1807,-2.1731,-2.1655,-2.1655,-2.1502,-2.1359,-2.1359,-2.0634,-1.9274,-1.8709,-1.7738,-1.6453,-1.5831,-1.534,-1.4908,-1.4371,-1.4105,-1.4068,-1.2403,-1.1128,-1.0139,-0.8742,-0.791,-0.7563,-0.7364,-0.7178,-0.7088,-0.7227,-0.7246,-0.7042,-0.7006,-0.6909,-0.6744,-0.666,-0.6487,-0.6434,-0.6437,-0.6437,-0.6437,-0.6437,-0.6531,-0.6728,-0.7033,-0.7437,-0.7939,-0.8038,-0.8038,-0.8038,-0.8038,-0.8038,-0.8038,-0.8038,-0.8038,-0.8038,-0.8137,-0.8333,-0.8528,-0.8829,-0.913,-0.9331,-0.9533,-0.9624,-0.9624,-0.9624,-0.9529,-0.945,-0.9244,-0.9201,-0.9105,-0.9103,-0.9265,-0.9385,-0.9548,-0.9478,-0.9154,-0.9106,-0.8948,-0.8832,-0.8777,-0.8737,-0.873,-0.8726,-0.8689,-0.8625,-0.8608,-0.8547,-0.8414,-0.6604,-0.5305,-0.4824,-0.317,-0.1846,-0.1645,-0.1665,-0.1677,-3.2081,-3.1169,-3.0514,-2.9713,-2.8919,-2.8186,-2.7855,-2.7577,-2.6208,-2.4921,-2.3734,-2.283,-2.2187,-2.1807,-2.1807,-2.1807,-2.1807,-2.1807,-2.1807,-2.1807,-2.1807,-2.1655,-2.1512,-2.1502,-2.1349,-2.1128,-2.0974,-2.001,-1.8559,-1.8149,-1.7098,-1.5733,-1.5445,-1.5111,-1.465,-1.4203,-1.3873,-1.3561,-1.1923,-1.0605,-0.9698,-0.8269,-0.7415,-0.7149,-0.7251,-0.7232,-0.6969,-0.7092,-0.7123,-0.6942,-0.7003,-0.6893,-0.6697,-0.6728,-0.6642,-0.6437,-0.6437,-0.6437,-0.6437,-0.6437,-0.6534,-0.6933,-0.7132,-0.7437,-0.7939,-0.8038,-0.8038,-0.8038,-0.8038,-0.8038,-0.8038,-0.8038,-0.8038,-0.8038,-0.8038,-0.8237,-0.8627,-0.8726,-0.8924,-0.9327,-0.9426,-0.9426,-0.9426,-0.9426,-0.9347,-0.9133,-0.8947,-0.8857,-0.88,-0.8842,-0.904,-0.9158,-0.9268,-0.9158,-0.8937,-0.8933,-0.893,-0.8937,-0.893,-0.891,-0.8913,-0.8927,-0.8899,-0.8784,-0.876,-0.8481,-0.8143,-0.651,-0.5195,-0.4599,-0.2919,-0.1779,-0.1684,-0.1699,-0.1714,-3.1886,-3.0868,-2.9956,-2.9026,-2.8265,-2.8106,-2.7881,-2.7456,-2.6633,-2.5697,-2.4457,-2.3043,-2.2176,-2.1807,-2.1807,-2.1807,-2.1807,-2.1807,-2.1807,-2.1807,-2.1807,-2.1731,-2.1512,-2.1502,-2.1282,-2.0906,-2.0167,-1.9274,-1.8078,-1.7269,-1.6296,-1.5257,-1.5285,-1.5027,-1.4391,-1.3776,-1.3522,-1.3646,-1.2129,-1.0911,-1.0178,-0.846,-0.7415,-0.7139,-0.7153,-0.7074,-0.6828,-0.695,-0.685,-0.6418,-0.6625,-0.6654,-0.639,-0.638,-0.6437,-0.6434,-0.6437,-0.6437,-0.6437,-0.6437,-0.6534,-0.6933,-0.7135,-0.7437,-0.7939,-0.8038,-0.8038,-0.8038,-0.8038,-0.8038,-0.8038,-0.8038,-0.8038,-0.8038,-0.8237,-0.8432,-0.8432,-0.8627,-0.8825,-0.8825,-0.8928,-0.8821,-0.8928,-0.8924,-0.8888,-0.8816,-0.8767,-0.8836,-0.8773,-0.8815,-0.8913,-0.8923,-0.8937,-0.8937,-0.8937,-0.8937,-0.8937,-0.8937,-0.8937,-0.8937,-0.8937,-0.8937,-0.8923,-0.8779,-0.8789,-0.8394,-0.7437,-0.6084,-0.4974,-0.4159,-0.287,-0.1708,-0.1732,-0.1743,-0.1745,-3.178,-3.0342,-2.9976,-2.9182,-2.8289,-2.8145,-2.7934,-2.7577,-2.662,-2.5603,-2.4601,-2.3475,-2.2553,-2.1807,-2.1807,-2.1807,-2.1807,-2.1807,-2.1807,-2.1807,-2.1807,-2.1655,-2.1359,-2.1282,-2.1118,-2.0731,-2.0323,-1.9432,-1.7997,-1.646,-1.5484,-1.4915,-1.4936,-1.4769,-1.4237,-1.3704,-1.3366,-1.3307,-1.1963,-1.0921,-0.9927,-0.8277,-0.7146,-0.6966,-0.6881,-0.6789,-0.6441,-0.6406,-0.6379,-0.6087,-0.6185,-0.6178,-0.6159,-0.6271,-0.6336,-0.6339,-0.6401,-0.6437,-0.6437,-0.6437,-0.6537,-0.6839,-0.7039,-0.7338,-0.7743,-0.7939,-0.8038,-0.8038,-0.8038,-0.8038,-0.8038,-0.8038,-0.8038,-0.8038,-0.8137,-0.8237,-0.8432,-0.8531,-0.8627,-0.8726,-0.8825,-0.8825,-0.8726,-0.8627,-0.8603,-0.8638,-0.8639,-0.8525,-0.8554,-0.8706,-0.8791,-0.8815,-0.8876,-0.8933,-0.8937,-0.8937,-0.8937,-0.8937,-0.8937,-0.8937,-0.8826,-0.8712,-0.8709,-0.8709,-0.8491,-0.8371,-0.7987,-0.6638,-0.5404,-0.4244,-0.2811,-0.1735,-0.1747,-0.1763,-0.1774,-3.1462,-3.009,-2.9687,-2.9032,-2.8262,-2.8066,-2.7868,-2.7643,-2.6824,-2.5894,-2.4945,-2.3986,-2.3065,-2.2176,-2.1883,-2.1807,-2.1807,-2.1807,-2.1807,-2.1731,-2.1731,-2.1512,-2.1138,-2.1128,-2.0896,-2.0644,-2.0333,-1.9292,-1.7513,-1.5891,-1.4831,-1.465,-1.4671,-1.4517,-1.4088,-1.3542,-1.3203,-1.3058,-1.1877,-1.0748,-0.9666,-0.8013,-0.6966,-0.6792,-0.6704,-0.6526,-0.6086,-0.6086,-0.6034,-0.5852,-0.5885,-0.5942,-0.6032,-0.6151,-0.6233,-0.6371,-0.6374,-0.6437,-0.6437,-0.6437,-0.6539,-0.6745,-0.7042,-0.7241,-0.7444,-0.7743,-0.7842,-0.7842,-0.7939,-0.8038,-0.8038,-0.8038,-0.8038,-0.8038,-0.8038,-0.8137,-0.8233,-0.8336,-0.8336,-0.8531,-0.8531,-0.8627,-0.8528,-0.8435,-0.8382,-0.8372,-0.8343,-0.8296,-0.8414,-0.8547,-0.8648,-0.8545,-0.8639,-0.8729,-0.8799,-0.8823,-0.8712,-0.8602,-0.8605,-0.8602,-0.8605,-0.8488,-0.8374,-0.8377,-0.8159,-0.7712,-0.7141,-0.6253,-0.4914,-0.4095,-0.2751,-0.143,-0.1435,-0.156,-0.1567,-3.0743,-2.9859,-2.8817,-2.8354,-2.8079,-2.7921,-2.7723,-2.7523,-2.7268,-2.6688,-2.5603,-2.4755,-2.3841,-2.2852,-2.2176,-2.1807,-2.1807,-2.1807,-2.1731,-2.1589,-2.1502,-2.1282,-2.0906,-2.0906,-2.0819,-2.0479,-1.9854,-1.8567,-1.6632,-1.5401,-1.465,-1.4482,-1.4587,-1.4523,-1.4017,-1.3197,-1.2923,-1.2973,-1.1699,-1.0482,-0.9501,-0.7749,-0.6792,-0.6704,-0.652,-0.6346,-0.6083,-0.6086,-0.6002,-0.5741,-0.5841,-0.5904,-0.592,-0.6026,-0.6239,-0.6352,-0.6369,-0.6434,-0.6431,-0.6434,-0.6539,-0.6745,-0.6842,-0.6942,-0.7241,-0.7444,-0.7643,-0.7643,-0.7842,-0.7942,-0.8038,-0.8038,-0.8038,-0.8038,-0.8038,-0.8038,-0.8038,-0.8038,-0.8038,-0.8038,-0.8137,-0.8137,-0.8041,-0.8038,-0.8041,-0.8085,-0.818,-0.8269,-0.8286,-0.8401,-0.8374,-0.8184,-0.8111,-0.8181,-0.841,-0.842,-0.8329,-0.821,-0.8178,-0.8131,-0.8042,-0.8048,-0.8039,-0.8045,-0.8057,-0.7502,-0.6383,-0.4927,-0.3469,-0.2343,-0.1673,-0.0893,-0.089,-0.0894,-0.1009,-3.0677,-2.9403,-2.8733,-2.8327,-2.8079,-2.8,-2.7736,-2.7323,-2.7214,-2.6564,-2.5697,-2.5134,-2.4215,-2.283,-2.2521,-2.2166,-2.1807,-2.1807,-2.1655,-2.1502,-2.1502,-2.1282,-2.0906,-2.0906,-2.0741,-2.042,-2.0098,-1.9134,-1.7585,-1.6049,-1.5235,-1.4985,-1.451,-1.4108,-1.3756,-1.3118,-1.2766,-1.2705,-1.1424,-1.0381,-0.9492,-0.7837,-0.6789,-0.6349,-0.626,-0.6083,-0.5822,-0.5822,-0.5819,-0.5733,-0.5773,-0.5795,-0.5806,-0.5907,-0.6117,-0.6339,-0.6363,-0.6331,-0.6435,-0.6399,-0.6437,-0.6539,-0.6742,-0.6842,-0.6942,-0.7141,-0.7441,-0.7543,-0.7646,-0.7842,-0.7939,-0.8038,-0.8038,-0.8038,-0.8038,-0.8038,-0.8038,-0.8038,-0.8038,-0.8038,-0.8038,-0.8038,-0.7939,-0.8038,-0.8038,-0.7945,-0.7895,-0.7824,-0.7847,-0.784,-0.7827,-0.7742,-0.7802,-0.7784,-0.7639,-0.7892,-0.7898,-0.7898,-0.7791,-0.7843,-0.7874,-0.7692,-0.7689,-0.7767,-0.7802,-0.7133,-0.5786,-0.3346,-0.0,-0.0,-0.0,-0.0,-0.0336,-0.0,-0.0,-3.0287,-2.9226,-2.8638,-2.8276,-2.8079,-2.7881,-2.7603,-2.7268,-2.7011,-2.6508,-2.5918,-2.5511,-2.4576,-2.3463,-2.2957,-2.2456,-2.1949,-2.1731,-2.1502,-2.1282,-2.1282,-2.1128,-2.0819,-2.0751,-2.0586,-2.0264,-1.9854,-1.9195,-1.8221,-1.6772,-1.5801,-1.522,-1.4475,-1.3906,-1.3489,-1.2681,-1.2231,-1.1997,-1.0977,-1.0024,-0.9139,-0.7837,-0.67,-0.6086,-0.5997,-0.5908,-0.5733,-0.5733,-0.5733,-0.5733,-0.5733,-0.5733,-0.5744,-0.5841,-0.5939,-0.6123,-0.6236,-0.6305,-0.6321,-0.6317,-0.6382,-0.6385,-0.652,-0.6642,-0.6742,-0.6942,-0.7141,-0.7344,-0.7444,-0.754,-0.764,-0.7736,-0.7839,-0.7939,-0.8038,-0.8038,-0.8038,-0.8038,-0.8038,-0.7939,-0.7942,-0.7842,-0.7839,-0.7739,-0.7736,-0.7739,-0.7543,-0.7441,-0.7456,-0.7412,-0.7379,-0.7286,-0.7343,-0.7279,-0.7099,-0.7205,-0.7314,-0.7334,-0.7346,-0.7487,-0.7517,-0.7338,-0.7388,-0.7474,-0.696,-0.6301,-0.0,-0.0,-0.0,-0.0,-0.0,-0.0,-0.0,-0.0,-0.0,-2.9532,-2.9331,-2.8509,-2.8079,-2.8013,-2.7603,-2.7335,-2.7201,-2.6863,-2.6658,-2.644,-2.5734,-2.5158,-2.4564,-2.3316,-2.2596,-2.2166,-2.1502,-2.1128,-2.0974,-2.0906,-2.0819,-2.0566,-2.042,-2.0264,-2.0108,-1.8957,-1.839,-1.8221,-1.7098,-1.6034,-1.5108,-1.44,-1.3853,-1.343,-1.2151,-1.1343,-1.1101,-1.0443,-0.9584,-0.8524,-0.7658,-0.6789,-0.5908,-0.573,-0.5644,-0.5644,-0.5644,-0.5733,-0.5733,-0.5644,-0.5644,-0.5568,-0.574,-0.5804,-0.5823,-0.5925,-0.6078,-0.6097,-0.6198,-0.6265,-0.6279,-0.6366,-0.6418,-0.6515,-0.6631,-0.6842,-0.6945,-0.7042,-0.7238,-0.7238,-0.7238,-0.7437,-0.7842,-0.7939,-0.7939,-0.7939,-0.7939,-0.7939,-0.7939,-0.7743,-0.7643,-0.7543,-0.7437,-0.7335,-0.7338,-0.7238,-0.7238,-0.7138,-0.716,-0.7048,-0.6853,-0.6897,-0.6833,-0.6586,-0.6458,-0.66,-0.6711,-0.6835,-0.6964,-0.699,-0.702,-0.7057,-0.7017,-0.5414,-0.0,-0.0,-0.0,-0.0,-0.0,-0.0,-0.0,-0.0,-0.0,-0.0,-2.9799,-2.8725,-2.8365,-2.7987,-2.7669,-2.7536,-2.7268,-2.6918,-2.6726,-2.6645,-2.6521,-2.6107,-2.5535,-2.4636,-2.3526,-2.2649,-2.1918,-2.1185,-2.0731,-2.0731,-2.0654,-2.0489,-2.0177,-2.0098,-1.9784,-1.939,-1.8834,-1.8425,-1.7908,-1.6683,-1.5779,-1.5365,-1.4203,-1.3574,-1.3284,-1.1997,-1.1086,-1.0479,-1.0438,-1.0019,-0.9226,-0.8185,-0.7221,-0.6428,-0.5633,-0.5191,-0.528,-0.5552,-0.5733,-0.5733,-0.5371,-0.5102,-0.4842,-0.5041,-0.542,-0.5705,-0.5896,-0.5958,-0.5879,-0.5973,-0.614,-0.6162,-0.6252,-0.6314,-0.6333,-0.649,-0.6634,-0.6742,-0.6845,-0.6942,-0.7138,-0.7235,-0.7238,-0.7434,-0.7437,-0.7437,-0.7537,-0.7437,-0.7441,-0.7437,-0.7338,-0.7338,-0.7338,-0.7238,-0.7135,-0.7135,-0.7039,-0.6942,-0.6942,-0.6839,-0.6637,-0.6539,-0.6539,-0.6539,-0.6439,-0.6439,-0.651,-0.6589,-0.6613,-0.6646,-0.6673,-0.6698,-0.6838,-0.5698,-0.4026,-0.0,-0.0,-0.0,-0.0,-0.0,-0.0,-0.0,-0.0,-0.0,-0.0,-2.9968,-2.8903,-2.8352,-2.7908,-2.7456,-2.7403,-2.7066,-2.6714,-2.6658,-2.6521,-2.6396,-2.627,-2.5688,-2.4707,-2.3599,-2.2627,-2.1842,-2.0867,-2.0342,-2.0255,-2.042,-2.0255,-1.9942,-1.9784,-1.9376,-1.8804,-1.8549,-1.8241,-1.762,-1.6356,-1.5509,-1.495,-1.4105,-1.3449,-1.3047,-1.158,-1.0494,-1.0144,-1.0265,-1.0024,-0.9235,-0.8177,-0.7214,-0.6511,-0.5361,-0.483,-0.4743,-0.5015,-0.5377,-0.5466,-0.4832,-0.4204,-0.4297,-0.4565,-0.5015,-0.5481,-0.5433,-0.5199,-0.5211,-0.5483,-0.5738,-0.5758,-0.6034,-0.6198,-0.6222,-0.6306,-0.6473,-0.6578,-0.6617,-0.6739,-0.6839,-0.6936,-0.6936,-0.6939,-0.7138,-0.7135,-0.7235,-0.7235,-0.7235,-0.7235,-0.7138,-0.7042,-0.7042,-0.6939,-0.6936,-0.6836,-0.6739,-0.6642,-0.6642,-0.6539,-0.6437,-0.6437,-0.6437,-0.6437,-0.6437,-0.6439,-0.6445,-0.6467,-0.6486,-0.6526,-0.6562,-0.6476,-0.6503,-0.3819,-0.1761,-0.0,-0.0,-0.0,-0.0,-0.0,-0.0,-0.0,-0.0,-0.0,-0.0,-3.0165,-2.9766,-2.8468,-2.7709,-2.7403,-2.7134,-2.6875,-2.6658,-2.6533,-2.6396,-2.6201,-2.6131,-2.5688,-2.4791,-2.3514,-2.2553,-2.1897,-2.0547,-1.9794,-1.9715,-1.9872,-1.9844,-1.9612,-1.9367,-1.8792,-1.8115,-1.7993,-1.7586,-1.675,-1.5826,-1.5108,-1.4144,-1.3684,-1.3363,-1.2347,-1.0895,-1.0072,-0.9908,-0.9937,-0.9685,-0.8978,-0.783,-0.6949,-0.6245,-0.5095,-0.4389,-0.43,-0.43,-0.4661,-0.5203,-0.3849,-0.34,-0.4028,-0.4208,-0.4661,-0.5295,-0.4663,-0.4486,-0.4412,-0.4833,-0.5158,-0.517,-0.5629,-0.6075,-0.5997,-0.6088,-0.616,-0.6363,-0.6352,-0.6418,-0.6415,-0.6431,-0.6431,-0.6434,-0.6836,-0.7036,-0.7138,-0.7135,-0.7039,-0.7036,-0.6939,-0.6745,-0.6742,-0.6537,-0.6537,-0.6437,-0.6439,-0.6439,-0.6439,-0.6437,-0.6437,-0.6439,-0.6442,-0.6448,-0.645,-0.6456,-0.6255,-0.5441,-0.5749,-0.6276,-0.5783,-0.5487,-0.4776,-0.2134,-0.0,-0.0,-0.0,-0.0,-0.0,-0.0,-0.0,-0.0,-0.0,-0.0,-0.0,-3.0435,-2.9192,-2.857,-2.7881,-2.7134,-2.6863,-2.6658,-2.6521,-2.6339,-2.6201,-2.6144,-2.591,-2.5453,-2.485,-2.3368,-2.2489,-2.1745,-2.0304,-1.9311,-1.9161,-1.8904,-1.8734,-1.8623,-1.8239,-1.7648,-1.6937,-1.6818,-1.63,-1.5397,-1.454,-1.3723,-1.3028,-1.2199,-1.1768,-1.1456,-1.0544,-0.9826,-0.9579,-0.9593,-0.9607,-0.9165,-0.8285,-0.7485,-0.6602,-0.5361,-0.4476,-0.3853,-0.3409,-0.3499,-0.4037,-0.3408,-0.2962,-0.332,-0.3587,-0.3765,-0.3764,-0.4121,-0.4208,-0.4034,-0.432,-0.4514,-0.4523,-0.4787,-0.5025,-0.54,-0.5593,-0.5839,-0.6059,-0.6241,-0.6312,-0.6325,-0.6385,-0.6426,-0.6437,-0.6534,-0.6637,-0.6639,-0.6637,-0.6637,-0.6637,-0.6537,-0.6539,-0.6539,-0.6439,-0.6437,-0.6437,-0.6437,-0.6437,-0.6437,-0.6439,-0.6442,-0.635,-0.6356,-0.6361,-0.6366,-0.6372,-0.5861,-0.4539,-0.4845,-0.5972,-0.4758,-0.3441,-0.2124,-0.0202,-0.0203,-0.0,-0.0,-0.0,-0.0,0.0715,0.093,0.0841,0.0636,-0.0,-0.0,-3.048,-2.9192,-2.8634,-2.7815,-2.6943,-2.6645,-2.6508,-2.6327,-2.6131,-2.591,-2.5676,-2.5465,-2.4945,-2.4215,-2.301,-2.2274,-2.169,-2.0469,-1.9627,-1.8957,-1.8091,-1.7751,-1.7796,-1.7493,-1.6801,-1.602,-1.5988,-1.5364,-1.4357,-1.3279,-1.2581,-1.1928,-1.0804,-1.0463,-1.0681,-1.0125,-0.9584,-0.9331,-0.9432,-0.9432,-0.9262,-0.7929,-0.7132,-0.6248,-0.5008,-0.3765,-0.332,-0.3053,-0.3053,-0.3232,-0.3054,-0.2875,-0.2875,-0.3141,-0.3139,-0.296,-0.3408,-0.3585,-0.3585,-0.3764,-0.4032,-0.4039,-0.4264,-0.4552,-0.4758,-0.4924,-0.5167,-0.5366,-0.5553,-0.5605,-0.5632,-0.5907,-0.6158,-0.6366,-0.6407,-0.6434,-0.6437,-0.6437,-0.6437,-0.6437,-0.6437,-0.6437,-0.6437,-0.6437,-0.6437,-0.6437,-0.6437,-0.6437,-0.6437,-0.6342,-0.6245,-0.5952,-0.4939,-0.4332,-0.4133,-0.4034,-0.4038,-0.3025,-0.2521,-0.3942,-0.3132,-0.1414,-0.0707,0.0303,0.0303,0.0303,0.0303,0.0404,0.0506,0.0915,0.1331,0.1547,0.1251,0.1053,0.1071,-3.048,-2.9504,-2.8712,-2.7749,-2.6769,-2.6427,-2.6151,-2.598,-2.5758,-2.5394,-2.5016,-2.4874,-2.4299,-2.3213,-2.266,-2.1993,-2.1262,-2.0391,-1.952,-1.8453,-1.7301,-1.6689,-1.6963,-1.6631,-1.6046,-1.5306,-1.5258,-1.4665,-1.3635,-1.2369,-1.1632,-1.1067,-1.0003,-0.9602,-0.9809,-0.9446,-0.9257,-0.9074,-0.9078,-0.8903,-0.8548,-0.7217,-0.6245,-0.5359,-0.3941,-0.3051,-0.2873,-0.2785,-0.2785,-0.2785,-0.2875,-0.2875,-0.2875,-0.2875,-0.2875,-0.2873,-0.2964,-0.3053,-0.2963,-0.332,-0.3497,-0.359,-0.3857,-0.421,-0.4234,-0.4383,-0.4422,-0.4606,-0.4599,-0.4843,-0.4882,-0.5234,-0.556,-0.5869,-0.6041,-0.6189,-0.6208,-0.6321,-0.6437,-0.6337,-0.6337,-0.6437,-0.6337,-0.6337,-0.6437,-0.6437,-0.6339,-0.6142,-0.5839,-0.5539,-0.524,-0.4941,-0.3525,-0.1811,-0.151,-0.131,-0.1411,-0.1009,-0.0303,-0.0606,-0.0505,0.0505,0.0606,0.0909,0.0909,0.0909,0.0909,0.0909,0.0909,0.1011,0.1424,0.1535,0.1546,0.1457,0.1477,-3.1175,-3.0208,-2.9268,-2.809,-2.6828,-2.607,-2.5523,-2.5016,-2.4874,-2.4659,-2.4371,-2.4166,-2.3728,-2.299,-2.2285,-2.1527,-2.0216,-1.9265,-1.7989,-1.6487,-1.5859,-1.5496,-1.5446,-1.5158,-1.468,-1.4309,-1.4056,-1.3572,-1.277,-1.1942,-1.1169,-1.0534,-0.9558,-0.9095,-0.9279,-0.9095,-0.8727,-0.8368,-0.8548,-0.8101,-0.7298,-0.6593,-0.5531,-0.4289,-0.3048,-0.2424,-0.2334,-0.2334,-0.2334,-0.2334,-0.2424,-0.2604,-0.2784,-0.2694,-0.2694,-0.2785,-0.2875,-0.2875,-0.2875,-0.2963,-0.3053,-0.3142,-0.3232,-0.332,-0.3764,-0.369,-0.3972,-0.4254,-0.441,-0.4299,-0.4448,-0.4676,-0.4788,-0.4892,-0.5008,-0.5026,-0.5232,-0.5829,-0.6106,-0.5919,-0.6124,-0.6234,-0.5832,-0.6134,-0.6234,-0.6337,-0.6139,-0.5844,-0.534,-0.4634,-0.4131,-0.3629,-0.2318,-0.0605,-0.0101,0.0101,0.0101,0.0101,0.0808,0.1313,0.1415,0.1516,0.1313,0.1313,0.1415,0.1414,0.1212,0.1313,0.1313,0.1415,0.1516,0.1523,0.1635,0.1649,0.1658,-3.0925,-2.9799,-2.863,-2.7326,-2.6008,-2.5134,-2.4647,-2.4288,-2.4009,-2.379,-2.3497,-2.3298,-2.2852,-2.2241,-2.1441,-2.0498,-1.9562,-1.8212,-1.7009,-1.5965,-1.5316,-1.4772,-1.4363,-1.408,-1.3787,-1.3802,-1.3341,-1.2782,-1.2125,-1.1095,-1.012,-0.9727,-0.8854,-0.846,-0.8568,-0.856,-0.8292,-0.7933,-0.7658,-0.7122,-0.6502,-0.544,-0.4465,-0.3223,-0.2423,-0.2155,-0.2244,-0.2244,-0.2244,-0.2155,-0.2155,-0.2244,-0.2515,-0.2424,-0.2424,-0.2515,-0.2694,-0.2694,-0.2694,-0.2785,-0.2875,-0.2875,-0.2875,-0.3053,-0.3051,-0.296,-0.2869,-0.2964,-0.2897,-0.2746,-0.3142,-0.318,-0.3281,-0.3571,-0.3594,-0.3706,-0.3912,-0.4747,-0.5491,-0.5308,-0.5424,-0.5349,-0.5466,-0.5582,-0.5617,-0.5515,-0.5427,-0.5131,-0.4126,-0.3423,-0.2519,-0.1815,-0.0706,0.0303,0.1111,0.1313,0.1212,0.1111,0.1212,0.1516,0.1516,0.1617,0.1516,0.1617,0.1617,0.1617,0.1516,0.1617,0.1617,0.1516,0.1516,0.1617,0.162,0.1632,0.1636,-3.0466,-2.915,-2.7827,-2.6382,-2.5052,-2.4264,-2.3768,-2.3412,-2.3213,-2.2767,-2.2478,-2.2252,-2.1863,-2.1165,-2.043,-1.9788,-1.8683,-1.7236,-1.5869,-1.5493,-1.4757,-1.4159,-1.3743,-1.3413,-1.328,-1.3625,-1.291,-1.2245,-1.1416,-1.0233,-0.9484,-0.8802,-0.8107,-0.7937,-0.7948,-0.7768,-0.7676,-0.7492,-0.7136,-0.6511,-0.598,-0.4648,-0.3492,-0.2331,-0.2064,-0.1974,-0.1974,-0.1974,-0.2064,-0.2064,-0.1885,-0.1885,-0.1974,-0.2155,-0.2155,-0.2244,-0.2334,-0.2424,-0.2515,-0.2604,-0.2694,-0.2694,-0.2604,-0.2604,-0.2424,-0.2063,-0.1794,-0.1525,-0.144,-0.1169,-0.1256,-0.1638,-0.1836,-0.2026,-0.224,-0.2257,-0.2449,-0.3396,-0.3877,-0.4407,-0.4741,-0.4968,-0.4696,-0.4714,-0.4662,-0.4598,-0.4506,-0.4111,-0.3106,-0.2011,-0.1107,-0.0504,0.0404,0.0707,0.1414,0.1617,0.1617,0.1617,0.1617,0.1617,0.1617,0.1617,0.1617,0.1617,0.1617,0.1617,0.1617,0.1617,0.1617,0.1617,0.1617,0.1617,0.1617,0.1617,0.162,-3.0569,-2.9484,-2.8285,-2.6857,-2.525,-2.423,-2.2947,-2.2014,-2.1797,-2.1568,-2.1252,-2.1165,-2.0692,-2.0138,-1.9982,-1.885,-1.6911,-1.5365,-1.4461,-1.4216,-1.3807,-1.3452,-1.2903,-1.2769,-1.2596,-1.2356,-1.1946,-1.1479,-1.1022,-1.0078,-0.8967,-0.8572,-0.7759,-0.7411,-0.7595,-0.7503,-0.7054,-0.6966,-0.6881,-0.6438,-0.528,-0.421,-0.3138,-0.1794,-0.1615,-0.1615,-0.1525,-0.1525,-0.1525,-0.1525,-0.1525,-0.1436,-0.1435,-0.1615,-0.1794,-0.1974,-0.1974,-0.1885,-0.1884,-0.2154,-0.2064,-0.1795,-0.1615,-0.1435,-0.1166,-0.0897,-0.0718,-0.0718,-0.0628,-0.0628,-0.0807,-0.0721,-0.0811,-0.0993,-0.0906,-0.1001,-0.1091,-0.1368,-0.2028,-0.2821,-0.3705,-0.4307,-0.384,-0.3472,-0.34,-0.3325,-0.3238,-0.2556,-0.1476,-0.0496,0.0602,0.1006,0.1313,0.1414,0.1617,0.1617,0.1617,0.1617,0.1617,0.1718,0.1617,0.1617,0.1617,0.192,0.1818,0.1717,0.1717,0.1717,0.1819,0.192,0.1819,0.1617,0.1818,0.1919,0.1818,-2.8793,-2.7525,-2.609,-2.4614,-2.3121,-2.1803,-2.0864,-2.0207,-1.9904,-1.9737,-1.958,-1.9423,-1.9265,-1.87,-1.7696,-1.6234,-1.4518,-1.3529,-1.2948,-1.279,-1.279,-1.2528,-1.2009,-1.1923,-1.1311,-1.0727,-1.0214,-1.0104,-0.9966,-0.8704,-0.8053,-0.7563,-0.6933,-0.6877,-0.7061,-0.6877,-0.6609,-0.6435,-0.626,-0.5819,-0.4572,-0.3406,-0.1973,-0.1615,-0.1346,-0.1256,-0.1076,-0.1076,-0.1076,-0.0897,-0.0358,-0.0,-0.0,-0.0269,-0.0627,-0.0896,-0.1076,-0.0896,-0.0627,-0.0627,-0.0537,-0.0358,-0.0358,-0.0179,0.009,0.0358,0.0538,0.0718,0.0807,0.0718,0.0448,0.0359,0.0359,0.0359,0.0359,0.0359,0.0269,0.009,-0.0454,-0.111,-0.177,-0.2154,-0.2256,-0.2079,-0.2187,-0.2104,-0.1922,-0.106,-0.0,0.0683,0.1583,0.1882,0.1987,0.2106,0.201,0.2018,0.1919,0.1819,0.1819,0.1819,0.1919,0.202,0.2222,0.2526,0.2323,0.212,0.212,0.2322,0.2323,0.2425,0.2424,0.2424,0.2323,0.2323,0.2222,-2.6312,-2.5059,-2.3492,-2.1987,-2.0574,-1.9446,-1.8674,-1.8284,-1.8043,-1.7891,-1.7811,-1.7658,-1.7585,-1.7009,-1.5418,-1.3587,-1.2009,-1.1918,-1.1574,-1.1666,-1.1671,-1.1413,-1.1063,-1.0621,-1.0005,-0.9043,-0.8051,-0.8082,-0.8301,-0.7369,-0.6599,-0.6239,-0.6068,-0.6254,-0.6346,-0.6346,-0.6254,-0.5719,-0.5184,-0.4565,-0.3312,-0.1702,-0.0628,-0.1076,-0.1166,-0.1076,-0.0987,-0.0718,0.0179,0.0897,0.1703,0.215,0.1789,0.1608,0.1251,0.0806,0.0448,0.0717,0.0806,0.0895,0.0715,0.0895,0.0984,0.1074,0.1253,0.1612,0.206,0.2242,0.2243,0.2063,0.1704,0.1704,0.1704,0.1704,0.1704,0.1614,0.1524,0.1345,0.1165,0.0635,0.0183,-0.0367,-0.0829,-0.0645,-0.0649,-0.0373,-0.0187,0.0378,0.1232,0.1243,0.1834,0.2321,0.2628,0.267,0.2693,0.2516,0.252,0.2323,0.2323,0.2323,0.2424,0.2523,0.2827,0.3029,0.3128,0.2925,0.2927,0.2826,0.2827,0.2928,0.313,0.313,0.2827,0.2826,0.2826,-2.3421,-2.2758,-2.2211,-2.0837,-1.9045,-1.8655,-1.7654,-1.6137,-1.6332,-1.6421,-1.6167,-1.6167,-1.5936,-1.5108,-1.3503,-1.2492,-1.1815,-1.0788,-1.0274,-1.0371,-1.0463,-1.0202,-0.968,-0.8869,-0.8257,-0.7383,-0.6148,-0.6054,-0.6319,-0.5971,-0.5625,-0.5272,-0.5097,-0.5366,-0.6002,-0.5547,-0.5191,-0.4565,-0.4117,-0.2685,-0.0717,0.009,0.009,-0.0179,-0.0538,-0.0718,-0.0538,0.0179,0.1436,0.4047,0.477,0.4401,0.3401,0.304,0.3129,0.3042,0.2776,0.215,0.17,0.1699,0.1878,0.2147,0.2148,0.2327,0.2506,0.2597,0.2777,0.2778,0.2778,0.2688,0.2598,0.2598,0.2688,0.2598,0.2509,0.2509,0.2509,0.2151,0.206,0.2061,0.1538,0.0632,-0.009,0.0451,0.0903,0.1272,0.1647,0.2031,0.2322,0.2247,0.2271,0.2754,0.3148,0.3196,0.3149,0.3081,0.2903,0.2814,0.2825,0.2826,0.3027,0.3127,0.3128,0.3331,0.353,0.363,0.353,0.343,0.3331,0.3331,0.3632,0.3432,0.313,0.323,0.353,-1.8048,-1.9561,-1.9036,-1.8039,-1.6718,-1.5927,-1.5051,-1.4246,-1.4253,-1.426,-1.4176,-1.4092,-1.3587,-1.2486,-1.1031,-1.0346,-1.0014,-0.9323,-0.8978,-0.9157,-0.9157,-0.8894,-0.8097,-0.7562,-0.6858,-0.5531,-0.4645,-0.4022,-0.4287,-0.4554,-0.4559,-0.4385,-0.4295,-0.4474,-0.5107,-0.4476,-0.3757,-0.3129,-0.2413,-0.161,-0.0358,0.0538,0.0987,0.0718,0.009,0.0358,0.1345,0.2691,0.3141,0.4672,0.494,0.5484,0.4839,0.4656,0.4654,0.4565,0.4476,0.4028,0.3576,0.3398,0.3487,0.3667,0.3758,0.3848,0.3941,0.3762,0.3494,0.3317,0.3317,0.3226,0.3045,0.2867,0.2867,0.2956,0.3135,0.3045,0.3045,0.2956,0.2777,0.2867,0.2867,0.1971,0.1343,0.1704,0.1976,0.2073,0.2352,0.2633,0.2912,0.2916,0.3046,0.3365,0.3574,0.3794,0.3663,0.3518,0.3354,0.3179,0.312,0.3222,0.353,0.363,0.3732,0.3932,0.4232,0.4232,0.4133,0.4033,0.4033,0.4033,0.4133,0.4234,0.4334,0.4431,0.4931,-1.3277,-1.5718,-1.5837,-1.5292,-1.433,-1.3341,-1.2674,-1.2163,-1.2248,-1.2163,-1.2163,-1.2163,-1.1386,-1.0086,-0.9387,-0.879,-0.8292,-0.776,-0.7669,-0.7845,-0.7845,-0.7489,-0.6868,-0.6334,-0.5447,-0.358,-0.3221,-0.2865,-0.2778,-0.2957,-0.3403,-0.3405,-0.2952,-0.3401,-0.358,-0.2861,-0.2053,-0.1607,-0.0715,-0.0179,0.0268,0.1254,0.1434,0.1255,0.0986,0.1433,0.3587,0.5121,0.5116,0.4746,0.5287,0.5922,0.5735,0.5727,0.5636,0.5547,0.5455,0.5455,0.5095,0.4917,0.501,0.501,0.501,0.4652,0.4656,0.4567,0.4387,0.403,0.403,0.3762,0.3582,0.3491,0.358,0.3671,0.3583,0.3403,0.3403,0.3403,0.3492,0.3673,0.3673,0.3405,0.3045,0.3135,0.3135,0.3047,0.3136,0.3226,0.3408,0.359,0.3709,0.3862,0.3901,0.4111,0.406,0.3927,0.3679,0.3627,0.3575,0.3615,0.4021,0.4228,0.4232,0.4533,0.4933,0.4935,0.4836,0.4834,0.4834,0.4935,0.5138,0.5539,0.5737,0.5832,0.6129,-1.0443,-1.1214,-1.3334,-1.3243,-1.1975,-1.2504,-1.1569,-1.0111,-1.0539,-1.0682,-1.0555,-1.06,-0.9943,-0.9005,-0.8016,-0.7603,-0.7474,-0.6425,-0.6216,-0.6486,-0.6786,-0.6298,-0.5667,-0.5051,-0.4539,-0.3387,-0.2397,-0.1958,-0.1968,-0.1684,-0.2051,-0.2243,-0.1517,-0.1967,-0.1968,-0.1161,-0.0268,0.0179,0.0894,0.1521,0.1879,0.2329,0.224,0.1702,0.1522,0.2236,0.4216,0.5927,0.6732,0.6083,0.6269,0.645,0.6352,0.6257,0.6166,0.6166,0.6166,0.6166,0.5985,0.5544,0.5099,0.501,0.501,0.501,0.5013,0.501,0.4921,0.4743,0.4654,0.4654,0.4652,0.483,0.4474,0.4385,0.4297,0.4297,0.4208,0.4119,0.4297,0.4478,0.4389,0.4119,0.403,0.4028,0.3762,0.3673,0.3851,0.3942,0.3942,0.4123,0.4212,0.4252,0.4308,0.4338,0.4352,0.4313,0.4377,0.4428,0.4386,0.4553,0.4706,0.4814,0.5101,0.5233,0.5534,0.5536,0.5639,0.5636,0.5737,0.5839,0.6042,0.6339,0.6936,0.7332,0.763,-0.9805,-1.0637,-1.0787,-1.0789,-1.0799,-1.0626,-1.0024,-0.9135,-0.9121,-0.8815,-0.8375,-0.7854,-0.7179,-0.642,-0.5744,-0.5496,-0.5504,-0.5245,-0.4646,-0.4379,-0.4462,-0.4381,-0.3867,-0.3189,-0.2494,-0.19,-0.1123,-0.0517,-0.0344,-0.026,0.0086,0.0259,0.0264,-0.134,-0.1342,0.0534,0.1872,0.1874,0.2146,0.2597,0.2686,0.2776,0.2688,0.2419,0.2774,0.3487,0.5013,0.6545,0.7074,0.7153,0.6887,0.6795,0.6704,0.6609,0.6517,0.6517,0.652,0.6428,0.6428,0.5991,0.5638,0.546,0.5371,0.528,0.528,0.5099,0.501,0.501,0.501,0.5099,0.501,0.501,0.4921,0.4921,0.501,0.5013,0.4924,0.4746,0.4743,0.4746,0.4832,0.4741,0.4654,0.4654,0.4389,0.4121,0.4391,0.4569,0.4567,0.4743,0.4832,0.4919,0.4978,0.4994,0.5008,0.5073,0.5148,0.5298,0.5356,0.5434,0.5608,0.5922,0.6118,0.6174,0.6329,0.6828,0.693,0.6634,0.6637,0.6836,0.6939,0.7039,0.7736,0.863,0.8928,-0.9155,-0.972,-0.8742,-0.8813,-0.9487,-0.9077,-0.8476,-0.8025,-0.792,-0.7636,-0.7015,-0.6268,-0.5435,-0.4606,-0.4028,-0.3787,-0.3878,-0.3535,-0.2768,-0.26,-0.2685,-0.268,-0.218,-0.1681,-0.1267,-0.0252,0.0252,0.0589,0.1349,0.1596,0.219,0.2469,0.2073,0.0611,-0.0,0.2019,0.3961,0.3429,0.3364,0.3549,0.3634,0.3749,0.3846,0.3666,0.3838,0.4461,0.5711,0.7064,0.7694,0.7591,0.7408,0.7146,0.7058,0.6966,0.6786,0.6789,0.67,0.67,0.652,0.6346,0.6083,0.5905,0.5813,0.5725,0.5549,0.5369,0.5458,0.528,0.528,0.5191,0.5191,0.528,0.5282,0.5282,0.5191,0.5191,0.5191,0.5102,0.5102,0.5102,0.501,0.5008,0.5008,0.501,0.4919,0.4654,0.4656,0.4835,0.4835,0.5097,0.5536,0.5622,0.5816,0.5816,0.5727,0.6065,0.6503,0.6587,0.6659,0.6546,0.6715,0.6945,0.7208,0.7284,0.7641,0.8192,0.8315,0.8216,0.8024,0.7829,0.8226,0.8623,0.9118,0.9912,1.0015,-0.8319,-0.8098,-0.7491,-0.7581,-0.8094,-0.7942,-0.73,-0.6662,-0.6964,-0.7098,-0.6901,-0.6236,-0.5325,-0.4412,-0.3483,-0.3069,-0.2658,-0.2079,-0.1329,-0.0993,-0.1155,-0.1332,-0.1251,-0.0833,0.0083,0.1505,0.1997,0.232,0.3079,0.3066,0.391,0.4502,0.4101,0.3206,0.1677,0.353,0.4376,0.4219,0.4389,0.4762,0.5221,0.529,0.5414,0.532,0.5066,0.5604,0.6593,0.768,0.8132,0.7948,0.7852,0.7764,0.7764,0.7676,0.7588,0.7411,0.7415,0.7326,0.7054,0.6697,0.652,0.6343,0.6166,0.6166,0.608,0.5994,0.5905,0.5727,0.5727,0.5641,0.5641,0.5644,0.5641,0.5552,0.5463,0.5371,0.5371,0.5725,0.5722,0.5899,0.5453,0.5097,0.5186,0.5186,0.5364,0.5275,0.5097,0.5099,0.5277,0.5894,0.6508,0.6593,0.6858,0.6854,0.6946,0.7379,0.7712,0.7818,0.7815,0.771,0.7805,0.8077,0.8259,0.8361,0.8844,0.9514,0.9759,0.9899,0.9706,0.9509,1.0105,1.06,1.09,1.09,1.0806,-0.8741,-0.8195,-0.6781,-0.6228,-0.6413,-0.6358,-0.6105,-0.5936,-0.6194,-0.6022,-0.5388,-0.514,-0.4094,-0.2892,-0.2414,-0.2014,-0.169,-0.1203,-0.0481,0.0561,0.0482,0.0481,0.0482,0.0726,0.1609,0.2893,0.3538,0.4027,0.488,0.4671,0.4898,0.5377,0.5259,0.4489,0.3993,0.4617,0.4954,0.5277,0.5482,0.5756,0.6441,0.6639,0.6807,0.689,0.6783,0.7011,0.7559,0.846,0.8568,0.8388,0.8296,0.8204,0.8116,0.812,0.7944,0.7768,0.7768,0.7768,0.7588,0.7408,0.7051,0.6694,0.6428,0.6432,0.6343,0.6343,0.6257,0.6169,0.608,0.608,0.5994,0.5994,0.5905,0.5733,0.5644,0.5644,0.573,0.6257,0.6605,0.6871,0.6779,0.6953,0.7041,0.6688,0.6688,0.6684,0.6599,0.6337,0.6337,0.7129,0.7834,0.783,0.7918,0.7914,0.8086,0.8611,0.879,0.8794,0.867,0.8527,0.8737,0.9146,0.9495,0.9626,1.0223,1.0821,1.0914,1.1086,1.1184,1.1385,1.1487,1.1487,1.1389,1.1292,1.1096,-0.9965,-0.799,-0.6005,-0.5234,-0.526,-0.5009,-0.4831,-0.4742,-0.4921,-0.4607,-0.4088,-0.3849,-0.3383,-0.2202,-0.1257,-0.0628,-0.0392,0.0235,0.0784,0.1803,0.204,0.2046,0.2124,0.2352,0.3072,0.4157,0.4784,0.5338,0.6051,0.6035,0.6045,0.5967,0.5699,0.5717,0.5752,0.6112,0.6115,0.6354,0.6546,0.6685,0.7219,0.756,0.7835,0.8139,0.8406,0.8797,0.8736,0.886,0.9087,0.8995,0.8907,0.8727,0.864,0.8468,0.8292,0.8116,0.7944,0.7944,0.7856,0.7852,0.7499,0.7143,0.6874,0.6697,0.6609,0.6609,0.652,0.6432,0.6517,0.6605,0.6694,0.6609,0.6694,0.6523,0.6782,0.6779,0.6956,0.7566,0.783,0.8006,0.8273,0.8623,0.8798,0.854,0.8185,0.8273,0.8273,0.7921,0.757,0.8364,0.9065,0.9065,0.9235,0.941,0.9584,0.9763,0.9854,0.9767,0.9625,0.9578,0.9916,1.0353,1.0654,1.087,1.1303,1.1647,1.2002,1.2175,1.2073,1.1975,1.2073,1.1975,1.178,1.1683,1.1585,-1.1744,-0.7685,-0.5306,-0.4523,-0.4598,-0.4059,-0.3524,-0.3137,-0.3057,-0.3212,-0.3439,-0.235,-0.2118,-0.2591,-0.0706,0.0549,0.1175,0.1959,0.2352,0.2823,0.3134,0.3292,0.3368,0.3522,0.43,0.5154,0.5702,0.6089,0.6788,0.7019,0.6942,0.6934,0.6762,0.7119,0.7545,0.7892,0.7659,0.7688,0.758,0.7874,0.8317,0.846,0.8796,0.9124,0.9502,0.9611,0.9682,0.9862,1.0043,1.0082,1.0111,0.9767,0.9602,0.9345,0.8903,0.8464,0.8197,0.8376,0.8285,0.8368,0.8464,0.8372,0.8025,0.7584,0.7231,0.7139,0.7224,0.7132,0.7221,0.7482,0.7658,0.7918,0.8093,0.8348,0.869,0.8777,0.8777,0.9039,0.9126,0.9213,0.9396,0.9575,0.9662,0.9579,0.9589,0.9676,0.9763,0.9584,0.941,0.9589,1.012,1.0202,1.0467,1.1003,1.1089,1.0824,1.0819,1.0727,1.0819,1.086,1.1194,1.1263,1.1378,1.1522,1.2066,1.2373,1.2582,1.2662,1.2667,1.2662,1.2467,1.2467,1.2273,1.237,1.237,-0.9092,-0.6607,-0.5025,-0.43,-0.4084,-0.3051,-0.2505,-0.2423,-0.1802,-0.1565,-0.1566,-0.0706,-0.039,0.0235,0.0627,0.1173,0.1877,0.2506,0.282,0.3363,0.4115,0.4523,0.4753,0.4892,0.5449,0.5983,0.644,0.6973,0.7689,0.8003,0.8313,0.8533,0.8058,0.8519,0.915,0.9808,0.9402,0.9018,0.8846,0.9101,0.9545,0.9781,1.0027,1.028,1.009,1.0269,1.0526,1.1033,1.1131,1.1063,1.131,1.1295,1.1305,1.0799,1.0197,0.9378,0.9648,1.0188,0.9908,1.0096,1.0197,1.0024,0.9932,0.8978,0.8368,0.8017,0.8189,0.8185,0.8352,0.879,0.9052,0.9226,0.9396,0.9653,0.9904,0.9908,0.9995,1.0255,1.0341,1.0433,1.0611,1.0794,1.088,1.0885,1.0982,1.1073,1.1165,1.0987,1.0901,1.0992,1.0992,1.1079,1.1257,1.1613,1.1699,1.1521,1.1693,1.178,1.1693,1.1607,1.1646,1.1728,1.185,1.2013,1.2368,1.2658,1.2904,1.2948,1.2958,1.2958,1.2856,1.2759,1.2759,1.2856,1.2861,-1.0598,-0.6981,-0.4902,-0.3683,-0.2913,-0.2113,-0.1635,-0.1216,-0.0838,-0.0533,0.0076,0.0761,0.1526,0.1978,0.2126,0.2504,0.2882,0.3255,0.3634,0.431,0.5022,0.5442,0.5748,0.6279,0.6841,0.7174,0.768,0.8295,0.8801,0.9115,0.9448,0.9664,0.9271,0.9712,1.0271,1.0755,1.098,1.0582,1.0363,1.0432,1.0732,1.1053,1.1176,1.133,1.093,1.1027,1.1447,1.216,1.2195,1.1916,1.2129,1.2542,1.2499,1.1952,1.1026,1.0393,1.0849,1.1214,1.1128,1.1219,1.1322,1.1322,1.1225,1.0534,0.9845,0.9497,0.9579,0.957,0.9918,1.0183,1.0361,1.0534,1.0702,1.0778,1.0783,1.0697,1.1042,1.1391,1.1563,1.1655,1.1923,1.2192,1.2283,1.2203,1.2118,1.194,1.1849,1.1854,1.1682,1.1682,1.1602,1.1607,1.178,1.1957,1.2043,1.2037,1.2037,1.1952,1.1866,1.1866,1.1952,1.2025,1.2074,1.2277,1.2531,1.2897,1.3154,1.3227,1.3152,1.3152,1.3244,1.3244,1.3147,1.2958,1.2958,-1.4325,-0.7694,-0.4973,-0.2813,-0.1448,-0.1228,-0.0723,0.0072,-0.0217,0.0218,0.1241,0.2046,0.2569,0.3022,0.353,0.3965,0.4191,0.441,0.4784,0.5228,0.5712,0.6223,0.7001,0.7641,0.8027,0.8745,0.9367,0.9574,0.9779,1.007,1.0307,1.0502,1.0109,1.0352,1.1332,1.1576,1.1952,1.2396,1.1745,1.1316,1.1681,1.1935,1.2144,1.2627,1.2377,1.2207,1.2739,1.3017,1.3239,1.2842,1.2824,1.3457,1.3137,1.2971,1.1893,1.1623,1.2047,1.2468,1.2583,1.2516,1.2169,1.1918,1.158,1.166,1.1569,1.088,1.0788,1.0875,1.1139,1.1483,1.1746,1.1752,1.1918,1.1997,1.2083,1.2089,1.226,1.2437,1.2437,1.2613,1.2619,1.2887,1.2796,1.2711,1.2631,1.254,1.254,1.254,1.2454,1.2369,1.2289,1.2209,1.2209,1.2203,1.2209,1.2209,1.2123,1.2123,1.2037,1.2118,1.2203,1.2198,1.2214,1.2506,1.2894,1.3205,1.3446,1.3532,1.3709,1.3539,1.3636,1.363,1.3624,1.3715,1.334,-1.1605,-0.6769,-0.4335,-0.2464,-0.1166,-0.0686,-0.0274,0.0137,0.0959,0.1542,0.2026,0.2761,0.3336,0.3898,0.4464,0.4965,0.5477,0.5587,0.6147,0.6552,0.6824,0.7202,0.7901,0.8677,0.9141,0.948,1.002,1.0823,1.1166,1.1217,1.1153,1.1224,1.1064,1.16,1.2137,1.2354,1.309,1.3605,1.3104,1.2706,1.3158,1.2997,1.3018,1.3244,1.3184,1.3338,1.3793,1.4456,1.4524,1.4463,1.4399,1.4223,1.3559,1.354,1.3325,1.3048,1.3276,1.3732,1.3941,1.3794,1.3523,1.3562,1.3581,1.3613,1.3372,1.2516,1.2089,1.2174,1.2357,1.2705,1.2966,1.296,1.296,1.3137,1.3222,1.3313,1.3313,1.3313,1.3313,1.3313,1.3313,1.3307,1.3222,1.3222,1.3137,1.3137,1.3137,1.3137,1.3137,1.3052,1.296,1.2875,1.2625,1.254,1.2546,1.246,1.2375,1.2375,1.2369,1.2448,1.2534,1.2588,1.2757,1.2927,1.3219,1.3817,1.4278,1.4361,1.4429,1.4376,1.4484,1.4758,1.5134,1.5317,1.4567,-1.2517,-0.8428,-0.403,-0.1542,-0.0403,0.0537,0.1005,0.1475,0.2611,0.3201,0.3289,0.358,0.4,0.4621,0.5168,0.5807,0.6368,0.6555,0.7074,0.7573,0.8025,0.8373,0.8945,0.9653,1.017,1.0546,1.1236,1.1921,1.2423,1.2316,1.2201,1.2183,1.2364,1.226,1.2669,1.3447,1.3988,1.415,1.3854,1.4106,1.4495,1.434,1.4299,1.4474,1.4689,1.4689,1.4601,1.5098,1.4992,1.4891,1.4728,1.4858,1.4562,1.465,1.4459,1.4144,1.4221,1.4729,1.4896,1.4806,1.4533,1.454,1.426,1.3852,1.4069,1.3323,1.3193,1.329,1.3288,1.3568,1.3483,1.3483,1.3392,1.3483,1.3392,1.3398,1.3568,1.3659,1.3652,1.3568,1.3646,1.3886,1.388,1.388,1.3802,1.3307,1.3392,1.3561,1.3561,1.3971,1.3795,1.3626,1.3457,1.3045,1.2881,1.2796,1.2705,1.2705,1.2863,1.3039,1.3203,1.3215,1.3303,1.3896,1.4438,1.5037,1.5409,1.5571,1.5819,1.588,1.5981,1.6075,1.6445,1.6727,1.6257,-1.4379,-0.9774,-0.3791,-0.0604,0.0537,0.1741,0.2409,0.2945,0.4278,0.4815,0.4706,0.4576,0.4815,0.5276,0.5932,0.6593,0.7143,0.7673,0.8088,0.8592,0.8851,0.9491,1.0129,1.0778,1.1382,1.1903,1.2434,1.2907,1.3421,1.3103,1.2891,1.3157,1.2767,1.2211,1.3254,1.4163,1.4694,1.4499,1.4533,1.5007,1.5364,1.5627,1.5704,1.593,1.6263,1.5982,1.57,1.5559,1.5417,1.5121,1.5089,1.5231,1.5316,1.538,1.4965,1.4774,1.5096,1.5104,1.4977,1.4952,1.468,1.4408,1.4116,1.4223,1.4547,1.4508,1.4391,1.4303,1.4309,1.4153,1.4153,1.4082,1.3906,1.3984,1.3815,1.3815,1.399,1.4243,1.4237,1.4146,1.4384,1.4629,1.4629,1.4706,1.4461,1.3971,1.3724,1.3808,1.4055,1.4796,1.5039,1.4873,1.4622,1.4126,1.3711,1.3542,1.3613,1.386,1.4112,1.3951,1.3957,1.4203,1.4621,1.534,1.5836,1.63,1.6621,1.6912,1.7143,1.7289,1.7382,1.7475,1.7475,1.7755,1.7855,-1.254,-0.4634,-0.2647,-0.1139,0.0201,0.1539,0.2207,0.2876,0.4938,0.5675,0.5796,0.6396,0.6662,0.6264,0.7316,0.8096,0.8715,0.9041,0.9742,1.0388,1.0557,1.094,1.1447,1.2174,1.2687,1.3119,1.3422,1.3411,1.4206,1.3695,1.3232,1.3327,1.3384,1.2985,1.2883,1.4066,1.5336,1.5182,1.539,1.5804,1.597,1.6225,1.6338,1.6716,1.7139,1.7276,1.7345,1.7482,1.6706,1.6237,1.6165,1.6134,1.6024,1.5978,1.5705,1.552,1.5839,1.5889,1.5747,1.5753,1.5678,1.5643,1.5567,1.5547,1.5636,1.5583,1.5395,1.5124,1.502,1.4733,1.4692,1.4643,1.4566,1.4817,1.4894,1.5061,1.5235,1.5643,1.5876,1.5876,1.5951,1.6034,1.5951,1.6034,1.6108,1.5703,1.5621,1.5621,1.5538,1.5951,1.6281,1.6108,1.5861,1.5771,1.5523,1.5101,1.5094,1.526,1.5267,1.5191,1.5274,1.5508,1.5967,1.6614,1.7102,1.7494,1.783,1.8273,1.808,1.8211,1.8588,1.878,1.8788,1.888,1.9063]},{"header":{"parameterUnit":"m.s-1","parameterCategory":1,"la1":31.0,"la2":29.5877,"lo1":-88.7671,"lo2":-86.6584,"dy":0.0162,"dx":0.0185,"nx":115,"ny":88,"refTime":"2024-05-08T06:00:00:Z","depth":0,"parameterNumber":3,"parameterNumberName":"V-component_of_WINDS"},"data":[0.0,0.0,0.0,0.0,0.0,0.0,0.0,0.0,0.0,0.0,0.0,0.0,0.0,0.0,0.0,0.0,0.0,0.0,0.0,0.0,0.0,0.0,0.0,0.0,0.0,0.0,0.0,0.0,0.0,0.0,0.0,0.0,0.0,0.0,0.0,0.0,0.0,0.0,0.0,0.0,0.0,0.0,0.0,0.0,0.0,0.0,0.0,0.0,0.0,0.0,0.0,0.0,0.0,0.0,0.0,0.0,0.0,0.0,0.0,0.0,0.0,0.0,0.0,0.0,0.0,0.0,0.0,0.0,0.0,0.0,0.0,0.0,0.0,0.0,0.0,0.0,0.0,0.0,0.0,0.0,0.0,0.0,0.0,0.0,0.0,0.0,0.0,0.0,0.0,0.0,0.0,0.0,0.0,0.0,0.0,0.0,0.0,0.0,0.0,0.0,0.0,0.0,0.0,0.0,0.0,0.0,0.0,0.0,0.0,0.0,0.0,0.0,0.0,0.0,0.0,0.0,0.0,0.0,0.0,0.0,0.0,0.0,0.0,0.0,0.0,0.0,0.0,0.0,0.0,0.0,0.0,0.0,0.0,0.0,0.0,0.0,0.0,0.0,0.0,0.0,0.0,0.0,0.0,0.0,0.0,0.0,0.0,0.0,0.0,0.0,0.0,0.0,0.0,0.0,0.0,0.0,0.0,0.0,0.0,0.0,0.0,0.0,0.0,0.0,0.0,0.0,0.0,0.0,0.0,0.0,0.0,0.0,0.0,0.0,0.0,0.0,0.0,0.0,0.0,0.0,0.0,0.0,0.0,0.0,0.0,0.0,0.0,0.0,0.0,0.0,0.0,0.0,0.0,0.0,0.0,0.0,0.0,0.0,0.0,0.0,0.0,0.0,0.0,0.0,0.0,0.0,0.0,0.0,0.0,0.0,0.0,0.0,0.0,0.0,0.0,0.0,0.0,0.0,0.0,0.0,0.0,0.0,0.0,0.0,0.0,0.0,0.0,0.0,0.0,0.0,0.0,0.0,0.0,0.0,0.0,0.0,0.0,0.0,0.0,0.0,0.0,0.0,0.0,0.0,0.0,0.0,0.0,0.0,0.0,0.0,0.0,0.0,0.0,0.0,0.0,0.0,0.0,0.0,0.0,0.0,0.0,0.0,0.0,0.0,0.0,0.0,0.0,0.0,0.0,0.0,0.0,0.0,0.0,0.0,0.0,0.0,0.0,0.0,0.0,0.0,0.0,0.0,0.0,0.0,0.0,0.0,0.0,0.0,0.0,0.0,0.0,0.0,0.0,0.0,0.0,0.0,0.0,0.0,0.0,0.0,0.0,0.0,0.0,0.0,0.0,0.0,0.0,0.0,0.0,0.0,0.0,0.0,0.0,0.0,0.0,0.0,0.0,0.0,0.0,0.0,0.0,0.0,0.0,0.0,0.0,0.0,0.0,0.0,0.0,0.0,0.0,0.0,0.0,0.0,0.0,0.0,0.0,0.0,0.0,0.0,0.0,0.0,0.0,0.0,0.0,0.0,0.0,0.0,0.0,0.0,0.0,0.0,0.0,0.0,0.0,0.0,0.0,0.0,0.0,0.0,0.0,0.0,0.0,0.0,0.0,0.0,0.0,0.0,0.0,0.0,0.0,0.0,0.0,0.0,0.0,0.0,0.0,0.0,0.0,0.0,0.0,0.0,0.0,0.0,0.0,0.0,0.0,0.0,0.0,0.0,0.0,0.0,0.0,0.0,0.0,0.0,0.0,0.0,0.0,0.0,0.0,0.0,0.0,0.0,0.0,0.0,0.0,0.0,0.0,0.0,0.0,0.0,0.0,0.0,0.0,0.0,0.0,0.0,0.0,0.0,0.0,0.0,0.0,0.0,0.0,0.0,0.0,0.0,0.0,0.0,0.0,0.0,0.0,0.0,0.0,0.0,0.0,0.0,0.0,0.0,0.0,0.0,0.0,0.0,0.0,0.0,0.0,0.0,0.0,0.0,0.0,0.0,0.0,0.0,0.0,0.0,0.0,0.0,0.0,0.0,0.0,0.0,0.0,0.0,0.0,0.0,0.0,0.0,0.0,0.0,0.0,0.0,0.0,0.0,0.0,0.0,0.0,0.0,0.0,0.0,0.0,0.0,0.0,0.0,0.0,0.0,0.0,0.0,0.0,0.0,0.0,0.0,0.0,0.0,0.0,0.0,0.0,0.0,0.0,0.0,0.0,0.0,0.0,0.0,0.0,0.0,0.0,0.0,0.0,0.0,0.0,0.0,0.0,0.0,0.0,0.0,0.0,0.0,0.0,0.0,0.0,0.0,0.0,0.0,0.0,0.0,0.0,0.0,0.0,0.0,0.0,0.0,0.0,0.0,0.0,0.0,0.0,0.0,0.0,0.0,0.0,0.0,0.0,0.0,0.0,0.0,0.0,0.0,0.0,0.0,0.0,0.0,0.0,0.0,0.0,0.0,0.0,0.0,0.0,0.0,0.0,0.0,0.0,0.0,0.0,0.0,0.0,0.0,0.0,0.0,0.0,0.0,0.0,0.0,0.0,0.0,0.0,0.0,0.0,0.0,0.0,0.0,0.0,0.0,0.0,0.0,0.0,0.0,0.0,0.0,0.0,0.0,0.0,0.0,0.0,0.0,0.0,0.0,0.0,0.0,0.0,0.0,0.0,0.0,0.0,0.0,0.0,0.0,0.0,0.0,0.0,0.0,0.0,0.0,0.0,0.0,0.0,0.0,0.0,0.0,0.0,0.0,0.0,0.0,0.0,0.0,0.0,0.0,0.0,0.0,0.0,0.0,0.0,0.0,0.0,0.0,0.0,0.0,0.0,0.0,0.0,0.0,0.0,0.0,0.0,0.0,0.0,0.0,0.0,0.0,0.0,0.0,0.0,0.0,0.0,0.0,0.0,0.0,0.0,0.0,0.0,0.0,0.0,0.0,0.0,0.0,0.0,0.0,0.0,0.0,0.0,0.0,0.0,0.0,0.0,0.0,0.0,0.0,0.0,0.0,0.0,0.0,0.0,0.0,0.0,0.0,0.0,0.0,0.0,0.0,0.0,0.0,0.0,0.0,0.0,0.0,0.0,0.0,0.0,0.0,0.0,0.0,0.0,0.0,0.0,0.0,0.0,0.0,0.0,0.0,0.0,0.0,0.0,0.0,0.0,0.0,0.0,0.0,0.0,0.0,0.0,0.0,0.0,0.0,0.0,0.0,0.0,0.0,0.0,0.0,0.0,0.0,0.0,0.0,0.0,0.0,0.0,0.0,0.0,0.0,0.0,0.0,0.0,0.0,0.0,0.0,0.0,0.0,0.0,0.0,0.0,0.0,0.0,0.0,0.0,0.0,0.0,0.0,0.0,0.0,0.0,0.0,0.0,0.0,0.0,0.0,0.0,0.0,0.0,0.0,0.0,0.0,0.0,0.0,0.0,0.0,0.0,0.0,0.0,0.0,0.0,0.0,0.0,0.0,0.0,0.0,0.0,0.0,0.0,0.0,0.0,0.0,0.0,0.0,0.0,0.0,0.0,0.0,0.0,0.0,0.0,0.0,0.0,0.0,0.0,0.0,0.0,0.0,0.0,0.0,0.0,0.0,0.0,0.0,0.0,0.0,0.0,0.0,0.0,0.0,0.0,0.0,0.0,0.0,0.0,0.0,0.0,0.0,0.0,0.0,0.0,0.0,0.0,0.0,0.0,0.0,0.0,0.0,0.0,0.0,0.0,0.0,0.0,0.0,0.0,0.0,0.0,0.0,0.0,0.0,0.0,0.0,0.0,0.0,0.0,0.0,0.0,0.0,0.0,0.0,0.0,0.0,0.0,0.0,0.0,0.0,0.0,0.0,0.0,0.0,0.0,0.0,0.0,0.0,0.0,0.0,0.0,0.0,0.0,0.0,0.0,0.0,0.0,0.0,0.0,0.0,0.0,0.0,0.0,0.0,0.0,0.0,0.0,0.0,0.0,0.0,0.0,0.0,0.0,0.0,0.0,0.0,0.0,0.0,0.0,0.0,0.0,0.0,0.0,0.0,0.0,0.0,0.0,0.0,0.0,0.0,0.0,0.0,0.0,0.0,0.0,0.0,0.0,0.0,0.0,0.0,0.0,0.0,0.0,0.0,0.0,0.0,0.0,0.0,0.0,0.0,0.0,0.0,0.0,0.0,0.0,0.0,0.0,0.0,0.0,0.0,0.0,0.0,0.0,0.0,0.0,0.0,0.0,0.0,0.0,0.0,0.0,0.0,0.0,0.0,0.0,0.0,0.0,0.0,0.0,0.0,-2.2892,0.0,0.0,0.0,0.0,0.0,0.0,0.0,0.0,0.0,0.0,0.0,0.0,0.0,0.0,0.0,0.0,0.0,0.0,0.0,0.0,0.0,0.0,0.0,0.0,0.0,0.0,0.0,0.0,0.0,0.0,0.0,0.0,0.0,0.0,0.0,0.0,0.0,0.0,0.0,0.0,0.0,0.0,0.0,0.0,0.0,0.0,0.0,0.0,0.0,0.0,0.0,0.0,0.0,0.0,0.0,0.0,0.0,0.0,0.0,0.0,0.0,0.0,0.0,0.0,0.0,0.0,0.0,0.0,0.0,0.0,0.0,0.0,0.0,0.0,0.0,0.0,0.0,0.0,0.0,0.0,0.0,0.0,0.0,0.0,0.0,0.0,0.0,0.0,0.0,0.0,0.0,0.0,0.0,0.0,0.0,0.0,0.0,0.0,0.0,0.0,0.0,0.0,0.0,0.0,0.0,0.0,0.0,0.0,0.0,0.0,-2.3363,-2.3982,-2.3363,-2.3216,-2.3623,0.0,0.0,0.0,0.0,0.0,0.0,0.0,0.0,0.0,0.0,0.0,0.0,0.0,0.0,0.0,0.0,0.0,0.0,0.0,0.0,0.0,0.0,0.0,0.0,0.0,0.0,0.0,0.0,0.0,0.0,0.0,0.0,0.0,0.0,0.0,0.0,0.0,0.0,0.0,0.0,0.0,0.0,0.0,0.0,0.0,0.0,0.0,0.0,0.0,0.0,0.0,0.0,0.0,0.0,0.0,0.0,0.0,0.0,0.0,0.0,0.0,0.0,0.0,0.0,0.0,0.0,0.0,0.0,0.0,0.0,0.0,0.0,0.0,0.0,0.0,0.0,0.0,0.0,0.0,0.0,0.0,0.0,0.0,0.0,0.0,0.0,0.0,0.0,0.0,0.0,0.0,0.0,0.0,0.0,0.0,0.0,0.0,0.0,0.0,0.0,0.0,0.0,0.0,0.0,0.0,0.0,0.0,0.0,0.0,0.0,0.0,0.0,-2.4328,-2.4369,-2.442,0.0,0.0,0.0,0.0,0.0,0.0,0.0,0.0,0.0,0.0,0.0,0.0,0.0,0.0,0.0,0.0,0.0,0.0,0.0,0.0,0.0,0.0,0.0,0.0,0.0,0.0,0.0,0.0,0.0,0.0,0.0,0.0,0.0,0.0,0.0,0.0,0.0,0.0,0.0,0.0,0.0,0.0,0.0,0.0,0.0,0.0,0.0,0.0,0.0,0.0,0.0,0.0,0.0,0.0,0.0,0.0,0.0,0.0,0.0,0.0,0.0,0.0,0.0,0.0,0.0,0.0,0.0,0.0,0.0,0.0,0.0,0.0,0.0,0.0,0.0,0.0,0.0,0.0,0.0,0.0,0.0,0.0,0.0,0.0,0.0,0.0,0.0,0.0,0.0,0.0,0.0,0.0,0.0,0.0,0.0,0.0,0.0,0.0,0.0,0.0,0.0,0.0,0.0,0.0,0.0,0.0,0.0,0.0,0.0,0.0,-2.513,-2.5454,-2.5406,0.0,-2.5628,0.0,0.0,0.0,0.0,0.0,0.0,0.0,0.0,0.0,0.0,0.0,0.0,0.0,0.0,0.0,0.0,0.0,0.0,0.0,0.0,0.0,0.0,0.0,0.0,0.0,0.0,0.0,0.0,0.0,0.0,0.0,0.0,0.0,0.0,0.0,0.0,0.0,0.0,0.0,0.0,0.0,0.0,0.0,0.0,0.0,0.0,0.0,0.0,0.0,0.0,0.0,0.0,0.0,0.0,0.0,0.0,0.0,0.0,0.0,0.0,0.0,0.0,0.0,0.0,0.0,0.0,0.0,0.0,0.0,0.0,0.0,0.0,0.0,0.0,0.0,0.0,0.0,0.0,0.0,0.0,0.0,0.0,0.0,0.0,0.0,0.0,0.0,0.0,0.0,0.0,0.0,0.0,0.0,0.0,0.0,0.0,0.0,0.0,0.0,0.0,0.0,0.0,0.0,0.0,0.0,0.0,0.0,0.0,0.0,0.0,-2.683,-2.7148,-2.6838,-2.6538,0.0,0.0,0.0,0.0,0.0,0.0,0.0,0.0,0.0,0.0,0.0,0.0,0.0,0.0,0.0,0.0,0.0,0.0,0.0,0.0,0.0,0.0,0.0,0.0,0.0,0.0,0.0,0.0,0.0,0.0,0.0,0.0,0.0,0.0,0.0,0.0,0.0,0.0,0.0,0.0,0.0,0.0,0.0,0.0,0.0,0.0,0.0,0.0,0.0,0.0,0.0,0.0,0.0,0.0,0.0,0.0,0.0,0.0,0.0,0.0,0.0,0.0,0.0,0.0,0.0,0.0,0.0,0.0,0.0,0.0,0.0,0.0,0.0,0.0,0.0,0.0,0.0,0.0,0.0,0.0,0.0,0.0,0.0,0.0,0.0,0.0,0.0,0.0,0.0,0.0,0.0,0.0,0.0,0.0,0.0,0.0,0.0,0.0,0.0,0.0,0.0,0.0,0.0,0.0,0.0,0.0,0.0,0.0,0.0,0.0,-2.8073,-2.8307,-2.8561,-2.826,-2.7947,-2.7536,0.0,0.0,0.0,0.0,0.0,0.0,0.0,0.0,0.0,0.0,0.0,0.0,0.0,0.0,0.0,0.0,0.0,0.0,0.0,0.0,0.0,0.0,0.0,0.0,0.0,0.0,0.0,0.0,0.0,0.0,0.0,0.0,0.0,0.0,0.0,0.0,0.0,0.0,0.0,0.0,0.0,0.0,0.0,0.0,0.0,0.0,0.0,0.0,0.0,0.0,0.0,0.0,0.0,0.0,0.0,0.0,0.0,0.0,0.0,0.0,0.0,0.0,0.0,0.0,0.0,0.0,0.0,0.0,0.0,0.0,0.0,0.0,0.0,0.0,0.0,0.0,0.0,0.0,0.0,0.0,0.0,0.0,0.0,0.0,0.0,0.0,0.0,0.0,0.0,0.0,0.0,0.0,0.0,0.0,0.0,0.0,0.0,0.0,0.0,0.0,0.0,0.0,0.0,0.0,0.0,0.0,0.0,0.0,-2.921,-2.9227,-2.935,-2.9609,-2.9608,-2.9819,0.0,0.0,0.0,0.0,0.0,0.0,0.0,0.0,0.0,0.0,0.0,0.0,0.0,0.0,0.0,0.0,0.0,0.0,0.0,0.0,0.0,0.0,0.0,0.0,0.0,0.0,0.0,0.0,0.0,0.0,0.0,0.0,0.0,0.0,0.0,0.0,0.0,0.0,0.0,0.0,0.0,0.0,0.0,0.0,0.0,0.0,0.0,0.0,0.0,0.0,0.0,0.0,0.0,0.0,0.0,0.0,0.0,0.0,0.0,0.0,0.0,0.0,0.0,0.0,0.0,0.0,0.0,0.0,0.0,0.0,0.0,0.0,0.0,0.0,0.0,0.0,0.0,0.0,0.0,0.0,0.0,0.0,0.0,0.0,0.0,0.0,0.0,0.0,0.0,0.0,0.0,0.0,0.0,0.0,0.0,0.0,0.0,0.0,0.0,0.0,0.0,0.0,0.0,0.0,0.0,0.0,0.0,0.0,0.0,-3.0683,-3.0883,-3.089,-3.0753,-3.09,-3.095,0.0,0.0,0.0,0.0,0.0,0.0,0.0,0.0,0.0,0.0,0.0,0.0,0.0,0.0,0.0,0.0,0.0,0.0,0.0,0.0,0.0,0.0,0.0,0.0,0.0,0.0,0.0,0.0,0.0,0.0,0.0,0.0,0.0,0.0,0.0,0.0,0.0,0.0,0.0,0.0,0.0,0.0,0.0,0.0,0.0,0.0,0.0,0.0,0.0,0.0,0.0,0.0,0.0,0.0,0.0,0.0,0.0,0.0,0.0,0.0,0.0,0.0,0.0,0.0,0.0,0.0,0.0,0.0,0.0,0.0,0.0,0.0,0.0,0.0,0.0,0.0,0.0,0.0,0.0,0.0,0.0,0.0,0.0,0.0,0.0,0.0,0.0,0.0,0.0,0.0,0.0,0.0,0.0,0.0,0.0,0.0,0.0,0.0,0.0,0.0,0.0,0.0,0.0,0.0,0.0,0.0,0.0,0.0,0.0,-3.2004,0.0,-3.2284,-3.2036,-3.2194,-3.2224,0.0,0.0,0.0,0.0,0.0,0.0,0.0,0.0,0.0,0.0,0.0,0.0,0.0,0.0,0.0,0.0,0.0,0.0,0.0,0.0,0.0,0.0,0.0,0.0,0.0,0.0,0.0,0.0,0.0,0.0,0.0,0.0,0.0,0.0,0.0,0.0,0.0,0.0,0.0,0.0,0.0,0.0,0.0,0.0,0.0,0.0,0.0,0.0,0.0,0.0,0.0,0.0,0.0,0.0,0.0,0.0,0.0,0.0,0.0,0.0,0.0,0.0,0.0,0.0,0.0,0.0,0.0,0.0,0.0,0.0,0.0,0.0,0.0,0.0,0.0,0.0,0.0,0.0,0.0,0.0,0.0,0.0,0.0,0.0,0.0,0.0,0.0,0.0,0.0,0.0,0.0,0.0,0.0,0.0,0.0,0.0,0.0,0.0,0.0,0.0,0.0,0.0,0.0,0.0,0.0,0.0,0.0,0.0,-3.2648,-3.3166,-3.3372,-3.3439,-3.3496,-3.3449,-3.3634,0.0,0.0,0.0,0.0,0.0,0.0,0.0,0.0,0.0,0.0,0.0,0.0,0.0,0.0,0.0,0.0,0.0,0.0,0.0,0.0,0.0,0.0,0.0,0.0,0.0,0.0,0.0,0.0,0.0,0.0,0.0,0.0,0.0,0.0,0.0,0.0,0.0,0.0,0.0,0.0,0.0,0.0,0.0,0.0,0.0,0.0,0.0,0.0,0.0,0.0,0.0,0.0,0.0,0.0,0.0,0.0,0.0,0.0,0.0,0.0,0.0,0.0,0.0,0.0,0.0,0.0,0.0,0.0,0.0,0.0,0.0,0.0,0.0,0.0,0.0,0.0,0.0,0.0,0.0,0.0,0.0,0.0,0.0,0.0,0.0,0.0,0.0,0.0,0.0,0.0,0.0,0.0,0.0,0.0,0.0,0.0,0.0,0.0,0.0,0.0,0.0,0.0,0.0,0.0,0.0,0.0,0.0,0.0,0.0,-3.3433,-3.3469,-3.3625,-3.3884,-3.3876,-3.4062,0.0,0.0,0.0,0.0,0.0,0.0,0.0,0.0,0.0,0.0,0.0,0.0,0.0,0.0,0.0,0.0,0.0,0.0,0.0,0.0,0.0,0.0,0.0,0.0,0.0,0.0,0.0,0.0,0.0,0.0,0.0,0.0,0.0,0.0,0.0,0.0,0.0,0.0,0.0,0.0,0.0,0.0,0.0,0.0,0.0,0.0,0.0,0.0,0.0,0.0,0.0,0.0,0.0,0.0,0.0,0.0,0.0,0.0,0.0,0.0,0.0,0.0,0.0,0.0,0.0,0.0,0.0,0.0,0.0,0.0,0.0,0.0,0.0,0.0,0.0,0.0,0.0,0.0,0.0,0.0,0.0,0.0,0.0,0.0,0.0,0.0,0.0,0.0,0.0,0.0,0.0,0.0,0.0,0.0,0.0,0.0,0.0,0.0,0.0,0.0,0.0,0.0,0.0,0.0,0.0,0.0,0.0,0.0,0.0,-3.508,-3.4722,-3.4657,-3.4895,-3.494,-3.4938,-3.4963,0.0,0.0,0.0,0.0,0.0,0.0,0.0,0.0,0.0,0.0,0.0,0.0,0.0,0.0,0.0,0.0,0.0,0.0,0.0,0.0,0.0,0.0,0.0,0.0,0.0,0.0,0.0,0.0,0.0,0.0,0.0,0.0,0.0,0.0,0.0,0.0,0.0,0.0,0.0,0.0,0.0,0.0,0.0,0.0,0.0,0.0,0.0,0.0,0.0,0.0,0.0,0.0,0.0,0.0,0.0,0.0,0.0,0.0,0.0,0.0,0.0,0.0,0.0,0.0,0.0,0.0,0.0,0.0,0.0,0.0,0.0,0.0,0.0,0.0,0.0,0.0,0.0,0.0,0.0,0.0,0.0,0.0,0.0,0.0,0.0,0.0,0.0,0.0,0.0,0.0,0.0,0.0,0.0,0.0,0.0,0.0,0.0,0.0,0.0,0.0,0.0,0.0,0.0,0.0,0.0,0.0,0.0,0.0,-3.7803,-3.7037,-3.6623,-3.6549,-3.6572,-3.6194,0.0,0.0,0.0,0.0,0.0,0.0,0.0,0.0,0.0,0.0,0.0,0.0,0.0,0.0,0.0,0.0,0.0,0.0,0.0,0.0,0.0,0.0,0.0,0.0,0.0,0.0,0.0,0.0,0.0,0.0,0.0,0.0,0.0,0.0,0.0,0.0,0.0,0.0,0.0,0.0,0.0,0.0,0.0,0.0,0.0,0.0,0.0,0.0,0.0,0.0,0.0,0.0,0.0,0.0,0.0,0.0,0.0,0.0,0.0,0.0,0.0,0.0,0.0,0.0,0.0,0.0,0.0,0.0,0.0,0.0,0.0,0.0,0.0,0.0,0.0,0.0,0.0,0.0,0.0,0.0,0.0,0.0,0.0,0.0,0.0,0.0,0.0,0.0,0.0,0.0,0.0,0.0,0.0,0.0,0.0,0.0,0.0,0.0,0.0,0.0,0.0,0.0,0.0,0.0,0.0,0.0,0.0,0.0,0.0,-3.8937,-4.0052,-4.0227,-3.9339,-3.8108,-3.7423,0.0,0.0,0.0,0.0,0.0,0.0,0.0,0.0,0.0,0.0,0.0,0.0,0.0,0.0,0.0,0.0,0.0,0.0,0.0,0.0,0.0,0.0,0.0,0.0,0.0,0.0,0.0,0.0,0.0,0.0,0.0,0.0,0.0,0.0,0.0,0.0,0.0,0.0,0.0,0.0,0.0,0.0,0.0,0.0,0.0,0.0,0.0,0.0,0.0,0.0,0.0,0.0,0.0,0.0,0.0,0.0,0.0,0.0,0.0,0.0,0.0,0.0,0.0,0.0,0.0,0.0,0.0,0.0,0.0,0.0,0.0,0.0,0.0,0.0,0.0,0.0,0.0,0.0,0.0,0.0,0.0,0.0,0.0,0.0,0.0,0.0,0.0,0.0,0.0,0.0,0.0,0.0,0.0,0.0,0.0,0.0,0.0,0.0,0.0,0.0,0.0,0.0,0.0,0.0,0.0,0.0,0.0,0.0,-3.9421,-4.0046,-4.2549,-4.3563,-4.2851,-4.0101,-3.851,0.0,0.0,0.0,0.0,0.0,0.0,0.0,0.0,0.0,0.0,0.0,0.0,0.0,0.0,0.0,0.0,0.0,0.0,0.0,0.0,0.0,0.0,0.0,0.0,0.0,0.0,0.0,0.0,0.0,0.0,0.0,0.0,0.0,0.0,0.0,0.0,0.0,0.0,0.0,0.0,0.0,0.0,0.0,0.0,0.0,0.0,0.0,0.0,0.0,0.0,0.0,0.0,0.0,0.0,0.0,0.0,0.0,0.0,0.0,0.0,0.0,0.0,0.0,0.0,0.0,0.0,0.0,0.0,0.0,0.0,0.0,0.0,0.0,0.0,0.0,0.0,0.0,0.0,0.0,0.0,0.0,0.0,0.0,0.0,0.0,0.0,0.0,0.0,0.0,0.0,0.0,0.0,0.0,0.0,0.0,0.0,0.0,0.0,0.0,0.0,0.0,0.0,0.0,0.0,0.0,0.0,0.0,0.0,-4.0974,-4.1188,-4.4453,-4.6175,-4.6078,-4.2114,-3.9524,0.0,0.0,0.0,0.0,0.0,0.0,0.0,0.0,0.0,0.0,0.0,0.0,0.0,0.0,0.0,0.0,0.0,0.0,0.0,0.0,0.0,0.0,0.0,0.0,0.0,0.0,0.0,0.0,0.0,0.0,0.0,0.0,0.0,0.0,0.0,0.0,0.0,0.0,0.0,0.0,0.0,0.0,0.0,0.0,0.0,0.0,0.0,0.0,0.0,0.0,0.0,0.0,0.0,0.0,0.0,0.0,0.0,0.0,0.0,0.0,0.0,0.0,0.0,0.0,0.0,0.0,0.0,0.0,0.0,0.0,0.0,0.0,0.0,0.0,0.0,0.0,0.0,0.0,0.0,0.0,0.0,0.0,0.0,0.0,0.0,0.0,0.0,0.0,0.0,0.0,0.0,0.0,0.0,0.0,0.0,0.0,0.0,0.0,0.0,0.0,0.0,0.0,0.0,0.0,0.0,0.0,0.0,0.0,-4.152,-4.2951,-4.502,-4.6123,-4.6104,-4.2648,-4.0664,0.0,0.0,0.0,0.0,0.0,0.0,0.0,0.0,0.0,0.0,0.0,0.0,0.0,0.0,0.0,0.0,0.0,0.0,0.0,0.0,0.0,0.0,0.0,0.0,0.0,0.0,0.0,0.0,0.0,0.0,0.0,0.0,0.0,0.0,0.0,0.0,0.0,0.0,0.0,0.0,0.0,0.0,0.0,0.0,0.0,0.0,0.0,0.0,-3.8584,0.0,0.0,0.0,0.0,0.0,0.0,0.0,0.0,0.0,0.0,0.0,0.0,0.0,0.0,0.0,0.0,0.0,0.0,0.0,0.0,0.0,0.0,0.0,0.0,0.0,0.0,0.0,0.0,0.0,0.0,0.0,0.0,0.0,0.0,0.0,0.0,0.0,0.0,0.0,0.0,0.0,0.0,0.0,0.0,0.0,0.0,0.0,0.0,0.0,0.0,0.0,0.0,0.0,0.0,0.0,0.0,0.0,0.0,0.0,-4.11,-4.2804,-4.4111,-4.4803,-4.4734,-4.2276,-4.0925,0.0,0.0,0.0,0.0,0.0,0.0,0.0,0.0,0.0,0.0,0.0,0.0,0.0,0.0,0.0,0.0,0.0,0.0,0.0,0.0,0.0,0.0,0.0,0.0,0.0,0.0,0.0,0.0,0.0,0.0,0.0,0.0,0.0,0.0,0.0,0.0,0.0,0.0,0.0,0.0,0.0,0.0,0.0,0.0,0.0,0.0,0.0,0.0,0.0,0.0,0.0,0.0,0.0,0.0,0.0,0.0,0.0,0.0,0.0,0.0,0.0,0.0,0.0,0.0,0.0,0.0,0.0,0.0,0.0,0.0,0.0,0.0,0.0,0.0,0.0,0.0,0.0,0.0,0.0,0.0,0.0,0.0,0.0,0.0,0.0,0.0,0.0,0.0,0.0,0.0,0.0,0.0,0.0,0.0,0.0,0.0,0.0,0.0,0.0,0.0,0.0,0.0,0.0,0.0,0.0,0.0,0.0,-3.9207,-4.0451,-4.2199,-4.2937,-4.3303,-4.3347,-4.1803,-4.0976,-4.0941,0.0,0.0,0.0,0.0,0.0,0.0,0.0,0.0,0.0,0.0,0.0,0.0,0.0,0.0,0.0,0.0,0.0,0.0,0.0,0.0,0.0,0.0,0.0,0.0,0.0,0.0,0.0,0.0,0.0,0.0,0.0,0.0,0.0,0.0,0.0,0.0,0.0,0.0,-3.4346,-3.4689,0.0,0.0,0.0,0.0,0.0,0.0,0.0,0.0,-3.9818,0.0,0.0,0.0,0.0,0.0,0.0,0.0,0.0,0.0,0.0,0.0,0.0,0.0,0.0,0.0,0.0,0.0,0.0,0.0,0.0,0.0,0.0,0.0,0.0,0.0,0.0,0.0,0.0,0.0,0.0,0.0,0.0,0.0,0.0,0.0,0.0,0.0,0.0,0.0,0.0,0.0,0.0,0.0,0.0,0.0,0.0,0.0,0.0,0.0,0.0,0.0,0.0,0.0,0.0,0.0,0.0,-3.927,-3.9451,-4.0654,-4.2955,-4.3144,-4.3226,-4.3207,-4.2256,-4.1435,-4.08,0.0,0.0,0.0,0.0,0.0,0.0,0.0,0.0,0.0,0.0,0.0,0.0,0.0,0.0,0.0,0.0,0.0,0.0,0.0,0.0,0.0,0.0,0.0,0.0,0.0,0.0,0.0,0.0,0.0,0.0,0.0,0.0,0.0,0.0,0.0,0.0,0.0,0.0,0.0,-3.5911,-3.5958,0.0,0.0,0.0,0.0,0.0,0.0,0.0,0.0,-4.078,0.0,0.0,0.0,0.0,0.0,0.0,0.0,0.0,0.0,0.0,0.0,0.0,0.0,0.0,0.0,0.0,0.0,0.0,0.0,0.0,0.0,0.0,0.0,0.0,0.0,0.0,0.0,0.0,0.0,0.0,0.0,0.0,0.0,0.0,0.0,0.0,0.0,0.0,0.0,0.0,0.0,0.0,0.0,0.0,0.0,0.0,0.0,0.0,0.0,0.0,0.0,0.0,0.0,0.0,0.0,-3.9225,-3.935,-4.0546,-4.2931,-4.2643,-4.264,-4.3073,-4.2283,-4.1711,0.0,0.0,0.0,0.0,0.0,0.0,0.0,0.0,0.0,0.0,0.0,0.0,0.0,0.0,0.0,0.0,0.0,0.0,0.0,0.0,0.0,0.0,0.0,0.0,0.0,0.0,0.0,0.0,0.0,0.0,0.0,0.0,0.0,0.0,0.0,0.0,0.0,0.0,0.0,0.0,-3.6825,-3.6881,-3.8638,0.0,0.0,0.0,0.0,0.0,0.0,-4.0072,-4.0921,0.0,0.0,0.0,0.0,0.0,0.0,0.0,0.0,0.0,0.0,0.0,0.0,0.0,0.0,0.0,0.0,0.0,0.0,0.0,0.0,0.0,0.0,0.0,0.0,0.0,0.0,0.0,0.0,0.0,0.0,0.0,0.0,0.0,0.0,0.0,0.0,0.0,0.0,0.0,0.0,0.0,0.0,0.0,0.0,0.0,0.0,0.0,0.0,0.0,0.0,0.0,0.0,0.0,0.0,0.0,-3.8904,-3.9292,-4.0468,-4.2524,-4.2143,-4.22,-4.2885,-4.1944,-4.1553,0.0,0.0,0.0,0.0,0.0,0.0,0.0,0.0,0.0,0.0,0.0,0.0,0.0,0.0,0.0,0.0,0.0,0.0,0.0,0.0,0.0,0.0,0.0,0.0,0.0,0.0,0.0,0.0,0.0,0.0,0.0,0.0,0.0,0.0,0.0,0.0,0.0,0.0,0.0,0.0,0.0,-3.7634,-3.9337,-3.8316,0.0,0.0,0.0,0.0,-3.8892,-4.0285,0.0,0.0,0.0,0.0,0.0,0.0,0.0,0.0,0.0,0.0,0.0,0.0,0.0,0.0,0.0,0.0,0.0,0.0,0.0,0.0,0.0,0.0,0.0,0.0,0.0,0.0,0.0,0.0,0.0,0.0,0.0,0.0,0.0,0.0,0.0,0.0,0.0,0.0,0.0,0.0,0.0,0.0,0.0,0.0,0.0,0.0,0.0,0.0,0.0,0.0,0.0,0.0,0.0,0.0,0.0,0.0,-3.8169,-3.9533,-4.076,-4.1815,-4.2219,-4.2481,-4.2619,-4.1054,-4.0635,0.0,0.0,0.0,0.0,0.0,0.0,0.0,0.0,0.0,0.0,0.0,0.0,0.0,0.0,0.0,0.0,0.0,0.0,0.0,0.0,0.0,0.0,0.0,0.0,0.0,0.0,0.0,0.0,0.0,0.0,0.0,0.0,0.0,0.0,0.0,0.0,0.0,0.0,0.0,0.0,0.0,-3.7715,-3.9369,-3.8821,-3.8252,0.0,0.0,-4.0521,-4.0529,-4.1937,0.0,0.0,0.0,0.0,0.0,0.0,0.0,0.0,0.0,0.0,0.0,0.0,0.0,0.0,0.0,0.0,0.0,0.0,0.0,0.0,0.0,0.0,0.0,0.0,0.0,0.0,0.0,0.0,0.0,0.0,0.0,0.0,0.0,0.0,0.0,0.0,0.0,0.0,0.0,0.0,0.0,0.0,0.0,0.0,0.0,0.0,0.0,0.0,0.0,0.0,0.0,0.0,0.0,0.0,0.0,-3.7863,-3.8841,-4.0137,-4.133,-4.245,-4.271,-4.3101,-4.3648,-4.2086,-4.1459,0.0,0.0,0.0,0.0,0.0,0.0,0.0,0.0,0.0,0.0,0.0,0.0,0.0,0.0,0.0,0.0,0.0,0.0,0.0,0.0,0.0,0.0,0.0,0.0,0.0,0.0,0.0,0.0,0.0,0.0,0.0,0.0,0.0,0.0,0.0,0.0,0.0,0.0,0.0,0.0,0.0,0.0,-3.9452,-3.928,0.0,0.0,0.0,-4.0684,-4.0684,0.0,0.0,0.0,0.0,0.0,0.0,0.0,0.0,0.0,0.0,0.0,0.0,0.0,0.0,0.0,0.0,0.0,0.0,0.0,0.0,0.0,0.0,0.0,0.0,0.0,0.0,0.0,0.0,0.0,0.0,0.0,0.0,0.0,0.0,0.0,0.0,0.0,0.0,0.0,0.0,0.0,0.0,0.0,0.0,0.0,0.0,0.0,0.0,0.0,0.0,0.0,0.0,0.0,0.0,0.0,0.0,0.0,-3.9453,-4.0844,-4.2077,-4.3052,-4.3222,-4.3681,-4.4327,-4.3047,0.0,0.0,0.0,0.0,0.0,0.0,0.0,0.0,0.0,0.0,0.0,0.0,0.0,0.0,0.0,0.0,0.0,0.0,0.0,0.0,0.0,0.0,0.0,0.0,0.0,0.0,0.0,-3.81,0.0,0.0,0.0,0.0,0.0,0.0,0.0,0.0,0.0,0.0,0.0,0.0,0.0,0.0,-3.8953,-3.9752,-3.9995,-4.0389,0.0,0.0,-4.1292,-4.1523,-4.2815,-4.3466,0.0,0.0,0.0,0.0,0.0,0.0,0.0,0.0,0.0,0.0,0.0,0.0,0.0,0.0,0.0,0.0,0.0,0.0,0.0,0.0,0.0,0.0,0.0,0.0,0.0,0.0,0.0,0.0,0.0,0.0,0.0,0.0,0.0,0.0,0.0,0.0,0.0,0.0,0.0,0.0,0.0,0.0,0.0,0.0,0.0,0.0,0.0,0.0,0.0,0.0,0.0,0.0,0.0,0.0,-3.8609,-3.9352,-4.1725,-4.2958,-4.3007,-4.3636,-4.3992,-4.4102,-4.3303,-4.265,0.0,0.0,0.0,0.0,0.0,0.0,0.0,0.0,0.0,0.0,0.0,0.0,0.0,0.0,0.0,0.0,0.0,0.0,0.0,0.0,0.0,0.0,0.0,0.0,0.0,0.0,0.0,0.0,0.0,0.0,0.0,0.0,0.0,0.0,0.0,0.0,0.0,0.0,0.0,0.0,0.0,-3.9708,-4.0428,-4.1219,-4.2049,0.0,-4.2988,-4.3208,-4.4017,-4.4884,-4.4977,-4.3285,0.0,0.0,0.0,0.0,0.0,0.0,0.0,0.0,0.0,0.0,0.0,0.0,0.0,0.0,0.0,0.0,0.0,0.0,0.0,0.0,0.0,0.0,0.0,0.0,0.0,0.0,0.0,0.0,0.0,0.0,0.0,0.0,0.0,0.0,0.0,0.0,0.0,0.0,0.0,0.0,0.0,0.0,0.0,0.0,0.0,0.0,0.0,0.0,0.0,0.0,0.0,0.0,0.0,-3.8854,-4.0215,-4.1872,-4.2897,-4.3232,-4.355,-4.3697,-4.373,-4.3013,-4.2411,0.0,0.0,0.0,0.0,0.0,0.0,0.0,0.0,0.0,0.0,0.0,0.0,0.0,0.0,0.0,0.0,0.0,0.0,0.0,0.0,0.0,0.0,0.0,0.0,0.0,0.0,0.0,0.0,-3.9945,-3.9447,-3.8096,0.0,0.0,0.0,0.0,0.0,0.0,0.0,0.0,0.0,0.0,-4.0588,-4.175,-4.2332,0.0,0.0,-4.3745,-4.3756,-4.3568,-4.4259,-4.4273,-4.2579,-4.236,0.0,0.0,0.0,0.0,0.0,0.0,0.0,0.0,0.0,0.0,0.0,0.0,0.0,0.0,0.0,0.0,0.0,0.0,0.0,0.0,0.0,0.0,0.0,0.0,0.0,0.0,0.0,0.0,0.0,0.0,0.0,0.0,0.0,0.0,0.0,0.0,0.0,0.0,0.0,0.0,0.0,0.0,0.0,0.0,0.0,0.0,0.0,0.0,0.0,0.0,0.0,0.0,-3.9264,-4.0763,-4.2056,-4.2941,-4.3322,-4.3446,-4.3497,-4.3461,-4.3158,-4.2735,0.0,0.0,0.0,0.0,0.0,0.0,0.0,0.0,0.0,0.0,0.0,0.0,0.0,0.0,0.0,0.0,0.0,0.0,0.0,0.0,0.0,0.0,0.0,0.0,0.0,0.0,0.0,0.0,-4.0952,-4.0385,-3.9445,0.0,0.0,0.0,0.0,0.0,0.0,0.0,0.0,0.0,0.0,-4.1694,-4.264,-4.2886,-4.3079,-4.3418,-4.3368,-4.314,-4.2795,-4.3312,-4.3385,-4.2215,0.0,0.0,0.0,0.0,0.0,0.0,0.0,0.0,0.0,0.0,0.0,0.0,0.0,0.0,0.0,0.0,0.0,0.0,0.0,0.0,0.0,0.0,0.0,0.0,0.0,0.0,0.0,0.0,0.0,0.0,-3.7182,0.0,0.0,0.0,0.0,0.0,0.0,0.0,0.0,0.0,0.0,0.0,0.0,0.0,0.0,0.0,0.0,0.0,0.0,0.0,0.0,0.0,0.0,-3.9932,-4.0703,-4.2323,-4.3178,-4.3214,-4.3322,-4.3446,-4.3513,-4.3899,-4.3877,-4.329,0.0,0.0,0.0,0.0,0.0,0.0,0.0,0.0,0.0,0.0,0.0,0.0,0.0,0.0,0.0,0.0,0.0,0.0,0.0,0.0,0.0,0.0,0.0,0.0,0.0,0.0,-3.8905,-3.9451,-4.0229,0.0,0.0,0.0,0.0,0.0,0.0,0.0,0.0,0.0,0.0,-4.2013,-4.3006,-4.2996,-4.2776,-4.2619,-4.2595,-4.1696,-4.1274,-4.2054,-4.2389,-4.254,0.0,0.0,0.0,0.0,0.0,0.0,0.0,0.0,0.0,0.0,0.0,0.0,0.0,0.0,0.0,0.0,0.0,0.0,0.0,0.0,0.0,0.0,0.0,0.0,0.0,0.0,0.0,-3.6101,-3.6363,0.0,0.0,0.0,0.0,0.0,0.0,0.0,0.0,0.0,0.0,0.0,-3.6252,-3.62,0.0,0.0,0.0,0.0,0.0,0.0,0.0,0.0,0.0,0.0,0.0,0.0,-3.9878,-4.0596,-4.2286,-4.3214,-4.3214,-4.3393,-4.3463,-4.3497,-4.3968,-4.4044,-4.3688,0.0,0.0,0.0,0.0,0.0,0.0,0.0,0.0,0.0,0.0,0.0,0.0,0.0,0.0,0.0,0.0,0.0,0.0,0.0,0.0,0.0,0.0,0.0,0.0,0.0,-4.1192,0.0,0.0,0.0,0.0,0.0,0.0,0.0,0.0,0.0,0.0,0.0,-4.0803,-4.2027,-4.2184,-4.229,-4.2622,-4.2579,-4.2688,0.0,0.0,0.0,0.0,0.0,0.0,0.0,0.0,0.0,0.0,0.0,0.0,0.0,0.0,-4.2165,-4.1638,-4.2067,-4.2557,-4.2577,0.0,0.0,0.0,0.0,0.0,0.0,0.0,0.0,0.0,0.0,0.0,0.0,0.0,0.0,-3.5238,0.0,-3.5872,0.0,0.0,0.0,0.0,0.0,0.0,0.0,0.0,-3.586,-3.6223,-3.6622,-3.6564,-3.6486,0.0,-3.6182,-3.564,0.0,0.0,0.0,0.0,0.0,0.0,0.0,0.0,-4.0058,-4.0578,-4.2249,-4.3178,-4.3196,-4.3358,-4.3463,-4.3513,-4.4023,-4.4386,-4.446,-4.3751,-4.3131,0.0,0.0,0.0,0.0,0.0,0.0,0.0,0.0,0.0,0.0,0.0,0.0,0.0,0.0,0.0,0.0,0.0,0.0,0.0,0.0,0.0,0.0,0.0,-4.2304,0.0,0.0,0.0,0.0,0.0,0.0,0.0,0.0,0.0,-4.1183,-4.1403,-4.1919,-4.2879,-4.2768,-4.2487,-4.2218,0.0,0.0,0.0,0.0,0.0,0.0,0.0,-4.1437,-4.1226,-4.1527,-4.1999,-4.2569,-4.2912,-4.3085,-4.3085,0.0,0.0,-4.2468,-4.2869,-4.3318,-4.3397,-4.3454,-4.3548,-4.3661,-4.3704,-4.3704,0.0,0.0,0.0,0.0,0.0,0.0,0.0,0.0,-3.3474,-3.3396,0.0,-3.4059,0.0,0.0,0.0,0.0,0.0,-3.5545,0.0,0.0,-3.7214,-3.751,-3.6841,-3.6708,-3.6624,-3.657,-3.5888,-3.5692,-3.6024,-3.6127,0.0,0.0,0.0,0.0,0.0,0.0,-4.051,-4.0614,-4.2248,-4.3123,-4.3214,-4.3359,-4.3446,-4.3582,-4.4223,-4.49,-4.551,-4.4778,-4.435,-4.4373,-4.2868,0.0,0.0,0.0,0.0,0.0,0.0,0.0,0.0,0.0,0.0,0.0,0.0,0.0,0.0,0.0,0.0,0.0,0.0,0.0,0.0,-4.241,0.0,0.0,0.0,0.0,0.0,0.0,0.0,0.0,0.0,0.0,-4.1951,-4.2491,-4.2958,-4.294,0.0,0.0,0.0,0.0,-4.1876,-4.0314,-3.9788,-3.9658,-3.972,-4.0556,-4.1494,-4.2335,0.0,0.0,-4.4261,-4.3682,-4.3239,-4.3201,-4.3855,-4.4083,-4.3343,-4.3366,-4.3478,-4.3549,-4.3646,-4.3643,-4.3771,-4.3977,-4.3918,-2.9186,0.0,0.0,0.0,0.0,-3.2159,-3.2901,-3.3701,-3.3885,-3.4013,-3.4133,-3.4599,0.0,0.0,0.0,0.0,0.0,0.0,-3.5226,-3.6006,-3.6111,-3.6482,-3.7094,-3.7327,-3.7274,-3.6874,-3.7023,-3.7091,-3.7075,-3.7178,-3.6805,-3.5945,0.0,0.0,0.0,0.0,-4.08,-4.1393,-4.2577,-4.3178,-4.3214,-4.3393,-4.3744,-4.428,-4.4682,-4.5118,-4.5586,-4.5355,-4.4968,-4.4421,-4.3933,0.0,0.0,0.0,0.0,0.0,0.0,0.0,0.0,0.0,0.0,0.0,0.0,0.0,0.0,0.0,0.0,0.0,0.0,0.0,-4.2264,-4.2908,-4.2927,0.0,0.0,0.0,0.0,0.0,0.0,0.0,0.0,0.0,-4.264,-4.2325,-4.2117,0.0,0.0,-4.1226,-4.0749,-4.1144,-4.1611,-4.193,-4.174,0.0,0.0,-4.25,-4.2409,-4.2659,-4.358,-4.4285,-4.4299,-4.4605,-4.4874,-4.4855,-4.5066,-4.5141,-4.4966,-4.4997,-4.508,-4.519,-4.5285,-4.5397,-4.5508,-4.5558,-4.5519,-2.9342,-2.9719,-3.0416,-3.1155,-3.1869,-3.2667,-3.3449,-3.422,-3.4392,-3.4425,-3.4442,-3.488,-3.4709,-3.4034,-3.4289,0.0,0.0,0.0,-3.5294,-3.6295,-3.5871,-3.6133,-3.6865,-3.7058,-3.7058,-3.6921,-3.7228,-3.7523,-3.7667,-3.7238,-3.7129,-3.7196,0.0,0.0,-3.9108,-4.0362,-4.1215,-4.1701,-4.2686,-4.3214,-4.3214,-4.3511,-4.3974,-4.458,-4.4896,-4.5222,-4.5586,-4.5586,-4.5372,-4.4941,-4.4572,-4.3964,0.0,0.0,0.0,0.0,0.0,0.0,0.0,0.0,0.0,0.0,0.0,-4.1996,-4.1461,0.0,0.0,0.0,-4.2821,-4.2786,-4.2748,-4.3002,0.0,0.0,0.0,0.0,0.0,0.0,0.0,-4.0892,-4.209,-4.2986,-4.2869,-4.248,-4.2288,-4.2546,-4.2106,-4.1667,-4.1342,0.0,-4.2402,-4.2736,-4.2654,-4.2802,-4.3423,-4.3386,-4.3406,-4.3771,-4.4307,-4.4746,-4.4836,-4.5259,-4.5566,-4.5586,-4.5586,-4.5586,-4.5586,-4.5723,-4.5847,-4.5889,-4.6024,-4.6118,-4.6273,-4.63,-4.63,-2.9803,-3.0133,-3.0298,-3.114,-3.2403,-3.3129,-3.397,-3.4835,-3.4899,-3.4675,-3.4325,-3.5006,-3.4756,-3.3864,-3.4048,0.0,-3.5214,-3.5324,-3.5804,-3.6516,-3.6232,-3.619,-3.6308,-3.6182,-3.6308,-3.6719,-3.6776,-3.7129,-3.7739,-3.6718,-3.7184,-3.9048,-3.9244,-3.9708,-4.0498,-4.1252,-4.1631,-4.1719,-4.2632,-4.3123,-4.3251,-4.3754,-4.4204,-4.458,-4.4943,-4.5263,-4.5586,-4.5586,-4.564,-4.5654,-4.4922,-4.4511,-4.4452,0.0,0.0,0.0,0.0,0.0,0.0,0.0,0.0,0.0,0.0,0.0,0.0,0.0,0.0,0.0,-4.3711,0.0,-4.3663,-4.2969,0.0,0.0,0.0,-4.2525,-4.314,-4.3235,-4.3226,-4.3015,0.0,0.0,-4.291,-4.2891,-4.3234,-4.4077,-4.4037,-4.3654,-4.2908,-4.3424,-4.3749,-4.3042,-4.2985,-4.3023,-4.3252,-4.3711,-4.4382,-4.5093,-4.54,-4.5419,-4.551,-4.5566,-4.5586,-4.5586,-4.5586,-4.5586,-4.5586,-4.5756,-4.5899,-4.5899,-4.6013,-4.615,-4.6273,-4.63,-4.63,-2.9803,-3.0144,-3.0602,-3.1455,-3.2462,-3.3101,-3.384,-3.4578,-3.4691,-3.48,-3.4901,-3.5068,-3.5073,-3.4919,-3.4947,-3.5093,-3.5262,-3.5307,-3.5497,-3.5773,-3.5684,-3.5684,-3.5728,-3.5985,-3.6097,-3.6122,-3.6498,-3.69,-3.7339,-3.7086,-3.7415,-3.8254,-3.8307,-3.9045,-4.0454,-4.0673,-4.1126,-4.1832,-4.214,-4.2647,-4.3426,-4.4046,-4.4465,-4.458,-4.5118,-4.5476,-4.5586,-4.5586,-4.5603,-4.5622,-4.5464,-4.5093,-4.4446,-4.3453,0.0,0.0,0.0,0.0,0.0,0.0,0.0,0.0,0.0,-4.1826,-4.1175,0.0,-4.2241,0.0,-4.3737,-4.4479,-4.4311,-4.4172,0.0,0.0,-4.3123,-4.3018,-4.3198,-4.3701,-4.3761,-4.302,-4.3445,-4.379,-4.3731,-4.3711,-4.4036,-4.4859,-4.3883,-4.3004,-4.2832,-4.3482,-4.392,-4.3825,-4.4246,-4.4685,-4.4666,-4.4898,-4.513,-4.5362,-4.5438,-4.5495,-4.5586,-4.5586,-4.5586,-4.5586,-4.5586,-4.5586,-4.5586,-4.5769,-4.5889,-4.591,-4.6072,-4.6269,-4.63,-4.63,-4.63,-2.9981,-3.0036,-3.0433,-3.1058,-3.1921,-3.2864,-3.3614,-3.4102,-3.448,-3.4739,-3.4994,-3.4994,-3.5041,-3.5152,-3.5198,-3.5198,-3.5198,-3.5291,-3.5337,-3.54,-3.5337,-3.5337,-3.5429,-3.556,-3.5722,-3.5881,-3.6122,-3.6539,-3.7055,-3.7055,-3.7554,-3.8473,-3.8473,-3.8993,-3.9964,-4.002,-4.0273,-4.081,-4.1681,-4.2603,-4.3697,-4.427,-4.4436,-4.4208,-4.4708,-4.4818,-4.4509,-4.447,-4.4489,-4.4489,-4.4523,-4.4325,-4.3886,-4.3072,-4.2425,0.0,0.0,0.0,0.0,0.0,0.0,0.0,0.0,0.0,0.0,0.0,-4.2653,-4.2595,-4.3896,-4.4544,-4.4008,-4.4032,-4.3998,-4.3836,-4.379,-4.3871,-4.422,-4.4591,-4.4612,-4.4077,-4.4423,-4.4651,-4.459,-4.459,-4.4743,-4.5239,-4.4494,-4.3902,-4.3921,-4.4303,-4.459,-4.459,-4.4991,-4.5298,-4.5338,-4.5359,-4.5419,-4.5438,-4.5476,-4.5513,-4.5586,-4.5586,-4.5586,-4.5586,-4.5586,-4.5586,-4.5603,-4.5769,-4.5899,-4.5949,-4.6125,-4.6277,-4.63,-4.63,-4.63,-3.0341,-2.9936,-3.0102,-3.0534,-3.116,-3.2431,-3.313,-3.3479,-3.4102,-3.4594,-3.4899,-3.4899,-3.4899,-3.4899,-3.5041,-3.5088,-3.5105,-3.5198,-3.5245,-3.5245,-3.5152,-3.5135,-3.5245,-3.5152,-3.535,-3.5766,-3.5766,-3.6156,-3.6821,-3.6843,-3.7488,-3.8653,-3.8762,-3.8832,-3.8925,-3.9039,-3.9197,-3.9388,-4.1052,-4.2426,-4.346,-4.3886,-4.3894,-4.3422,-4.3867,-4.3835,-4.3124,-4.3085,-4.3085,-4.3085,-4.3085,-4.3192,-4.3327,-4.2536,-4.214,0.0,-4.1583,0.0,0.0,0.0,0.0,0.0,0.0,0.0,0.0,-4.3382,-4.3374,-4.3352,-4.4137,-4.4388,-4.367,-4.3605,-4.3869,-4.4549,-4.4583,-4.4831,-4.5507,-4.5531,-4.5457,-4.5419,-4.54,-4.5359,-4.5298,-4.5277,-4.5277,-4.5277,-4.522,-4.5201,-4.5392,-4.5297,-4.5258,-4.5411,-4.5545,-4.5853,-4.5838,-4.5705,-4.5649,-4.5668,-4.559,-4.555,-4.5586,-4.5586,-4.5586,-4.5586,-4.5586,-4.5586,-4.5586,-4.5769,-4.5899,-4.591,-4.6105,-4.63,-4.63,-4.63,-4.63,-3.1053,-3.0602,-3.0665,-3.0616,-3.0553,-3.1261,-3.1987,-3.2741,-3.3427,-3.4185,-3.4899,-3.4899,-3.4899,-3.4899,-3.4947,-3.4947,-3.4947,-3.4947,-3.5041,-3.5135,-3.5105,-3.5105,-3.5135,-3.5105,-3.5304,-3.5633,-3.5633,-3.5864,-3.634,-3.6724,-3.6749,-3.6535,-3.6934,-3.6886,-3.6381,0.0,0.0,0.0,-3.9749,-4.0464,-4.0751,-4.1319,-4.1558,-4.1537,-4.2699,0.0,-4.3104,-4.3085,-4.3085,-4.3085,-4.3099,0.0,0.0,0.0,0.0,0.0,0.0,0.0,0.0,0.0,0.0,0.0,-4.3007,-4.3051,-4.3225,-4.3241,-4.3501,-4.4106,-4.4353,-4.4681,-4.5205,-4.5247,-4.5291,-4.5374,-4.5391,-4.543,-4.5586,-4.5495,-4.5419,-4.54,-4.536,-4.5317,-4.5297,-4.5277,-4.5277,-4.5277,-4.5297,-4.5564,-4.6175,-4.5717,-4.5564,-4.6156,-4.6787,-4.7286,-4.7427,-4.6875,-4.6474,-4.6455,-4.5973,-4.5682,-4.5682,-4.5663,-4.5624,-4.5624,-4.5586,-4.5605,-4.5603,-4.5769,-4.5899,-4.5899,-4.6105,-4.63,-4.63,-4.63,-4.63,-3.165,0.0,-3.0913,-3.0728,0.0,-3.0744,-3.1043,-3.1664,-3.2939,-3.3986,-3.4804,-3.4804,-3.4851,-3.4899,-3.4899,-3.4899,-3.4899,-3.4899,-3.4963,-3.4994,-3.5011,-3.4994,-3.4994,-3.4994,-3.5088,-3.5241,-3.5241,-3.5571,-3.6172,-3.6522,-3.6728,-3.6916,-3.7182,-3.719,-3.6892,-3.7421,-3.814,-3.8976,-3.9743,-4.0396,-4.097,-4.1437,-4.1573,-4.1397,0.0,0.0,0.0,0.0,0.0,0.0,0.0,0.0,0.0,0.0,0.0,-4.3904,-4.3556,-4.3498,-4.3904,-4.391,-4.4084,-4.4504,-4.4481,-4.4264,-4.3809,-4.418,-4.4592,-4.498,-4.4999,-4.5192,-4.5599,-4.564,-4.564,-4.5603,-4.5586,-4.5586,-4.5531,-4.5476,-4.5419,-4.54,-4.5359,-4.5277,-4.5277,-4.5277,-4.5277,-4.5297,-4.5317,-4.5644,-4.6352,-4.6178,-4.6214,-4.704,-4.7518,-4.7886,-4.7949,-4.7721,-4.7396,-4.7357,-4.7087,-4.6874,-4.6836,-4.6836,-4.6721,-4.6374,-4.624,-4.6144,-4.5697,-4.5769,-4.5899,-4.592,-4.6105,-4.628,-4.63,-4.63,-4.63,-3.2078,-3.1457,-3.1104,-3.0878,-3.0763,-3.0434,-3.0433,-3.0851,0.0,0.0,0.0,-3.4643,-3.4739,-3.4899,-3.4899,-3.4899,-3.4899,-3.4899,-3.4899,-3.4899,-3.4899,-3.4899,-3.4899,-3.4899,-3.4899,-3.4947,-3.4947,-3.5345,-3.613,-3.634,-3.6882,-3.7721,-3.7915,-3.8088,-3.8225,-3.835,-3.8729,-3.9374,-3.9711,-4.0327,-4.1261,-4.1654,-4.1627,-4.1219,-4.2148,-4.2297,-4.1623,-4.2393,-4.2874,-4.2909,-4.3025,-4.3208,-4.3419,-4.3453,-4.354,-4.375,-4.373,-4.4059,-4.4755,-4.4813,-4.5084,-4.5722,-4.5727,-4.5375,-4.4669,-4.5269,-4.5673,-4.5693,-4.564,-4.5586,-4.5586,-4.5586,-4.5586,-4.5586,-4.5586,-4.5568,-4.5495,-4.5438,-4.5419,-4.5399,-4.5357,-4.5277,-4.5277,-4.5277,-4.5277,-4.5316,-4.551,-4.6031,-4.6816,-4.7099,-4.7329,-4.7984,-4.8367,-4.8485,-4.8509,-4.8394,-4.8318,-4.8298,-4.8163,-4.8105,-4.8105,-4.8105,-4.7836,-4.7221,-4.7124,-4.6759,-4.6065,-4.6046,-4.6064,-4.5938,-4.6105,-4.63,-4.63,-4.6436,-4.6495,-3.2222,-3.1485,-3.1453,-3.0841,-2.995,-3.0078,-3.0568,-3.1422,-3.2266,-3.3114,-3.3953,-3.4464,-3.4804,-3.4899,-3.4899,-3.4899,-3.4899,-3.4899,-3.4899,0.0,-3.4899,-3.4899,-3.4899,-3.4899,-3.4947,-3.5058,-3.5088,-3.5379,-3.5933,-3.6357,-3.6821,-3.7321,-3.7739,-3.8104,-3.8289,-3.8355,-3.8504,-3.8629,-3.8385,-3.835,-3.8568,-3.906,-3.9338,-3.9409,-4.0386,-4.0816,-4.0681,-4.1546,-4.2005,-4.2075,-4.2776,-4.3535,-4.4274,-4.438,-4.4703,-4.5374,-4.5452,-4.549,-4.5606,-4.5626,-4.5664,-4.5703,-4.5708,-4.561,-4.5466,-4.5545,-4.5622,-4.5603,-4.5603,-4.5586,-4.5586,-4.5586,-4.5586,-4.5586,-4.555,-4.5513,-4.5495,-4.5438,-4.5399,-4.5379,-4.5338,-4.5277,-4.5277,-4.5277,-4.5297,-4.5432,-4.5971,-4.6988,-4.8295,-4.8851,-4.885,-4.9081,-4.9676,-5.0099,-4.9987,-4.9585,-4.9221,-4.9202,-4.8644,-4.8317,-4.8336,-4.8317,-4.8221,-4.7971,-4.7952,-4.7625,-4.6874,-4.6897,-4.6721,-4.6221,-4.6222,-4.6378,-4.6417,-4.6924,-4.7178,-3.2417,-3.1977,-3.1626,-3.1081,-3.0304,-3.024,-3.0433,-3.0955,-3.1962,-3.2917,-3.3735,-3.4317,-3.4691,-3.4899,-3.4899,-3.4899,-3.4899,-3.4899,-3.4899,-3.4899,-3.4899,-3.4947,-3.4994,-3.4994,-3.5088,-3.5198,-3.5198,-3.556,-3.6249,-3.6522,-3.6981,-3.7614,-3.7985,-3.8207,-3.8336,-3.8436,-3.8493,-3.8652,-3.8747,-3.8807,-3.8855,-3.9433,-3.9768,-3.9835,-4.0726,-4.1235,-4.1251,-4.2059,-4.273,-4.3239,-4.362,-4.4249,-4.5124,-4.5235,-4.5438,-4.578,-4.58,-4.58,-4.58,-4.58,-4.5747,-4.5699,-4.5692,-4.5668,-4.5603,-4.5586,-4.5586,-4.5586,-4.5586,-4.5586,-4.5586,-4.5586,-4.5586,-4.5586,-4.5568,-4.5513,-4.5457,-4.5419,-4.538,-4.5359,-4.5337,-4.5277,-4.5277,-4.5277,-4.5317,-4.5434,-4.6472,-4.7894,-4.9124,-4.972,-4.9988,-5.0026,-5.0293,-5.0525,-5.0624,-5.0355,-5.0106,-5.0087,-4.9779,-4.9548,-4.951,-4.949,-4.9279,-4.8913,-4.8817,-4.8471,-4.7721,-4.7748,-4.7478,-4.6881,-4.6807,-4.6975,-4.71,-4.7666,-4.8037,-3.2221,-3.1996,-3.1461,-3.1039,-3.0608,-3.0358,-3.0266,-3.0493,-3.1652,-3.2625,-3.3427,-3.4168,-3.4659,-3.4899,-3.4899,-3.4899,-3.4899,-3.4899,-3.4899,-3.4899,-3.4899,-3.4994,-3.5105,-3.5088,-3.5182,-3.5337,-3.5429,-3.5915,-3.662,-3.6803,-3.7303,-3.7984,-3.8228,-3.8361,-3.8415,-3.8499,-3.864,-3.8833,-3.9305,-3.958,-3.9631,-4.0193,-4.0499,-4.0546,-4.1123,-4.1543,-4.1647,-4.2379,-4.3146,-4.3829,-4.4214,-4.4785,-4.5486,-4.5699,-4.581,-4.58,-4.58,-4.58,-4.58,-4.58,-4.5766,-4.5708,-4.5677,-4.5668,-4.5603,-4.5586,-4.5586,-4.5586,-4.5586,-4.5586,-4.5586,-4.5586,-4.5586,-4.5586,-4.5586,-4.555,-4.5438,-4.5419,-4.5381,-4.5339,-4.5319,-4.5319,-4.5319,-4.5319,-4.5435,-4.5917,-4.7127,-4.8375,-4.9279,-5.0144,-5.0625,-5.0643,-5.0623,-5.0643,-5.0683,-5.0664,-5.0644,-5.0683,-5.0644,-5.0529,-5.0548,-5.0625,-5.0471,-4.9817,-4.9683,-4.9355,-4.8659,-4.8629,-4.8413,-4.7767,-4.7723,-4.7936,-4.8213,-4.8662,-4.9072,-3.1198,-3.1003,-3.0751,-3.0453,-3.0178,-3.014,-3.0294,-3.0628,-3.1321,-3.2018,-3.2902,-3.4002,-3.4643,-3.4899,-3.4899,-3.4899,-3.4899,-3.4899,-3.4899,-3.4899,-3.4899,-3.4947,-3.5105,-3.5088,-3.5245,-3.5492,-3.5827,-3.6249,-3.686,-3.7246,-3.7703,-3.8241,-3.8313,-3.8394,-3.8491,-3.8633,-3.8722,-3.8803,-3.9365,-3.9679,-3.9712,-4.0233,-4.0499,-4.0489,-4.0566,-4.0639,-4.08,-4.1532,-4.2063,-4.2309,-4.368,-4.4525,-4.4761,-4.5394,-4.58,-4.578,-4.58,-4.58,-4.58,-4.58,-4.5766,-4.5708,-4.5696,-4.5668,-4.5603,-4.5586,-4.5586,-4.5586,-4.5586,-4.5586,-4.5586,-4.5586,-4.5586,-4.5586,-4.555,-4.5495,-4.5495,-4.5438,-4.54,-4.54,-4.54,-4.5381,-4.54,-4.5381,-4.5726,-4.6436,-4.73,-4.826,-4.9125,-4.999,-5.0548,-5.0606,-5.0683,-5.0683,-5.0683,-5.0683,-5.0683,-5.0683,-5.0683,-5.0683,-5.0683,-5.0683,-5.0606,-5.0433,-5.0491,-5.0162,-4.976,-4.955,-4.9399,-4.8768,-4.8665,-4.8915,-4.9599,-4.9911,-4.9969,-3.069,-3.0342,-3.0238,-3.0087,-2.9941,-3.005,-3.0219,-3.0493,-3.1306,-3.2043,-3.2795,-3.3681,-3.4399,-3.4899,-3.4899,-3.4899,-3.4899,-3.4899,-3.4899,-3.4899,-3.4899,-3.4994,-3.5198,-3.5245,-3.5321,-3.5549,-3.5739,-3.6165,-3.69,-3.7632,-3.8086,-3.8354,-3.8409,-3.8474,-3.859,-3.87,-3.8818,-3.8921,-3.9436,-3.9717,-3.9816,-4.0232,-4.0527,-4.0539,-4.0573,-4.0569,-4.0665,-4.1026,-4.1445,-4.1983,-4.2659,-4.3272,-4.3827,-4.462,-4.5084,-4.5104,-4.5548,-4.58,-4.58,-4.58,-4.5786,-4.5761,-4.5731,-4.5684,-4.5657,-4.5603,-4.5586,-4.5586,-4.5586,-4.5586,-4.5586,-4.5586,-4.5586,-4.5586,-4.5568,-4.555,-4.5495,-4.5476,-4.5438,-4.5419,-4.54,-4.54,-4.5419,-4.5438,-4.586,-4.6608,-4.7184,-4.7741,-4.8509,-4.9375,-4.9856,-4.999,-5.0337,-5.0664,-5.0683,-5.0683,-5.0683,-5.0683,-5.0683,-5.0683,-5.0702,-5.0702,-5.0683,-5.0683,-5.074,-5.07,-5.0426,-5.0424,-5.0355,-4.9761,-4.951,-4.9696,-5.0028,-5.0496,-5.0789,-3.0119,-2.9959,-2.9947,-2.9933,-2.9913,-3.0097,-3.028,-3.0433,-3.1131,-3.1834,-3.2509,-3.3319,-3.4034,-3.4643,-3.4851,-3.4899,-3.4899,-3.4899,-3.4899,-3.4947,-3.4947,-3.5105,-3.5354,-3.5337,-3.5475,-3.5577,-3.5756,-3.6284,-3.7132,-3.7897,-3.8387,-3.8415,-3.8469,-3.8569,-3.8707,-3.8778,-3.8894,-3.9026,-3.9462,-3.9764,-3.988,-4.0285,-4.0539,-4.0588,-4.0603,-4.0631,-4.072,-4.072,-4.0984,-4.1641,-4.1874,-4.228,-4.2918,-4.3769,-4.4349,-4.4626,-4.5355,-4.58,-4.58,-4.58,-4.5805,-4.5815,-4.575,-4.5719,-4.5706,-4.5657,-4.564,-4.564,-4.5603,-4.5586,-4.5586,-4.5586,-4.5586,-4.5586,-4.5586,-4.5568,-4.5531,-4.5532,-4.5532,-4.5476,-4.5476,-4.5438,-4.5457,-4.5514,-4.5782,-4.63,-4.6722,-4.7048,-4.7721,-4.8471,-4.9048,-4.9086,-4.9625,-5.0144,-5.0548,-5.0683,-5.0702,-5.0721,-5.074,-5.0721,-5.074,-5.072,-5.072,-5.0739,-5.0794,-5.0844,-5.0809,-5.0926,-5.1033,-5.0616,-5.0394,-5.0409,-5.0565,-5.105,-5.1285,-2.9174,-2.9859,-2.9841,-2.9879,-3.0111,-3.0205,-3.0387,-3.0568,-3.0821,-3.1248,-3.2043,-3.2703,-3.3423,-3.4201,-3.4643,-3.4899,-3.4899,-3.4899,-3.4947,-3.5058,-3.5088,-3.5245,-3.5492,-3.5492,-3.552,-3.565,-3.6002,-3.6638,-3.7577,-3.8119,-3.8415,-3.8478,-3.8501,-3.8588,-3.8775,-3.8876,-3.8906,-3.9054,-3.9495,-3.9815,-3.996,-4.0336,-4.0588,-4.0603,-4.0593,-4.064,-4.07,-4.072,-4.0771,-4.0848,-4.1564,-4.2009,-4.2125,-4.2879,-4.3697,-4.449,-4.5316,-4.578,-4.5761,-4.578,-4.5805,-4.5815,-4.5781,-4.5765,-4.5719,-4.5706,-4.5673,-4.5673,-4.564,-4.5622,-4.5586,-4.5586,-4.5586,-4.5586,-4.5586,-4.5586,-4.5586,-4.5586,-4.5586,-4.5586,-4.5568,-4.5568,-4.5605,-4.5586,-4.5605,-4.5855,-4.6394,-4.6894,-4.699,-4.7644,-4.8105,-4.8256,-4.8467,-4.889,-5.0258,-5.0316,-5.045,-5.041,-5.0217,-5.0621,-5.0773,-5.0812,-5.0754,-5.0793,-5.087,-5.0955,-5.1067,-5.1169,-5.1211,-5.1099,-5.1105,-5.1144,-5.1008,-5.1242,-5.1396,-2.8732,-2.9403,-2.9624,-2.9851,-3.0111,-3.0158,-3.0401,-3.0747,-3.0895,-3.1379,-3.2018,-3.2461,-3.3177,-3.4168,-3.435,-3.4626,-3.4899,-3.4899,-3.4994,-3.5088,-3.5088,-3.5245,-3.5492,-3.5492,-3.5566,-3.5728,-3.5888,-3.6367,-3.7076,-3.7809,-3.8186,-3.8285,-3.8551,-3.8762,-3.8847,-3.8923,-3.8999,-3.9101,-3.9514,-3.9781,-3.9922,-4.0319,-4.0569,-4.066,-4.0673,-4.07,-4.0778,-4.0778,-4.0759,-4.079,-4.1081,-4.1235,-4.1313,-4.2028,-4.2847,-4.3722,-4.4568,-4.5045,-4.507,-4.5529,-4.58,-4.5805,-4.5795,-4.5781,-4.5765,-4.5735,-4.5687,-4.569,-4.5693,-4.564,-4.5603,-4.5586,-4.5586,-4.5586,-4.5586,-4.5586,-4.5586,-4.5586,-4.5586,-4.5586,-4.5586,-4.5586,-4.5603,-4.5586,-4.5586,-4.5642,-4.5948,-4.6138,-4.6273,-4.6848,-4.7405,-4.7538,-4.7904,-4.8461,-4.8919,-4.9136,-4.9174,-4.9174,-4.9191,-4.9519,-4.9712,-4.9978,-4.9958,-5.046,-5.0692,-5.0751,-5.0785,-5.1043,-5.1152,-5.125,-5.1289,-5.1387,-5.1386,-5.1387,-5.1387,-2.8491,-2.8972,-2.9526,-2.9927,-3.0111,-3.0294,-3.0522,-3.0821,-3.1073,-3.1452,-3.1864,-3.2216,-3.2911,-3.3665,-3.4036,-3.4415,-3.4787,-3.4947,-3.5088,-3.5245,-3.5245,-3.5337,-3.552,-3.5583,-3.5656,-3.5817,-3.6002,-3.6291,-3.6746,-3.7451,-3.7913,-3.815,-3.846,-3.8732,-3.8899,-3.9027,-3.9088,-3.9242,-3.958,-3.9832,-3.9984,-4.0319,-4.0583,-4.072,-4.0733,-4.0746,-4.079,-4.079,-4.079,-4.079,-4.079,-4.079,-4.0868,-4.1564,-4.226,-4.2885,-4.3678,-4.4161,-4.4277,-4.4949,-4.5413,-4.5432,-4.567,-4.581,-4.5795,-4.5765,-4.5735,-4.5722,-4.5706,-4.5671,-4.5654,-4.5618,-4.562,-4.5603,-4.5586,-4.5586,-4.5586,-4.5586,-4.5586,-4.5603,-4.5622,-4.564,-4.562,-4.5637,-4.5618,-4.5637,-4.569,-4.5687,-4.5783,-4.6147,-4.6587,-4.6661,-4.7028,-4.7295,-4.75,-4.7503,-4.8218,-4.8353,-4.843,-4.8646,-4.8839,-4.9103,-4.9431,-5.0011,-5.0322,-5.0408,-5.0566,-5.082,-5.0957,-5.1016,-5.1269,-5.1387,-5.1387,-5.1387,-5.1387,-2.8519,-2.8698,-2.9651,-3.0111,-3.0172,-3.0522,-3.0762,-3.0881,-3.1176,-3.1351,-3.1509,-3.2064,-3.2492,-3.2895,-3.3767,-3.4301,-3.4626,-3.5088,-3.5337,-3.5429,-3.5492,-3.552,-3.5622,-3.5728,-3.5817,-3.5905,-3.6416,-3.6684,-3.6746,-3.7303,-3.7773,-3.8111,-3.8259,-3.8584,-3.9003,-3.9133,-3.9233,-3.9363,-3.9664,-3.992,-4.01,-4.0334,-4.0569,-4.0746,-4.0771,-4.0803,-4.0803,-4.0803,-4.079,-4.079,-4.0803,-4.0803,-4.0912,-4.1499,-4.1964,-4.2099,-4.2834,-4.3247,-4.3382,-4.4098,-4.4581,-4.4678,-4.5297,-4.5664,-4.5631,-4.5733,-4.5781,-4.5785,-4.575,-4.57,-4.57,-4.57,-4.5668,-4.564,-4.5603,-4.5603,-4.5603,-4.5603,-4.5603,-4.5603,-4.5657,-4.5673,-4.569,-4.5668,-4.5665,-4.5684,-4.57,-4.57,-4.5715,-4.5851,-4.5789,-4.5858,-4.6148,-4.6414,-4.6134,-4.5955,-4.696,-4.7753,-4.7874,-4.8033,-4.8207,-4.8419,-4.8671,-4.915,-4.9431,-4.9531,-4.9668,-4.9922,-5.0098,-5.0273,-5.0762,-5.1152,-5.1133,-5.1113,-5.1348,-2.8155,-2.9359,-2.9761,-3.0144,-3.0462,-3.0582,-3.0821,-3.1102,-3.1292,-3.1336,-3.1467,-3.1811,-3.2247,-3.2841,-3.3598,-3.4219,-3.4738,-3.5258,-3.5549,-3.5549,-3.5594,-3.5667,-3.5844,-3.5888,-3.6062,-3.6276,-3.6568,-3.6753,-3.6921,-3.747,-3.7859,-3.8029,-3.8499,-3.887,-3.9135,-3.9242,-3.9306,-3.9452,-3.9645,-3.9813,-3.9964,-4.023,-4.0434,-4.0588,-4.0725,-4.0804,-4.0792,-4.0796,-4.079,-4.079,-4.08,-4.0815,-4.0906,-4.1059,-4.1168,-4.1248,-4.1951,-4.2396,-4.2505,-4.3183,-4.3692,-4.3846,-4.4485,-4.4929,-4.5065,-4.5457,-4.5752,-4.5795,-4.58,-4.5765,-4.5715,-4.568,-4.57,-4.5648,-4.5668,-4.5668,-4.5651,-4.5668,-4.5687,-4.5668,-4.5684,-4.5684,-4.5684,-4.57,-4.5696,-4.5696,-4.5731,-4.5765,-4.5765,-4.5761,-4.5771,-4.5805,-4.5805,-4.5805,-4.5819,-4.5819,-4.6322,-4.6883,-4.7057,-4.7289,-4.7482,-4.7657,-4.7893,-4.814,-4.8446,-4.8633,-4.8769,-4.9023,-4.9219,-4.9531,-4.9961,-5.0293,-5.0566,-5.082,-5.1074,-2.7946,-2.9156,-2.9747,-3.019,-3.0628,-3.0702,-3.0999,-3.1278,-3.1351,-3.1467,-3.1597,-3.1727,-3.215,-3.2788,-3.3547,-3.4186,-3.4785,-3.5424,-3.5773,-3.58,-3.5728,-3.58,-3.5975,-3.6062,-3.6061,-3.6121,-3.6209,-3.619,-3.6127,-3.6952,-3.7442,-3.7711,-3.8493,-3.9058,-3.9276,-3.9408,-3.9509,-3.958,-3.969,-3.9832,-4.0002,-4.0192,-4.0396,-4.0535,-4.0723,-4.0809,-4.0839,-4.0846,-4.0839,-4.0827,-4.0828,-4.0858,-4.0888,-4.0859,-4.0846,-4.0943,-4.1265,-4.159,-4.1687,-4.2361,-4.286,-4.3015,-4.3628,-4.4098,-4.4272,-4.4871,-4.5341,-4.5365,-4.5636,-4.5776,-4.5761,-4.5727,-4.5727,-4.5746,-4.5715,-4.5696,-4.568,-4.568,-4.568,-4.568,-4.5715,-4.575,-4.575,-4.5746,-4.5727,-4.5742,-4.5776,-4.581,-4.581,-4.5805,-4.58,-4.58,-4.58,-4.58,-4.58,-4.5819,-4.5858,-4.6013,-4.6148,-4.6438,-4.6689,-4.682,-4.7013,-4.7209,-4.7467,-4.7422,-4.7558,-4.8086,-4.8437,-4.8808,-4.9121,-4.9687,-5.0117,-5.0508,-5.0801,-2.7762,-2.8247,-2.9608,-3.0372,-3.0702,-3.094,-3.119,-3.1351,-3.1482,-3.1597,-3.1784,-3.1841,-3.215,-3.2749,-3.3582,-3.4235,-3.4704,-3.5588,-3.6079,-3.6122,-3.6036,-3.5985,-3.5934,-3.6044,-3.5907,-3.5553,-3.5505,-3.5273,-3.5116,-3.6182,-3.6699,-3.7332,-3.8375,-3.9087,-3.9461,-3.9623,-3.9659,-3.974,-3.9854,-3.9956,-4.0081,-4.0281,-4.0442,-4.0577,-4.0757,-4.0898,-4.0907,-4.0907,-4.0907,-4.0901,-4.0913,-4.0914,-4.0896,-4.0897,-4.0907,-4.0909,-4.0927,-4.0966,-4.1112,-4.1615,-4.2009,-4.2106,-4.2756,-4.3227,-4.3357,-4.4014,-4.4537,-4.4568,-4.52,-4.5664,-4.5645,-4.5761,-4.5761,-4.578,-4.5742,-4.5712,-4.5715,-4.5696,-4.5731,-4.5712,-4.5746,-4.5815,-4.5795,-4.5786,-4.5786,-4.58,-4.5819,-4.5819,-4.5819,-4.58,-4.58,-4.5819,-4.5838,-4.5877,-4.5896,-4.5935,-4.5963,-4.5968,-4.599,-4.6118,-4.6261,-4.6356,-4.6415,-4.6553,-4.6641,-4.6504,-4.6601,-4.7226,-4.7519,-4.7676,-4.8242,-4.9082,-4.959,-4.9883,-5.0449,-2.7524,-2.8812,-2.9456,-3.0162,-3.094,-3.1176,-3.1351,-3.1467,-3.167,-3.1784,-3.1856,-3.1996,-3.2287,-3.268,-3.3684,-3.4301,-3.48,-3.5705,-3.6318,-3.6419,-3.6509,-3.618,-3.5775,-3.5797,-3.5591,-3.5113,-3.5062,-3.5155,-3.5411,-3.6445,-3.7198,-3.7571,-3.8689,-3.9413,-3.9627,-3.9698,-3.9781,-3.9901,-3.9958,-4.0015,-4.0099,-4.027,-4.0386,-4.054,-4.0723,-4.0869,-4.0952,-4.103,-4.1023,-4.0993,-4.1011,-4.1065,-4.1038,-4.0996,-4.098,-4.096,-4.0926,-4.0897,-4.0954,-4.1102,-4.1218,-4.1296,-4.2013,-4.2457,-4.2451,-4.3214,-4.3615,-4.3802,-4.4407,-4.491,-4.5007,-4.5432,-4.5722,-4.58,-4.5766,-4.5771,-4.5791,-4.5771,-4.5771,-4.5771,-4.5786,-4.5805,-4.5805,-4.5819,-4.58,-4.58,-4.58,-4.58,-4.58,-4.5819,-4.5838,-4.591,-4.5949,-4.5988,-4.6027,-4.6065,-4.6074,-4.6085,-4.6094,-4.6138,-4.624,-4.6298,-4.6318,-4.6367,-4.6445,-4.6387,-4.6348,-4.6621,-4.666,-4.683,-4.7374,-4.8196,-4.8609,-4.8984,-4.9785,-2.7445,-2.8812,-2.9393,-3.0222,-3.1132,-3.1336,-3.1452,-3.1655,-3.1841,-3.1996,-3.2135,-3.2302,-3.2656,-3.3177,-3.3953,-3.4464,-3.488,-3.5633,-3.6148,-3.6416,-3.6484,-3.6194,-3.5692,-3.5472,-3.5027,-3.4553,-3.4482,-3.4508,-3.4875,-3.6237,-3.7063,-3.7545,-3.8959,-3.9739,-3.9863,-3.9867,-3.992,-4.002,-4.0057,-4.0057,-4.0117,-4.0321,-4.045,-4.0596,-4.0787,-4.098,-4.1038,-4.1078,-4.1078,-4.1064,-4.1098,-4.111,-4.111,-4.1052,-4.1032,-4.1046,-4.1011,-4.0976,-4.0976,-4.096,-4.0935,-4.1012,-4.1441,-4.1568,-4.1761,-4.2391,-4.2854,-4.2928,-4.3652,-4.4059,-4.4272,-4.4867,-4.5247,-4.5297,-4.5587,-4.578,-4.58,-4.58,-4.58,-4.58,-4.58,-4.58,-4.58,-4.58,-4.58,-4.58,-4.58,-4.58,-4.58,-4.5852,-4.5886,-4.5984,-4.6025,-4.6047,-4.6084,-4.6113,-4.6152,-4.6151,-4.6181,-4.6219,-4.6242,-4.6267,-4.6284,-4.6288,-4.6288,-4.6288,-4.6288,-4.6287,-4.6384,-4.6612,-4.6915,-4.726,-4.7776,-4.827,-4.907,-2.7445,-2.8492,-2.9345,-3.0283,-3.1204,-3.1495,-3.1724,-3.194,-3.2094,-3.2358,-3.2602,-3.2711,-3.314,-3.3933,-3.4235,-3.469,-3.5211,-3.5677,-3.6139,-3.6411,-3.6476,-3.6201,-3.5966,-3.5064,-3.4411,-3.3977,-3.387,-3.3727,-3.4177,-3.567,-3.6614,-3.736,-3.9031,-3.9996,-4.0087,-4.0114,-4.0098,-4.0099,-4.0118,-4.0158,-4.0215,-4.0415,-4.0577,-4.0703,-4.0924,-4.1059,-4.1091,-4.1117,-4.1117,-4.1117,-4.111,-4.111,-4.111,-4.111,-4.111,-4.1091,-4.1104,-4.1078,-4.1085,-4.1038,-4.1003,-4.1035,-4.0991,-4.0917,-4.115,-4.1704,-4.2073,-4.2053,-4.2859,-4.3343,-4.3693,-4.4222,-4.4478,-4.4576,-4.5125,-4.5479,-4.5615,-4.5698,-4.58,-4.5814,-4.5814,-4.58,-4.5814,-4.5814,-4.58,-4.58,-4.5833,-4.588,-4.5899,-4.5937,-4.5991,-4.6044,-4.6076,-4.6097,-4.6128,-4.6173,-4.6189,-4.6219,-4.6249,-4.6265,-4.6267,-4.6286,-4.6285,-4.63,-4.63,-4.63,-4.63,-4.63,-4.63,-4.6337,-4.6599,-4.6889,-4.724,-4.7692,-4.8356,-2.6744,-2.7802,-2.8762,-2.986,-3.0999,-3.1766,-3.2231,-3.2602,-3.2711,-3.2873,-3.3087,-3.3261,-3.3575,-3.4084,-3.448,-3.4958,-3.5732,-3.6232,-3.6882,-3.747,-3.6913,-3.6728,-3.6389,-3.528,-3.4167,-3.371,-3.352,-3.3592,-3.4156,-3.5692,-3.682,-3.7351,-3.9062,-4.0195,-4.0193,-4.0195,-4.0196,-4.0233,-4.0215,-4.0267,-4.0361,-4.0482,-4.0641,-4.081,-4.102,-4.11,-4.1106,-4.1106,-4.1106,-4.1106,-4.11,-4.1109,-4.1097,-4.1103,-4.1103,-4.1117,-4.111,-4.111,-4.111,-4.1085,-4.1078,-4.1071,-4.1064,-4.1038,-4.096,-4.1143,-4.1254,-4.1344,-4.1956,-4.2694,-4.3229,-4.3578,-4.3723,-4.379,-4.3954,-4.4109,-4.4203,-4.5034,-4.5609,-4.5732,-4.5744,-4.5808,-4.5841,-4.5822,-4.5808,-4.5814,-4.586,-4.5938,-4.598,-4.6017,-4.6065,-4.6107,-4.6153,-4.6187,-4.6191,-4.623,-4.623,-4.625,-4.6282,-4.629,-4.6306,-4.6303,-4.629,-4.629,-4.6306,-4.6287,-4.6293,-4.629,-4.629,-4.6306,-4.6303,-4.6537,-4.6827,-4.7217,-4.7471,-2.7002,-2.8155,-2.9261,-3.0482,-3.169,-3.2461,-3.2857,-3.3124,-3.3351,-3.3507,-3.3713,-3.3899,-3.4201,-3.4578,-3.4988,-3.5504,-3.6028,-3.6729,-3.7323,-3.7611,-3.7205,-3.7025,-3.6934,-3.5975,-3.5,-3.4594,-3.4754,-3.488,-3.5465,-3.6577,-3.7769,-3.7953,-3.9528,-4.0233,-4.031,-4.0272,-4.0308,-4.0341,-4.0334,-4.0392,-4.0477,-4.0633,-4.0772,-4.0948,-4.1081,-4.1115,-4.1111,-4.1111,-4.1111,-4.1115,-4.1115,-4.1111,-4.1114,-4.11,-4.11,-4.1114,-4.1103,-4.1103,-4.1103,-4.1117,-4.111,-4.111,-4.111,-4.1078,-4.1059,-4.1046,-4.1033,-4.1104,-4.1422,-4.1902,-4.2286,-4.2792,-4.2882,-4.2977,-4.3249,-4.3455,-4.3614,-4.4238,-4.4723,-4.4843,-4.4987,-4.5192,-4.5336,-4.5459,-4.575,-4.5743,-4.5852,-4.5925,-4.6007,-4.6064,-4.6142,-4.6195,-4.6225,-4.6268,-4.6276,-4.629,-4.6273,-4.6276,-4.6293,-4.6303,-4.6303,-4.63,-4.6303,-4.63,-4.63,-4.63,-4.6303,-4.63,-4.63,-4.6303,-4.6303,-4.63,-4.6397,-4.6729,-4.6846,-2.7432,-2.8771,-2.9972,-3.1302,-3.2501,-3.3093,-3.3475,-3.3748,-3.3933,-3.4234,-3.4448,-3.4594,-3.4818,-3.5224,-3.5565,-3.5882,-3.647,-3.7175,-3.7843,-3.7871,-3.7703,-3.7619,-3.7503,-3.7103,-3.6736,-3.6442,-3.6205,-3.6332,-3.6764,-3.786,-3.8397,-3.8899,-3.9848,-4.036,-4.0417,-4.0432,-4.043,-4.0425,-4.0469,-4.0535,-4.0617,-4.0791,-4.0945,-4.1047,-4.11,-4.1105,-4.1105,-4.1105,-4.11,-4.11,-4.1109,-4.1109,-4.1105,-4.1115,-4.1115,-4.1111,-4.1106,-4.11,-4.1114,-4.1109,-4.1103,-4.1103,-4.1109,-4.1109,-4.11,-4.1081,-4.1094,-4.1104,-4.1225,-4.1194,-4.1094,-4.1686,-4.205,-4.2178,-4.2734,-4.3066,-4.3134,-4.3148,-4.3225,-4.3763,-4.418,-4.4469,-4.4676,-4.4851,-4.5308,-4.5667,-4.5755,-4.5832,-4.5852,-4.605,-4.61,-4.6228,-4.6268,-4.6284,-4.6287,-4.63,-4.63,-4.63,-4.63,-4.63,-4.63,-4.63,-4.63,-4.63,-4.63,-4.63,-4.63,-4.63,-4.63,-4.63,-4.63,-4.63,-4.63,-4.63,-4.6378,-2.7404,-2.8597,-2.9676,-3.0896,-3.2173,-3.3045,-3.402,-3.4723,-3.4883,-3.5024,-3.5195,-3.5224,-3.5481,-3.5776,-3.5864,-3.6405,-3.7324,-3.8029,-3.8423,-3.8535,-3.8456,-3.8519,-3.8563,-3.8442,-3.8479,-3.8311,-3.7601,-3.697,-3.721,-3.7942,-3.8841,-3.9071,-3.9917,-4.0479,-4.0485,-4.0482,-4.0523,-4.0539,-4.0573,-4.0646,-4.0792,-4.0917,-4.1013,-4.1094,-4.1101,-4.1101,-4.1104,-4.1104,-4.1104,-4.1104,-4.1104,-4.1108,-4.1088,-4.1101,-4.1094,-4.1105,-4.1105,-4.1109,-4.109,-4.1096,-4.11,-4.1113,-4.1101,-4.1088,-4.1097,-4.1103,-4.1107,-4.1107,-4.1108,-4.1089,-4.1086,-4.1322,-4.1301,-4.1375,-4.1513,-4.1687,-4.1646,-4.1774,-4.2217,-4.3033,-4.3436,-4.3734,-4.3895,-4.4121,-4.444,-4.474,-4.4903,-4.5006,-4.5073,-4.5505,-4.5953,-4.6122,-4.629,-4.6287,-4.63,-4.63,-4.63,-4.63,-4.63,-4.6296,-4.63,-4.63,-4.63,-4.6288,-4.6273,-4.6277,-4.6277,-4.6277,-4.6292,-4.6288,-4.6292,-4.63,-4.6273,-4.6269,-4.6273,-2.9045,-3.017,-3.1369,-3.2516,-3.3641,-3.4556,-3.5244,-3.5715,-3.5907,-3.5977,-3.6062,-3.6147,-3.6232,-3.6504,-3.6893,-3.756,-3.8319,-3.8741,-3.898,-3.9073,-3.9073,-3.9137,-3.9279,-3.9305,-3.9445,-3.9345,-3.8795,-3.838,-3.8537,-3.9261,-3.958,-3.9835,-4.0346,-4.0554,-4.0562,-4.0554,-4.0579,-4.0626,-4.0673,-4.0759,-4.0917,-4.0991,-4.1066,-4.1101,-4.1111,-4.1114,-4.1099,-4.1099,-4.1099,-4.1103,-4.1073,-4.1055,-4.1035,-4.1034,-4.105,-4.1084,-4.1099,-4.1084,-4.105,-4.105,-4.1051,-4.1053,-4.1053,-4.1035,-4.1054,-4.1053,-4.1071,-4.1107,-4.1105,-4.1107,-4.1111,-4.1112,-4.1112,-4.1112,-4.1112,-4.1112,-4.1112,-4.1113,-4.1658,-4.2407,-4.2678,-4.2895,-4.3046,-4.329,-4.3539,-4.3797,-4.402,-4.4147,-4.4238,-4.4741,-4.5324,-4.5371,-4.5503,-4.5928,-4.603,-4.6225,-4.6269,-4.6292,-4.6292,-4.6292,-4.6269,-4.6264,-4.6255,-4.6259,-4.625,-4.624,-4.624,-4.6231,-4.625,-4.6265,-4.6245,-4.6245,-4.625,-4.625,-4.6255,-3.1081,-3.2074,-3.324,-3.4347,-3.5279,-3.6002,-3.6452,-3.6671,-3.679,-3.6886,-3.6925,-3.702,-3.7076,-3.7323,-3.7923,-3.8637,-3.9279,-3.9287,-3.9389,-3.9383,-3.9401,-3.9477,-3.9556,-3.9637,-3.9757,-3.9966,-4.0018,-4.0172,-3.9907,-4.0249,-4.0521,-4.0538,-4.0604,-4.0635,-4.064,-4.064,-4.0635,-4.0694,-4.0746,-4.0859,-4.094,-4.1039,-4.1108,-4.1099,-4.1116,-4.1099,-4.1101,-4.1126,-4.1113,-4.1103,-4.1058,-4.1018,-4.0976,-4.0925,-4.0957,-4.1047,-4.1072,-4.1048,-4.1027,-4.1006,-4.099,-4.1006,-4.0984,-4.1001,-4.0996,-4.1023,-4.1022,-4.1072,-4.1091,-4.1081,-4.1078,-4.1078,-4.1078,-4.1078,-4.1078,-4.1081,-4.1085,-4.1072,-4.1058,-4.1558,-4.1855,-4.2069,-4.2238,-4.2261,-4.2475,-4.2733,-4.2949,-4.3279,-4.342,-4.381,-4.422,-4.4295,-4.4571,-4.5273,-4.5663,-4.6084,-4.6162,-4.625,-4.625,-4.625,-4.6245,-4.622,-4.6222,-4.6209,-4.6183,-4.6177,-4.6196,-4.6203,-4.6222,-4.6216,-4.6203,-4.6203,-4.6222,-4.6203,-4.6203,-3.2835,-3.3581,-3.4039,-3.4851,-3.5818,-3.622,-3.6805,-3.7559,-3.756,-3.7542,-3.7631,-3.7631,-3.7772,-3.8111,-3.8667,-3.9026,-3.9257,-3.9571,-3.9728,-3.9743,-3.9739,-3.9807,-3.9937,-4.0005,-4.0136,-4.0326,-4.0532,-4.0507,-4.0467,-4.0559,-4.0667,-4.0734,-4.0776,-4.0761,-4.0771,-4.0757,-4.0804,-4.0859,-4.0887,-4.0967,-4.1048,-4.1074,-4.1094,-4.1113,-4.111,-4.1107,-4.111,-4.1132,-4.1127,-4.109,-4.1071,-4.1014,-4.0933,-4.0903,-4.0896,-4.0942,-4.098,-4.1018,-4.098,-4.0961,-4.0953,-4.0959,-4.0979,-4.0989,-4.0978,-4.0992,-4.1,-4.1019,-4.1019,-4.1006,-4.1011,-4.1011,-4.1006,-4.1011,-4.1017,-4.1017,-4.1017,-4.1037,-4.1022,-4.1042,-4.1436,-4.1382,-4.1426,-4.1384,-4.1396,-4.1641,-4.1921,-4.2275,-4.2534,-4.2871,-4.3339,-4.3467,-4.3656,-4.4318,-4.5027,-4.5482,-4.5826,-4.6008,-4.6183,-4.6203,-4.619,-4.6164,-4.6183,-4.6189,-4.6135,-4.6127,-4.6135,-4.6162,-4.6189,-4.6189,-4.6146,-4.6181,-4.6203,-4.6196,-4.6135,-3.6003,-3.5472,-3.5801,-3.6379,-3.7111,-3.7521,-3.7965,-3.8358,-3.8376,-3.8394,-3.8425,-3.8456,-3.8637,-3.9007,-3.9443,-3.9649,-3.9794,-3.9982,-4.0081,-4.006,-4.006,-4.012,-4.0248,-4.0312,-4.0438,-4.0641,-4.0771,-4.0837,-4.0791,-4.0762,-4.0801,-4.0859,-4.0869,-4.0849,-4.0854,-4.0869,-4.0882,-4.0896,-4.0925,-4.0984,-4.1033,-4.1071,-4.1101,-4.1107,-4.1113,-4.1073,-4.1072,-4.1064,-4.1052,-4.1004,-4.0973,-4.0963,-4.0886,-4.0868,-4.0849,-4.0859,-4.0869,-4.0896,-4.0879,-4.0894,-4.0887,-4.089,-4.0902,-4.0894,-4.0924,-4.0941,-4.0964,-4.0999,-4.0999,-4.0986,-4.0981,-4.0994,-4.0994,-4.0987,-4.0974,-4.0981,-4.0981,-4.0987,-4.1,-4.0994,-4.0994,-4.1027,-4.1033,-4.1078,-4.1144,-4.1276,-4.1418,-4.1557,-4.1637,-4.1695,-4.2234,-4.2758,-4.3016,-4.3369,-4.4086,-4.4705,-4.5129,-4.5455,-4.6066,-4.6079,-4.6135,-4.6127,-4.6138,-4.6102,-4.6056,-4.6056,-4.6084,-4.6093,-4.6093,-4.6093,-4.6084,-4.6075,-4.6066,-4.6018,-4.5947,-3.8559,-3.7482,-3.7538,-3.7848,-3.8327,-3.8744,-3.9008,-3.9171,-3.9144,-3.9171,-3.9171,-3.9171,-3.9383,-3.9716,-3.9867,-4.0063,-4.0308,-4.0394,-4.0392,-4.0358,-4.0358,-4.0406,-4.0496,-4.0563,-4.0692,-4.0918,-4.0928,-4.0974,-4.1019,-4.1007,-4.0953,-4.0972,-4.0929,-4.0933,-4.0918,-4.0916,-4.0886,-4.0906,-4.0951,-4.0996,-4.0995,-4.1055,-4.1069,-4.1074,-4.1082,-4.1049,-4.0996,-4.097,-4.0931,-4.0858,-4.0851,-4.0842,-4.081,-4.0752,-4.0745,-4.0757,-4.075,-4.075,-4.0757,-4.0779,-4.0807,-4.0807,-4.0807,-4.0829,-4.0868,-4.0878,-4.0878,-4.0915,-4.0915,-4.0941,-4.0937,-4.0926,-4.0918,-4.0929,-4.0957,-4.0953,-4.0953,-4.0953,-4.0945,-4.0949,-4.0949,-4.0972,-4.0981,-4.0974,-4.0974,-4.1,-4.0993,-4.0986,-4.1011,-4.1035,-4.1357,-4.203,-4.2458,-4.2693,-4.3149,-4.3789,-4.4281,-4.4834,-4.5426,-4.5932,-4.5957,-4.6017,-4.6056,-4.6027,-4.5966,-4.5986,-4.6016,-4.5997,-4.5997,-4.5986,-4.5983,-4.5937,-4.5893,-4.5841,-4.5783,-3.9664,-3.9432,-3.8726,-3.8736,-3.9167,-3.9063,-3.9371,-3.981,-3.9679,-3.9519,-3.9392,-3.9561,-3.951,-3.9795,-3.9846,-4.0046,-4.0329,-4.0568,-4.0384,-4.0381,-4.0549,-4.0331,-4.0326,-4.0408,-4.0626,-4.0758,-4.0652,-4.0754,-4.0968,-4.061,-4.0847,-4.1091,-4.089,-4.0949,-4.0968,-4.094,-4.0917,-4.0917,-4.0967,-4.0987,-4.0992,-4.1008,-4.1033,-4.1039,-4.1007,-4.0955,-4.0975,-4.0881,-4.0776,-4.07,-4.0731,-4.0723,-4.0679,-4.0654,-4.0648,-4.0648,-4.0648,-4.0648,-4.0655,-4.0738,-4.0796,-4.0807,-4.0807,-4.0807,-4.0826,-4.0807,-4.0818,-4.0839,-4.0849,-4.0849,-4.0829,-4.0809,-4.0849,-4.0859,-4.0888,-4.0888,-4.0897,-4.0906,-4.0888,-4.0888,-4.0898,-4.0906,-4.0915,-4.0896,-4.0941,-4.0949,-4.0932,-4.0943,-4.0943,-4.0945,-4.0936,-4.1325,-4.1869,-4.216,-4.2296,-4.283,-4.3471,-4.3977,-4.4531,-4.522,-4.5735,-4.5802,-4.5653,-4.5933,-4.5898,-4.5917,-4.5925,-4.5905,-4.5893,-4.5899,-4.5893,-4.5833,-4.5727,-4.5645,-4.5596,-3.8256,-3.8033,-3.793,-3.8578,-3.9609,-3.9656,-3.9832,-3.9965,-3.9508,-3.8956,-3.8574,-3.8604,-3.8735,-3.8888,-3.9013,-3.9108,-3.9166,-3.9182,-3.9257,-3.919,-3.9161,-3.9209,-3.9263,-3.9422,-3.9374,-3.9564,-3.9593,-3.9528,-3.9452,-3.9667,-3.9492,-3.9647,-4.0409,-4.0935,-4.0994,-4.0797,-4.0836,-4.0875,-4.094,-4.0992,-4.0986,-4.098,-4.1006,-4.1022,-4.0961,-4.0887,-4.0826,-4.0747,-4.0639,-4.0566,-4.0611,-4.0607,-4.0603,-4.0579,-4.0574,-4.0574,-4.0593,-4.0588,-4.0588,-4.0694,-4.0764,-4.0788,-4.08,-4.0792,-4.0792,-4.0796,-4.0807,-4.0807,-4.0807,-4.0796,-4.0807,-4.0807,-4.0818,-4.0818,-4.0807,-4.0826,-4.0837,-4.0858,-4.0839,-4.0858,-4.0828,-4.0819,-4.0849,-4.0849,-4.0898,-4.0926,-4.0917,-4.0898,-4.0878,-4.0839,-4.0828,-4.0798,-4.1283,-4.1419,-4.1535,-4.2078,-4.2698,-4.3152,-4.3618,-4.4257,-4.4866,-4.4983,-4.4957,-4.5363,-4.5756,-4.5684,-4.5688,-4.5752,-4.5771,-4.5742,-4.5746,-4.5731,-4.5618,-4.5457,-4.54,-3.7412,-3.7249,-3.749,-3.8175,-3.914,-3.9317,-3.9451,-3.9446,-3.8929,-3.8388,-3.7851,-3.7963,-3.8071,-3.82,-3.8324,-3.8447,-3.8516,-3.8471,-3.8377,-3.8389,-3.8402,-3.8324,-3.8395,-3.8498,-3.869,-3.8515,-3.8515,-3.8589,-3.8629,-3.8482,-3.8571,-3.8965,-3.9555,-3.9995,-4.0098,-4.0203,-4.0215,-4.0205,-4.0485,-4.0568,-4.0521,-4.0805,-4.0874,-4.0871,-4.0796,-4.0733,-4.0636,-4.0581,-4.0526,-4.0466,-4.046,-4.0527,-4.0543,-4.0539,-4.0549,-4.0569,-4.0583,-4.0583,-4.0593,-4.064,-4.07,-4.0726,-4.072,-4.0732,-4.0776,-4.0781,-4.0769,-4.0792,-4.0792,-4.0804,-4.0804,-4.0792,-4.0812,-4.0812,-4.0804,-4.0804,-4.0804,-4.0815,-4.0815,-4.0815,-4.0807,-4.0787,-4.0787,-4.0807,-4.0798,-4.0849,-4.0868,-4.0848,-4.0848,-4.0776,-4.068,-4.0648,-4.0739,-4.0739,-4.0752,-4.1196,-4.1644,-4.2184,-4.2647,-4.3159,-4.3627,-4.3848,-4.4261,-4.4723,-4.506,-4.53,-4.5417,-4.5435,-4.5509,-4.5563,-4.5493,-4.5419,-4.5322,-4.5175,-4.5173,-3.7526,-3.7695,-3.7661,-3.7682,-3.7675,-3.7768,-3.7996,-3.8272,-3.804,-3.7836,-3.7694,-3.777,-3.7889,-3.7987,-3.7907,-3.7942,-3.8013,-3.8088,-3.8063,-3.7917,-3.7795,-3.8141,-3.8202,-3.8155,-3.791,-3.831,-3.8112,-3.7937,-3.8059,-3.7903,-3.8002,-3.8035,-3.8218,-3.8578,-3.842,-3.8412,-3.8404,-3.852,-3.9287,-3.9499,-3.9658,-4.0181,-4.044,-4.0413,-4.0524,-4.0513,-4.0482,-4.0449,-4.0421,-4.0417,-4.0396,-4.0413,-4.0413,-4.043,-4.0447,-4.0479,-4.0499,-4.0515,-4.0523,-4.0564,-4.0593,-4.0621,-4.0648,-4.0648,-4.0681,-4.0713,-4.0726,-4.0752,-4.0752,-4.0784,-4.0784,-4.0803,-4.0784,-4.0796,-4.0808,-4.08,-4.08,-4.0732,-4.0713,-4.0688,-4.073,-4.0776,-4.0765,-4.0765,-4.0742,-4.0754,-4.0776,-4.0796,-4.0773,-4.0649,-4.0516,-4.0482,-4.0438,-4.0419,-4.0423,-4.0307,-4.0622,-4.1178,-4.1656,-4.2112,-4.2631,-4.3057,-4.35,-4.4037,-4.4461,-4.4762,-4.4949,-4.5118,-4.518,-4.5222,-4.5113,-4.5019,-4.4967,-4.4967,-4.501,-3.5723,-3.5853,-3.6147,-3.6246,-3.6372,-3.7492,-3.8009,-3.8016,-3.7519,-3.6974,-3.6598,-3.6574,-3.6647,-3.6742,-3.6835,-3.6898,-3.6856,-3.6758,-3.6716,-3.6753,-3.6833,-3.6735,-3.6852,-3.6985,-3.6859,-3.6761,-3.6744,-3.6772,-3.6452,-3.6716,-3.6588,-3.652,-3.6833,-3.723,-3.7994,-3.8297,-3.8274,-3.8152,-3.84,-3.8517,-3.8488,-3.9148,-3.9615,-3.958,-3.9995,-4.0273,-4.0293,-4.0233,-4.031,-4.0328,-4.0327,-4.0326,-4.0344,-4.0363,-4.0398,-4.0432,-4.0432,-4.0432,-4.0447,-4.046,-4.0504,-4.0545,-4.0588,-4.0607,-4.0621,-4.0621,-4.0654,-4.0668,-4.0681,-4.0681,-4.0713,-4.0713,-4.0726,-4.079,-4.0803,-4.0803,-4.0771,-4.0654,-4.0559,-4.0515,-4.0511,-4.0462,-4.0446,-4.0506,-4.0506,-4.0487,-4.0521,-4.0582,-4.0582,-4.0431,-4.03,-4.0281,-4.0264,-4.0245,-4.0191,-4.0081,-4.0063,-4.0502,-4.0788,-4.0997,-4.1552,-4.2124,-4.2827,-4.3418,-4.3843,-4.4223,-4.4602,-4.4881,-4.4857,-4.4827,-4.4821,-4.4821,-4.4846,-4.487,-4.4919,-3.2593,-3.4958,-3.5412,-3.5554,-3.5728,-3.6809,-3.7325,-3.7278,-3.6762,-3.6212,-3.5881,-3.5868,-3.5954,-3.6007,-3.5994,-3.5991,-3.5955,-3.5937,-3.5929,-3.5892,-3.5919,-3.6036,-3.6012,-3.588,-3.6021,-3.5794,-3.5736,-3.5717,-3.5682,-3.5586,-3.5643,-3.5656,-3.5483,-3.6093,-3.6839,-3.7018,-3.7038,-3.6978,-3.7123,-3.7435,-3.7574,-3.8005,-3.8508,-3.8704,-3.9127,-3.9681,-3.9815,-3.9967,-4.0157,-4.0157,-4.0177,-4.0196,-4.0215,-4.0272,-4.0308,-4.0344,-4.0398,-4.0398,-4.0415,-4.0396,-4.0463,-4.0508,-4.0534,-4.0564,-4.0579,-4.0579,-4.0593,-4.0607,-4.0574,-4.0559,-4.0545,-4.0579,-4.0545,-4.0612,-4.053,-4.0511,-4.0481,-4.0332,-4.0281,-4.0247,-4.0212,-4.0139,-4.0101,-4.0177,-4.023,-4.0212,-4.0212,-4.0283,-4.0351,-4.0213,-4.0061,-4.0061,-4.0002,-3.9962,-3.992,-3.9897,-3.9895,-3.9916,-4.0091,-4.0283,-4.0523,-4.1139,-4.1949,-4.2801,-4.3315,-4.3851,-4.4403,-4.4659,-4.4667,-4.4693,-4.4667,-4.4693,-4.4745,-4.477,-4.4796,-2.8706,-3.4666,-3.5504,-3.5553,-3.5524,-3.5629,-3.5784,-3.5859,-3.5846,-3.5813,-3.5714,-3.586,-3.5914,-3.5922,-3.597,-3.5953,-3.5899,-3.5884,-3.588,-3.5866,-3.582,-3.5826,-3.5799,-3.5764,-3.566,-3.5546,-3.5502,-3.5438,-3.533,-3.5285,-3.53,-3.5262,-3.5196,-3.5385,-3.5496,-3.56,-3.5651,-3.5785,-3.6048,-3.6264,-3.6386,-3.7014,-3.7357,-3.764,-3.8111,-3.8546,-3.8831,-3.9188,-3.9545,-3.9697,-3.981,-3.9916,-3.9996,-4.0077,-4.0158,-4.0252,-4.0288,-4.0271,-4.027,-4.0233,-4.0252,-4.0252,-4.0342,-4.0427,-4.0492,-4.0489,-4.0454,-4.045,-4.0434,-4.0367,-4.0334,-4.0264,-4.0229,-4.0137,-4.0024,-4.0005,-4.0005,-3.9947,-3.9927,-3.9907,-3.9905,-3.9882,-3.9861,-3.9901,-3.9939,-3.9918,-3.9897,-3.992,-3.9962,-3.9939,-3.9848,-3.9807,-3.9758,-3.9674,-3.965,-3.9703,-3.9684,-3.9689,-3.9684,-3.9835,-4.0026,-4.0271,-4.1029,-4.1902,-4.2784,-4.3509,-4.4242,-4.4524,-4.4542,-4.4524,-4.4578,-4.4578,-4.4632,-4.4605,-4.4605,-3.2786,-3.4391,-3.4657,-3.44,-3.3876,-3.4024,-3.4734,-3.5777,-3.5873,-3.5845,-3.5864,-3.593,-3.576,-3.5898,-3.5932,-3.584,-3.581,-3.583,-3.5827,-3.5741,-3.5426,-3.5553,-3.5503,-3.5366,-3.5403,-3.5277,-3.5177,-3.5055,-3.5045,-3.5015,-3.4963,-3.487,-3.4902,-3.4813,-3.4753,-3.4776,-3.4787,-3.4868,-3.5154,-3.519,-3.5315,-3.5878,-3.6155,-3.6449,-3.7009,-3.7344,-3.7638,-3.8164,-3.8501,-3.8582,-3.912,-3.9389,-3.9427,-3.9609,-3.9788,-3.9829,-3.9804,-3.975,-3.974,-3.9754,-3.9788,-3.9832,-3.9835,-4.0081,-4.0233,-4.0304,-4.025,-4.023,-4.0156,-4.0063,-4.0004,-3.9964,-3.9905,-3.9823,-3.9721,-3.974,-3.9719,-3.9652,-3.963,-3.9626,-3.9599,-3.959,-3.9566,-3.9585,-3.9599,-3.9594,-3.9588,-3.9618,-3.9642,-3.9637,-3.9637,-3.9613,-3.9583,-3.952,-3.9495,-3.9527,-3.9476,-3.9451,-3.9476,-3.9502,-3.9633,-3.9914,-4.0326,-4.1215,-4.2433,-4.3427,-4.4271,-4.4421,-4.4458,-4.4458,-4.4468,-4.4496,-4.4496,-4.4468,-4.4487,-2.892,-3.32,-3.3807,-3.3627,-3.3291,-3.3351,-3.4043,-3.4822,-3.4892,-3.4918,-3.4922,-3.4894,-3.4947,-3.4827,-3.4759,-3.4714,-3.4685,-3.4593,-3.4575,-3.4478,-3.4638,-3.4357,-3.4347,-3.4293,-3.4006,-3.4117,-3.4287,-3.4224,-3.4339,-3.4621,-3.4653,-3.4553,-3.46,-3.4438,-3.4398,-3.4372,-3.4301,-3.4344,-3.4431,-3.439,-3.4563,-3.479,-3.4915,-3.5132,-3.5749,-3.6067,-3.6304,-3.6875,-3.7254,-3.7508,-3.8178,-3.8599,-3.8757,-3.9093,-3.9425,-3.9475,-3.9453,-3.9432,-3.9457,-3.9451,-3.9483,-3.9483,-3.947,-3.966,-3.9857,-3.9941,-3.9901,-3.9863,-3.9778,-3.9731,-3.9705,-3.966,-3.9595,-3.9534,-3.9552,-3.9576,-3.9481,-3.9402,-3.9352,-3.9345,-3.9305,-3.9264,-3.9256,-3.9301,-3.9328,-3.9362,-3.9369,-3.9388,-3.9439,-3.9439,-3.9483,-3.9502,-3.9451,-3.9418,-3.9391,-3.9373,-3.9373,-3.9399,-3.9425,-3.9425,-3.9399,-3.9642,-4.0117,-4.1116,-4.2304,-4.3194,-4.4055,-4.4298,-4.4401,-4.4401,-4.4354,-4.4354,-4.4383,-4.4458,-4.4458,-2.094,-3.2359,-3.2789,-3.2986,-3.3171,-3.3083,-3.3117,-3.3203,-3.3183,-3.33,-3.3434,-3.3453,-3.3574,-3.3693,-3.3584,-3.3497,-3.3528,-3.35,-3.3508,-3.3006,-3.3243,-3.3171,-3.2936,-3.2452,-3.2802,-3.2638,-3.2668,-3.3116,-3.328,-3.3459,-3.3713,-3.4083,-3.3855,-3.3598,-3.3383,-3.3382,-3.329,-3.3378,-3.3633,-3.3821,-3.3924,-3.3939,-3.3823,-3.3771,-3.4238,-3.4713,-3.5,-3.5522,-3.6127,-3.6519,-3.698,-3.7482,-3.7884,-3.821,-3.86,-3.8927,-3.8798,-3.8951,-3.9017,-3.91,-3.9189,-3.9287,-3.9408,-3.9364,-3.9371,-3.9566,-3.9571,-3.9548,-3.9494,-3.9396,-3.9338,-3.9357,-3.9287,-3.9242,-3.9216,-3.9234,-3.9181,-3.9146,-3.9146,-3.911,-3.9129,-3.9082,-3.9092,-3.912,-3.9166,-3.9175,-3.9175,-3.9175,-3.9202,-3.9229,-3.9275,-3.932,-3.932,-3.9301,-3.932,-3.932,-3.9346,-3.9346,-3.9373,-3.9328,-3.9301,-3.9589,-3.9952,-4.0904,-4.1848,-4.2855,-4.3639,-4.3919,-4.4151,-4.4285,-4.4255,-4.4237,-4.4218,-4.417,-4.4325,-2.4888,-3.1508,-3.1342,-3.1309,-3.1424,-3.1418,-3.1444,-3.1425,-3.1372,-3.2111,-3.3122,-3.3225,-3.3133,-3.2934,-3.2803,-3.2731,-3.2728,-3.2512,-3.2768,-3.257,-3.2454,-3.2152,-3.2289,-3.1827,-3.1879,-3.2004,-3.2024,-3.1885,-3.1974,-3.2121,-3.2164,-3.214,-3.2133,-3.2089,-3.2036,-3.1974,-3.1996,-3.2247,-3.2433,-3.2885,-3.319,-3.3421,-3.3476,-3.3408,-3.3684,-3.3644,-3.3924,-3.4263,-3.4636,-3.4916,-3.5639,-3.6108,-3.6509,-3.6703,-3.7114,-3.7626,-3.7753,-3.7985,-3.8303,-3.8419,-3.8453,-3.8564,-3.8619,-3.8711,-3.8836,-3.91,-3.9234,-3.9208,-3.9192,-3.9101,-3.9036,-3.9017,-3.9017,-3.8979,-3.895,-3.8939,-3.8939,-3.8939,-3.8939,-3.8939,-3.8939,-3.8921,-3.895,-3.895,-3.8979,-3.8979,-3.8979,-3.8979,-3.8979,-3.9007,-3.9017,-3.9045,-3.9147,-3.9175,-3.9193,-3.9221,-3.9248,-3.9248,-3.9229,-3.9183,-3.9156,-3.9323,-3.9556,-4.0384,-4.1295,-4.221,-4.2984,-4.3553,-4.3757,-4.3918,-4.3923,-4.3791,-4.3642,-4.3557,-4.3855,-2.1143,-2.673,-2.961,-3.0703,-3.0779,-3.0737,-3.0706,-3.0707,-3.0611,-3.1105,-3.196,-3.2047,-3.1997,-3.1874,-3.173,-3.1719,-3.1651,-3.1513,-3.126,-3.1244,-3.1312,-3.0978,-3.094,-3.0849,-3.0394,-3.0411,-3.0662,-3.0654,-3.0749,-3.1066,-3.1174,-3.0929,-3.0794,-3.073,-3.0776,-3.0742,-3.0693,-3.1049,-3.1118,-3.1497,-3.2179,-3.259,-3.2885,-3.2894,-3.2798,-3.2798,-3.2987,-3.3321,-3.3476,-3.3841,-3.4487,-3.5217,-3.5593,-3.581,-3.6014,-3.637,-3.657,-3.6685,-3.7102,-3.7348,-3.7371,-3.7389,-3.7393,-3.7296,-3.7882,-3.8151,-3.8588,-3.8596,-3.8865,-3.8851,-3.8881,-3.8881,-3.8892,-3.8881,-3.8892,-3.891,-3.8851,-3.884,-3.8822,-3.8851,-3.8803,-3.8676,-3.8658,-3.8658,-3.8707,-3.8921,-3.8892,-3.8833,-3.8833,-3.8646,-3.8688,-3.8748,-3.8807,-3.8989,-3.9064,-3.9092,-3.9101,-3.9101,-3.9008,-3.897,-3.8894,-3.8931,-3.919,-3.9792,-4.0491,-4.1313,-4.2051,-4.2782,-4.3169,-4.3334,-4.3318,-4.3283,-4.3123,-4.3014,-4.3194,-1.5487,-2.2479,-2.8321,-3.0756,-3.0776,-3.0654,-3.0608,-3.0581,-3.0443,-3.0402,-3.0577,-3.0617,-3.0402,-3.0306,-3.0164,-3.0047,-3.0041,-3.0213,-2.9922,-2.972,-2.9644,-2.9651,-2.9418,-2.902,-2.8894,-2.8915,-2.9116,-2.9508,-2.9792,-2.9955,-3.0004,-3.008,-3.0078,-3.0034,-3.0123,-3.0031,-2.9796,-2.9892,-2.9962,-3.0099,-3.0816,-3.1688,-3.202,-3.2127,-3.2091,-3.2232,-3.237,-3.2438,-3.2506,-3.2989,-3.3496,-3.4011,-3.4401,-3.4543,-3.4831,-3.5019,-3.5137,-3.5367,-3.5717,-3.5876,-3.5883,-3.5887,-3.5836,-3.6108,-3.6694,-3.7067,-3.7489,-3.8003,-3.8272,-3.8621,-3.8621,-3.8689,-3.8732,-3.8683,-3.8743,-3.8743,-3.8701,-3.8609,-3.859,-3.8603,-3.8473,-3.836,-3.836,-3.831,-3.8423,-3.8646,-3.8755,-3.8725,-3.8615,-3.8296,-3.818,-3.8245,-3.8342,-3.8548,-3.8718,-3.8778,-3.8711,-3.8603,-3.8511,-3.8591,-3.8609,-3.8499,-3.8593,-3.8943,-3.9692,-4.06,-4.1397,-4.2122,-4.2429,-4.2792,-4.2754,-4.2716,-4.2716,-4.26,-4.258,-1.8161,-2.8849,-3.0255,-3.0701,-3.0781,-3.0645,-3.0604,-3.0568,-3.0323,-3.0253,-3.0171,-3.0089,-3.0052,-3.0117,-2.9899,-2.9697,-2.942,-2.9342,-2.9116,-2.8934,-2.881,-2.8688,-2.8511,-2.8165,-2.8002,-2.7975,-2.7983,-2.8118,-2.8338,-2.8393,-2.8375,-2.8417,-2.8217,-2.8167,-2.8106,-2.8058,-2.8099,-2.8404,-2.8492,-2.851,-2.911,-3.0039,-3.1218,-3.1438,-3.1565,-3.149,-3.1452,-3.1376,-3.1752,-3.2213,-3.2599,-3.2897,-3.3038,-3.3125,-3.3299,-3.3665,-3.3775,-3.4075,-3.4356,-3.4568,-3.4602,-3.4725,-3.4759,-3.4918,-3.5327,-3.5415,-3.6049,-3.6967,-3.741,-3.8132,-3.8273,-3.8396,-3.8446,-3.835,-3.83,-3.8234,-3.8186,-3.8,-3.7861,-3.7861,-3.7808,-3.7773,-3.7808,-3.7773,-3.772,-3.7911,-3.7946,-3.7946,-3.798,-3.7808,-3.7667,-3.772,-3.7825,-3.7841,-3.7943,-3.8092,-3.8074,-3.8008,-3.8026,-3.8077,-3.8044,-3.7907,-3.8077,-3.8438,-3.9099,-3.9994,-4.0763,-4.1529,-4.2081,-4.2386,-4.2244,-4.218,-4.2198,-4.2157,-4.2074]}]]